[[{"header":{"parameterUnit":"m.s-1","parameterCategory":1,"la1":30.6,"la2":28.766,"lo1":-90.7593,"lo2":-88.6598,"dy":0.0162,"dx":0.0183,"nx":116,"ny":114,"refTime":"2023-06-15T00:00:00:Z","depth":0,"parameterNumber":2,"parameterNumberName":"U-component_of_WINDS"},"data":[0.0,0.0,0.0,0.0,0.0,0.0,0.0,0.0,0.0,0.0,0.0,0.0,0.0,0.0,0.0,0.0,0.0,0.0,0.0,0.0,0.0,0.0,0.0,0.0,0.0,0.0,0.0,0.0,0.0,0.0,0.0,0.0,0.0,0.0,0.0,0.0,0.0,0.0,0.0,0.0,0.0,0.0,0.0,0.0,0.0,0.0,0.0,0.0,0.0,0.0,0.0,0.0,0.0,0.0,0.0,0.0,0.0,0.0,0.0,0.0,0.0,0.0,0.0,0.0,0.0,0.0,0.0,0.0,0.0,0.0,0.0,0.0,0.0,0.0,0.0,0.0,0.0,0.0,0.0,0.0,0.0,0.0,0.0,0.0,0.0,0.0,0.0,0.0,0.0,0.0,0.0,0.0,0.0,0.0,0.0,0.0,0.0,0.0,0.0,0.0,0.0,0.0,0.0,0.0,0.0,0.0,0.0,0.0,0.0,0.0,0.0,0.0,0.0,0.0,0.0,0.0,0.0,0.0,0.0,0.0,0.0,0.0,0.0,0.0,0.0,0.0,0.0,0.0,0.0,0.0,0.0,0.0,0.0,0.0,0.0,0.0,0.0,0.0,0.0,0.0,0.0,0.0,0.0,0.0,0.0,0.0,0.0,0.0,0.0,0.0,0.0,0.0,0.0,0.0,0.0,0.0,0.0,0.0,0.0,0.0,0.0,0.0,0.0,0.0,0.0,0.0,0.0,0.0,0.0,0.0,0.0,0.0,0.0,0.0,0.0,0.0,0.0,0.0,0.0,0.0,0.0,0.0,0.0,0.0,0.0,0.0,0.0,0.0,0.0,0.0,0.0,0.0,0.0,0.0,0.0,0.0,0.0,0.0,0.0,0.0,0.0,0.0,0.0,0.0,0.0,0.0,0.0,0.0,0.0,0.0,0.0,0.0,0.0,0.0,0.0,0.0,0.0,0.0,0.0,0.0,0.0,0.0,0.0,0.0,0.0,0.0,0.0,0.0,0.0,0.0,0.0,0.0,0.0,0.0,0.0,0.0,0.0,0.0,0.0,0.0,0.0,0.0,0.0,0.0,0.0,0.0,0.0,0.0,0.0,0.0,0.0,0.0,0.0,0.0,0.0,0.0,0.0,0.0,0.0,0.0,0.0,0.0,0.0,0.0,0.0,0.0,0.0,0.0,0.0,0.0,0.0,0.0,0.0,0.0,0.0,0.0,0.0,0.0,0.0,0.0,0.0,0.0,0.0,0.0,0.0,0.0,0.0,0.0,0.0,0.0,0.0,0.0,0.0,0.0,0.0,0.0,0.0,0.0,0.0,0.0,0.0,0.0,0.0,0.0,0.0,0.0,0.0,0.0,0.0,0.0,0.0,0.0,0.0,0.0,0.0,0.0,0.0,0.0,0.0,0.0,0.0,0.0,0.0,0.0,0.0,0.0,0.0,0.0,0.0,0.0,0.0,0.0,0.0,0.0,0.0,0.0,0.0,0.0,0.0,0.0,0.0,0.0,0.0,0.0,0.0,0.0,0.0,0.0,0.0,0.0,0.0,0.0,0.0,0.0,0.0,0.0,0.0,0.0,0.0,0.0,0.0,0.0,0.0,0.0,0.0,0.0,0.0,0.0,0.0,0.0,0.0,0.0,0.0,0.0,0.0,0.0,0.0,0.0,0.0,0.0,0.0,0.0,0.0,0.0,0.0,0.0,0.0,0.0,0.0,0.0,0.0,0.0,0.0,0.0,0.0,0.0,0.0,0.0,0.0,0.0,0.0,0.0,0.0,0.0,0.0,0.0,0.0,0.0,0.0,0.0,0.0,0.0,0.0,0.0,0.0,0.0,0.0,0.0,0.0,0.0,0.0,0.0,0.0,0.0,0.0,0.0,0.0,0.0,0.0,0.0,0.0,0.0,0.0,0.0,0.0,0.0,0.0,0.0,0.0,0.0,0.0,0.0,0.0,0.0,0.0,0.0,0.0,0.0,0.0,0.0,0.0,0.0,0.0,0.0,0.0,0.0,0.0,0.0,0.0,0.0,0.0,0.0,0.0,0.0,0.0,0.0,0.0,0.0,0.0,0.0,0.0,0.0,0.0,0.0,0.0,0.0,0.0,0.0,0.0,0.0,0.0,0.0,0.0,0.0,0.0,0.0,0.0,0.0,0.0,0.0,0.0,0.0,0.0,0.0,0.0,0.0,0.0,0.0,0.0,0.0,0.0,0.0,0.0,0.0,0.0,0.0,0.0,0.0,0.0,0.0,0.0,0.0,0.0,0.0,0.0,0.0,0.0,0.0,0.0,0.0,0.0,0.0,0.0,0.0,0.0,0.0,0.0,0.0,0.0,0.0,0.0,0.0,0.0,0.0,0.0,0.0,0.0,0.0,0.0,0.0,0.0,0.0,0.0,0.0,0.0,0.0,0.0,0.0,0.0,0.0,0.0,0.0,0.0,0.0,0.0,0.0,0.0,0.0,0.0,0.0,0.0,0.0,0.0,0.0,0.0,0.0,0.0,0.0,0.0,0.0,0.0,0.0,0.0,0.0,0.0,0.0,0.0,0.0,0.0,0.0,0.0,0.0,0.0,0.0,0.0,0.0,0.0,0.0,0.0,0.0,0.0,0.0,0.0,0.0,0.0,0.0,0.0,0.0,0.0,0.0,0.0,0.0,0.0,0.0,0.0,0.0,0.0,0.0,0.0,0.0,0.0,0.0,0.0,0.0,0.0,0.0,0.0,0.0,0.0,0.0,0.0,0.0,0.0,0.0,0.0,0.0,0.0,0.0,0.0,0.0,0.0,0.0,0.0,0.0,0.0,0.0,0.0,0.0,0.0,0.0,0.0,0.0,0.0,0.0,0.0,0.0,0.0,0.0,0.0,0.0,0.0,0.0,0.0,0.0,0.0,0.0,0.0,0.0,0.0,0.0,0.0,0.0,0.0,0.0,0.0,0.0,0.0,0.0,0.0,0.0,0.0,0.0,0.0,0.0,0.0,0.0,0.0,0.0,0.0,0.0,0.0,0.0,0.0,0.0,0.0,0.0,0.0,0.0,0.0,0.0,0.0,0.0,0.0,0.0,0.0,0.0,0.0,0.0,0.0,0.0,0.0,0.0,0.0,0.0,0.0,0.0,0.0,0.0,0.0,0.0,0.0,0.0,0.0,0.0,0.0,0.0,0.0,0.0,0.0,0.0,0.0,0.0,0.0,0.0,0.0,0.0,0.0,0.0,0.0,0.0,0.0,0.0,0.0,0.0,0.0,0.0,0.0,0.0,0.0,0.0,0.0,0.0,0.0,0.0,0.0,0.0,0.0,0.0,0.0,0.0,0.0,0.0,0.0,0.0,0.0,0.0,0.0,0.0,0.0,0.0,0.0,0.0,0.0,0.0,0.0,0.0,0.0,0.0,0.0,0.0,0.0,0.0,0.0,0.0,0.0,0.0,0.0,0.0,0.0,0.0,0.0,0.0,0.0,0.0,0.0,0.0,0.0,0.0,0.0,0.0,0.0,0.0,0.0,0.0,0.0,0.0,0.0,0.0,0.0,0.0,0.0,0.0,0.0,0.0,0.0,0.0,0.0,0.0,0.0,0.0,0.0,0.0,0.0,0.0,0.0,0.0,0.0,0.0,0.0,0.0,0.0,0.0,0.0,0.0,0.0,0.0,0.0,0.0,0.0,0.0,0.0,0.0,0.0,0.0,0.0,0.0,0.0,0.0,0.0,0.0,0.0,0.0,0.0,0.0,0.0,0.0,0.0,0.0,0.0,0.0,0.0,0.0,0.0,0.0,0.0,0.0,0.0,0.0,0.0,0.0,0.0,0.0,0.0,0.0,0.0,0.0,0.0,0.0,0.0,0.0,0.0,0.0,0.0,0.0,0.0,0.0,0.0,0.0,0.0,0.0,0.0,0.0,0.0,0.0,0.0,0.0,0.0,0.0,0.0,0.0,0.0,0.0,0.0,0.0,0.0,0.0,0.0,0.0,0.0,0.0,0.0,0.0,0.0,0.0,0.0,0.0,0.0,0.0,0.0,0.0,0.0,0.0,0.0,0.0,0.0,0.0,0.0,0.0,0.0,0.0,0.0,0.0,0.0,0.0,0.0,0.0,0.0,0.0,0.0,0.0,0.0,0.0,0.0,0.0,0.0,0.0,0.0,0.0,0.0,0.0,0.0,0.0,0.0,0.0,0.0,0.0,0.0,0.0,0.0,0.0,0.0,0.0,0.0,0.0,0.0,0.0,0.0,0.0,0.0,0.0,0.0,0.0,0.0,0.0,0.0,0.0,0.0,0.0,0.0,0.0,0.0,0.0,0.0,0.0,0.0,0.0,0.0,0.0,0.0,0.0,0.0,0.0,0.0,0.0,0.0,0.0,0.0,0.0,0.0,0.0,0.0,0.0,0.0,0.0,0.0,0.0,0.0,0.0,0.0,0.0,0.0,0.0,0.0,0.0,0.0,0.0,0.0,0.0,0.0,0.0,0.0,0.0,0.0,0.0,0.0,0.0,0.0,0.0,0.0,0.0,0.0,0.0,0.0,0.0,0.0,0.0,0.0,0.0,0.0,0.0,0.0,0.0,0.0,0.0,0.0,0.0,0.0,0.0,0.0,0.0,0.0,0.0,0.0,0.0,0.0,0.0,0.0,0.0,0.0,0.0,0.0,0.0,0.0,0.0,0.0,0.0,0.0,0.0,0.0,0.0,0.0,0.0,0.0,0.0,0.0,0.0,0.0,0.0,0.0,0.0,0.0,0.0,0.0,0.0,0.0,0.0,0.0,0.0,0.0,0.0,0.0,0.0,0.0,0.0,0.0,0.0,0.0,0.0,0.0,0.0,0.0,0.0,0.0,0.0,0.0,0.0,0.0,0.0,0.0,0.0,0.0,0.0,0.0,0.0,0.0,0.0,0.0,0.0,0.0,0.0,0.0,0.0,0.0,0.0,0.0,0.0,0.0,0.0,0.0,0.0,0.0,0.0,0.0,0.0,0.0,0.0,0.0,0.0,0.0,0.0,0.0,0.0,0.0,0.0,0.0,0.0,0.0,0.0,0.0,0.0,0.0,0.0,0.0,0.0,0.0,0.0,0.0,0.0,0.0,0.0,0.0,0.0,0.0,0.0,0.0,0.0,0.0,0.0,0.0,0.0,0.0,0.0,0.0,0.0,0.0,0.0,0.0,0.0,0.0,0.0,0.0,0.0,0.0,0.0,0.0,0.0,0.0,0.0,0.0,0.0,0.0,0.0,0.0,0.0,0.0,0.0,0.0,0.0,0.0,0.0,0.0,0.0,0.0,0.0,0.0,0.0,0.0,0.0,0.0,0.0,0.0,0.0,0.0,0.0,0.0,0.0,0.0,0.0,0.0,0.0,0.0,0.0,0.0,0.0,0.0,0.0,0.0,0.0,0.0,0.0,0.0,0.0,0.0,0.0,0.0,0.0,0.0,0.0,0.0,0.0,0.0,0.0,0.0,0.0,0.0,0.0,0.0,0.0,0.0,0.0,0.0,0.0,0.0,0.0,0.0,0.0,0.0,0.0,0.0,0.0,0.0,0.0,0.0,0.0,0.0,0.0,0.0,0.0,0.0,0.0,0.0,0.0,0.0,0.0,0.0,0.0,0.0,0.0,0.0,0.0,0.0,0.0,0.0,0.0,0.0,0.0,0.0,0.0,0.0,0.0,0.0,0.0,0.0,0.0,0.0,0.0,0.0,0.0,0.0,0.0,0.0,0.0,0.0,0.0,0.0,0.0,0.0,0.0,0.0,0.0,0.0,0.0,0.0,0.0,0.0,0.0,0.0,0.0,0.0,0.0,0.0,0.0,0.0,0.0,0.0,0.0,0.0,0.0,0.0,0.0,0.0,0.0,0.0,0.0,0.0,0.0,0.0,0.0,0.0,0.0,0.0,0.0,0.0,0.0,0.0,0.0,0.0,0.0,0.0,0.0,0.0,0.0,0.0,0.0,0.0,0.0,0.0,0.0,0.0,0.0,0.0,0.0,0.0,0.0,0.0,0.0,0.0,0.0,0.0,0.0,0.0,0.0,0.0,0.0,0.0,0.0,0.0,0.0,0.0,0.0,0.0,0.0,0.0,0.0,0.0,0.0,0.0,0.0,0.0,0.0,-3.9156,-3.9521,0.0,0.0,0.0,0.0,0.0,0.0,0.0,0.0,0.0,0.0,0.0,0.0,0.0,0.0,0.0,0.0,0.0,0.0,0.0,0.0,0.0,0.0,0.0,0.0,0.0,0.0,0.0,0.0,0.0,0.0,0.0,0.0,0.0,0.0,0.0,0.0,0.0,0.0,0.0,0.0,0.0,0.0,0.0,0.0,0.0,0.0,0.0,0.0,0.0,0.0,0.0,0.0,0.0,0.0,0.0,0.0,0.0,0.0,0.0,0.0,0.0,0.0,0.0,0.0,0.0,0.0,0.0,0.0,0.0,0.0,0.0,0.0,0.0,0.0,0.0,0.0,0.0,0.0,0.0,0.0,0.0,0.0,0.0,0.0,0.0,0.0,0.0,0.0,0.0,0.0,0.0,0.0,0.0,0.0,0.0,0.0,0.0,0.0,0.0,0.0,0.0,0.0,0.0,0.0,0.0,0.0,0.0,0.0,0.0,0.0,0.0,0.0,0.0,0.0,-3.9643,-4.0249,0.0,0.0,0.0,0.0,0.0,0.0,0.0,0.0,0.0,0.0,0.0,0.0,0.0,0.0,0.0,0.0,0.0,0.0,0.0,0.0,0.0,0.0,0.0,0.0,0.0,0.0,0.0,0.0,0.0,0.0,0.0,0.0,0.0,0.0,0.0,0.0,0.0,0.0,0.0,0.0,0.0,0.0,0.0,0.0,0.0,0.0,0.0,0.0,0.0,0.0,0.0,0.0,0.0,0.0,0.0,0.0,0.0,0.0,0.0,0.0,0.0,0.0,0.0,0.0,0.0,0.0,0.0,0.0,0.0,0.0,0.0,0.0,0.0,0.0,0.0,0.0,0.0,0.0,0.0,0.0,0.0,0.0,0.0,0.0,0.0,0.0,0.0,0.0,0.0,0.0,0.0,0.0,0.0,0.0,0.0,0.0,0.0,0.0,0.0,0.0,0.0,0.0,0.0,0.0,0.0,0.0,0.0,0.0,-4.0247,-4.0305,-3.8554,-4.0468,-4.0518,-3.9173,-4.031,-4.1003,-4.1275,-4.0981,0.0,0.0,0.0,0.0,0.0,0.0,0.0,0.0,0.0,0.0,0.0,0.0,0.0,0.0,0.0,0.0,0.0,0.0,0.0,0.0,0.0,0.0,0.0,0.0,0.0,0.0,0.0,0.0,0.0,0.0,0.0,0.0,0.0,0.0,0.0,0.0,0.0,0.0,-3.6849,-3.6849,-3.6849,-3.6896,0.0,0.0,0.0,0.0,0.0,0.0,0.0,0.0,0.0,0.0,0.0,0.0,0.0,0.0,0.0,0.0,0.0,0.0,0.0,0.0,0.0,0.0,0.0,0.0,0.0,0.0,0.0,0.0,0.0,0.0,0.0,0.0,0.0,0.0,0.0,0.0,0.0,0.0,0.0,0.0,0.0,0.0,0.0,0.0,-3.5272,-3.5798,0.0,0.0,0.0,0.0,0.0,0.0,0.0,0.0,0.0,0.0,0.0,0.0,0.0,-3.911,-3.6451,-3.9588,-3.9746,-3.6883,-3.9874,-3.9788,-3.7087,-3.9953,-4.0794,-3.9961,-4.1384,0.0,-4.1168,-3.9764,0.0,0.0,0.0,0.0,0.0,0.0,0.0,0.0,0.0,0.0,0.0,0.0,0.0,0.0,0.0,0.0,0.0,0.0,0.0,0.0,0.0,0.0,0.0,0.0,0.0,0.0,0.0,0.0,0.0,0.0,0.0,0.0,0.0,0.0,0.0,0.0,-3.7068,-3.6405,-3.6405,-3.6405,-3.6405,-3.6405,-3.6943,-3.715,-3.7103,-3.6615,0.0,0.0,0.0,0.0,0.0,0.0,0.0,0.0,0.0,0.0,0.0,0.0,0.0,0.0,0.0,0.0,0.0,0.0,0.0,0.0,0.0,0.0,0.0,0.0,0.0,0.0,0.0,0.0,0.0,0.0,0.0,0.0,0.0,0.0,0.0,0.0,0.0,0.0,0.0,-3.6207,-3.5821,-3.6944,-3.6603,-3.6898,0.0,0.0,0.0,0.0,0.0,0.0,0.0,0.0,0.0,-3.6067,-3.8335,-3.8287,-3.5475,-3.9666,-4.0691,-3.8514,-4.0122,-4.0209,-3.8908,-4.0266,-4.0862,-4.0826,-4.1459,-4.2273,-4.3081,-4.1737,-4.1601,-4.2258,0.0,0.0,0.0,0.0,-4.2258,-4.2258,0.0,0.0,0.0,0.0,0.0,0.0,0.0,0.0,0.0,0.0,0.0,0.0,0.0,0.0,0.0,-3.9373,0.0,0.0,0.0,0.0,0.0,0.0,0.0,0.0,0.0,0.0,0.0,0.0,-3.6803,-3.6405,-3.6405,-3.6405,-3.6405,-3.6405,-3.6405,-3.6405,-3.6405,-3.6405,-3.6405,0.0,0.0,0.0,0.0,0.0,0.0,0.0,0.0,0.0,0.0,0.0,0.0,0.0,0.0,0.0,0.0,0.0,0.0,0.0,0.0,0.0,0.0,0.0,0.0,0.0,0.0,0.0,0.0,0.0,0.0,0.0,0.0,0.0,0.0,0.0,0.0,0.0,0.0,-3.6734,-3.6477,-3.7714,-3.698,-3.6935,0.0,0.0,0.0,0.0,0.0,0.0,-3.6634,-3.66,-3.6178,-3.52,-3.7383,-3.7313,-3.4837,-3.9585,-4.1056,-3.9117,-4.0816,-4.1171,-4.0388,-4.1229,-4.1876,-4.2238,-4.2238,-4.3124,-4.451,-4.3315,-4.3049,-4.3388,-4.3388,-4.3388,-4.3388,-4.3388,-4.3388,-4.3388,0.0,0.0,0.0,0.0,0.0,0.0,0.0,0.0,0.0,0.0,0.0,0.0,0.0,0.0,-3.9373,-3.9373,-3.9373,-3.9373,0.0,0.0,0.0,0.0,0.0,0.0,0.0,0.0,0.0,-3.6499,-3.6452,-3.6405,-3.6405,-3.6405,-3.6405,-3.6405,-3.6405,-3.6405,-3.6405,-3.6405,-3.6405,-3.6405,0.0,0.0,0.0,0.0,0.0,0.0,0.0,0.0,0.0,0.0,0.0,0.0,0.0,0.0,0.0,0.0,0.0,0.0,0.0,0.0,0.0,0.0,0.0,0.0,0.0,0.0,0.0,0.0,0.0,0.0,0.0,0.0,0.0,0.0,0.0,0.0,0.0,0.0,0.0,-3.744,-3.6279,0.0,0.0,0.0,0.0,-3.596,-3.6317,-3.7213,-3.8674,-3.7349,-3.6796,-3.7264,-3.7381,-3.6897,-3.5722,-3.9524,-3.9859,-3.6727,-4.1888,-4.2745,-3.9882,-4.3006,-4.4427,-4.4452,-4.4452,-4.4477,-4.4502,-4.2996,-4.3208,-4.4543,-4.4543,-4.4543,-4.4543,-4.4543,-4.4543,-4.4543,0.0,0.0,0.0,0.0,0.0,0.0,0.0,0.0,0.0,0.0,0.0,0.0,0.0,-3.9373,-3.9373,-3.9373,-3.9373,-3.909,-3.8435,0.0,0.0,0.0,0.0,0.0,0.0,0.0,0.0,-3.6405,-3.6405,-3.6405,-3.6405,-3.6405,-3.6405,-3.6405,-3.6405,-3.6405,-3.6405,-3.6405,-3.6405,-3.6405,-3.6405,-3.6631,0.0,0.0,0.0,0.0,0.0,0.0,0.0,0.0,0.0,0.0,0.0,0.0,0.0,0.0,0.0,0.0,0.0,0.0,0.0,0.0,0.0,0.0,0.0,0.0,0.0,0.0,0.0,0.0,0.0,0.0,0.0,0.0,0.0,0.0,0.0,0.0,0.0,-3.7743,-3.5792,0.0,-3.8131,-3.6307,-3.4947,-3.4947,-3.4473,-3.4364,-3.4942,-3.4693,-3.478,-3.5231,-3.734,-3.7824,-3.6646,-4.1161,-4.2316,-4.0106,-4.215,-4.3044,-4.2842,-4.3044,-4.3856,-4.5171,-4.5171,-4.5372,-4.5639,-4.5077,-4.4799,-4.4618,-4.4618,-4.4618,-4.4618,-4.4618,-4.4618,-4.4618,0.0,0.0,0.0,0.0,0.0,0.0,0.0,0.0,0.0,0.0,0.0,-3.9373,-3.9373,-3.9373,-3.9373,-3.9373,-3.9373,-3.909,-3.8397,0.0,0.0,0.0,0.0,0.0,0.0,0.0,0.0,0.0,0.0,-3.6405,-3.6405,-3.6405,-3.6405,-3.6405,-3.6405,-3.6505,-3.6681,-3.6681,-3.6581,-3.643,-3.6606,-3.6908,-3.7211,0.0,0.0,0.0,0.0,0.0,0.0,0.0,0.0,0.0,0.0,0.0,0.0,0.0,0.0,0.0,0.0,0.0,0.0,0.0,0.0,0.0,0.0,0.0,0.0,0.0,0.0,0.0,0.0,0.0,0.0,0.0,0.0,0.0,0.0,0.0,-3.6323,-3.8264,-3.6252,-3.5416,-3.7213,-3.5275,-3.4097,-3.4613,-3.3778,-3.3704,-3.478,-3.4226,-3.4477,-3.5949,-3.6981,-3.7943,-3.8832,-4.1152,-4.2363,-4.2363,-4.2613,-4.3313,-4.4294,-4.3842,-4.4421,-4.5773,-4.5773,-4.5974,-4.6301,-4.6301,-4.5874,-4.5196,-4.5196,-4.5196,-4.5196,-4.5196,-4.5196,-4.5196,0.0,0.0,0.0,0.0,0.0,0.0,0.0,0.0,0.0,0.0,-3.9373,-3.9373,-3.9373,-3.9373,-3.9373,-3.9373,-3.9373,-3.9373,-3.9367,-4.0031,0.0,0.0,0.0,0.0,0.0,0.0,0.0,0.0,0.0,0.0,0.0,-3.6405,-3.6405,-3.6405,-3.643,-3.6732,-3.7186,-3.7211,-3.6958,-3.6505,-3.6985,-3.7211,-3.7287,0.0,0.0,0.0,0.0,0.0,0.0,0.0,0.0,0.0,0.0,0.0,0.0,0.0,0.0,0.0,0.0,0.0,0.0,0.0,0.0,0.0,0.0,0.0,0.0,0.0,0.0,0.0,0.0,0.0,0.0,0.0,0.0,0.0,-4.0209,-4.0315,-3.9956,-3.903,-3.7565,-3.6077,-3.4661,-3.3578,-3.3595,-3.5116,-3.4584,-3.5575,-3.8742,-3.6282,-3.6272,-3.9601,-3.6593,-3.7233,-4.2113,-3.9462,-3.9682,-4.2848,-4.3493,-4.3793,-4.3855,-4.5525,-4.6301,-4.6301,-4.6301,-4.6301,-4.6301,-4.6301,-4.6301,-4.6301,-4.6301,-4.6301,-4.6301,-4.6301,-4.6301,-4.6301,0.0,0.0,0.0,0.0,0.0,0.0,0.0,0.0,0.0,0.0,-3.9373,-3.9373,-3.9373,-3.9373,-3.9373,-3.9373,-3.9373,-3.9261,-3.8964,0.0,0.0,0.0,0.0,0.0,0.0,0.0,0.0,0.0,0.0,0.0,0.0,0.0,-3.6405,-3.643,-3.6832,-3.7036,-3.7211,-3.7613,-3.7688,-3.7563,-3.7713,-3.804,-3.8466,0.0,0.0,0.0,0.0,0.0,0.0,0.0,0.0,0.0,0.0,0.0,0.0,0.0,0.0,0.0,0.0,0.0,0.0,0.0,0.0,0.0,0.0,0.0,0.0,0.0,0.0,0.0,0.0,0.0,0.0,0.0,0.0,-3.8508,-3.7841,-3.6805,-3.7065,-3.9433,-3.7282,-3.6005,-3.7066,-3.7248,-3.7044,-3.6327,-3.6373,-3.7382,-3.954,-3.7677,-3.7721,-4.0217,-3.9399,-3.9129,-3.9626,-4.1271,-4.1971,-4.1679,-4.4302,-4.5586,-4.5586,-4.6059,-4.6301,-4.6301,-4.6301,-4.6301,-4.6301,-4.6301,-4.6301,-4.6301,-4.6301,-4.6301,-4.6301,-4.6301,-4.6301,-4.6301,0.0,0.0,0.0,0.0,0.0,0.0,0.0,0.0,0.0,0.0,-3.9373,-3.9373,-3.9373,-3.9373,-3.9373,-3.9373,-3.9373,-3.9423,-3.9455,0.0,0.0,0.0,0.0,0.0,0.0,0.0,0.0,0.0,0.0,0.0,0.0,0.0,0.0,-3.643,-3.6935,-3.7312,-3.7563,-3.814,-3.8492,-3.8718,-3.8718,-3.8768,-3.8944,-3.912,-3.9421,-3.9647,-3.932,-3.922,-3.917,-3.8818,0.0,0.0,0.0,0.0,0.0,0.0,0.0,0.0,0.0,0.0,0.0,0.0,0.0,0.0,0.0,0.0,0.0,0.0,0.0,0.0,0.0,0.0,0.0,0.0,-3.8714,-3.8273,-3.8309,-3.7402,-3.7354,-3.9036,-3.839,-3.7723,-3.7488,-3.8598,-3.8948,-3.8043,-3.8352,-3.9368,-4.1046,-3.9756,-3.9809,-4.1804,-4.0415,-4.0378,-4.1797,-4.167,-4.2138,-4.3357,-4.462,-4.5586,-4.6301,-4.6301,-4.6301,-4.6301,-4.6301,-4.6301,-4.6301,-4.6301,-4.6301,-4.6301,0.0,0.0,0.0,0.0,-4.6301,-4.6301,0.0,0.0,0.0,0.0,0.0,0.0,0.0,0.0,0.0,0.0,0.0,-3.9373,-3.9373,-3.9373,-3.9373,-3.9373,-3.9373,-3.9738,0.0,0.0,0.0,0.0,0.0,0.0,0.0,0.0,0.0,0.0,0.0,0.0,0.0,0.0,0.0,0.0,-3.7036,-3.7588,-3.814,-3.8718,-3.9245,-3.9697,-3.9697,-3.9396,-3.9019,-3.9496,-3.9697,-3.9697,-3.9697,-3.9697,-3.9697,-3.9697,0.0,0.0,0.0,0.0,0.0,0.0,0.0,0.0,0.0,0.0,0.0,0.0,0.0,0.0,0.0,0.0,0.0,0.0,0.0,0.0,0.0,0.0,0.0,0.0,-3.8608,-3.815,-3.9919,-4.0101,-3.9753,-3.8921,-4.041,-4.026,-3.7166,-3.9108,-4.0325,-3.9854,-4.049,-4.1598,-4.3225,-4.2137,0.0,0.0,0.0,-4.1309,-4.5671,-4.1373,-4.1478,-4.5974,-4.462,-4.4829,-4.6301,-4.6301,-4.6301,-4.6301,-4.6301,-4.6301,-4.6301,-4.6301,-4.6301,-4.6301,-4.6301,-4.6301,-4.6301,-4.6301,-4.6301,-4.6301,0.0,0.0,0.0,0.0,0.0,0.0,0.0,0.0,0.0,-3.9373,-3.9373,-3.9373,-3.9373,-3.9373,-3.9373,-3.9373,-3.9373,-3.9918,0.0,0.0,0.0,0.0,0.0,0.0,0.0,0.0,0.0,0.0,0.0,0.0,0.0,0.0,0.0,0.0,-3.7613,-3.8165,-3.8743,-3.9295,-3.9597,-3.9697,-3.9697,-3.9622,-3.9546,-3.9647,-3.9697,-3.9697,-3.9697,-3.9697,-3.9697,-3.9697,-3.9697,-3.9697,-3.9697,0.0,0.0,0.0,0.0,0.0,0.0,0.0,0.0,0.0,0.0,0.0,0.0,0.0,0.0,0.0,0.0,0.0,0.0,0.0,0.0,-4.0124,-3.9495,-3.8354,-3.7425,-3.9885,-4.2027,-4.2667,-4.2383,-4.1359,-3.9259,-4.2313,-4.3313,-4.0535,-4.2015,-4.3836,-4.5558,-4.4117,-4.3333,-4.3669,-4.3083,-4.2517,-4.2201,-4.2517,-4.3208,-4.4251,-4.5281,0.0,-4.6301,-4.6301,-4.6301,-4.6301,-4.6301,-4.6301,-4.6301,-4.6301,-4.6301,-4.6301,-4.6301,-4.6301,-4.6301,-4.6301,-4.6301,-4.6301,0.0,0.0,0.0,0.0,0.0,0.0,0.0,0.0,0.0,0.0,-3.9373,-3.9373,-3.9373,-3.9373,-3.9373,-3.9373,-4.0008,0.0,0.0,0.0,0.0,0.0,0.0,0.0,0.0,0.0,0.0,0.0,0.0,0.0,0.0,0.0,0.0,0.0,0.0,-3.8165,-3.8492,-3.9346,-3.9697,-3.9697,-3.9697,-3.9697,-3.9697,-3.9697,-3.9697,-3.9697,-3.9697,-3.9697,-3.9697,-3.9697,-3.9697,-3.9697,-3.9697,-3.9697,-3.9697,0.0,0.0,0.0,0.0,0.0,0.0,0.0,0.0,0.0,0.0,0.0,0.0,0.0,0.0,-4.0955,0.0,0.0,-3.943,-4.0703,-3.9804,-3.9052,-3.9299,-4.0509,-4.1504,-4.1709,-4.2998,-4.3192,-4.1506,-4.4123,-4.4803,-4.2249,-4.3897,-4.5403,-4.624,-4.5464,-4.5013,-4.5013,-4.4165,-4.3731,-4.3731,-4.3731,-4.4127,-4.5013,-4.5853,-4.6451,-4.6728,-4.6728,-4.6878,-4.7104,-4.7104,-4.7104,-4.7104,-4.7104,-4.7104,-4.7104,-4.7104,-4.6778,-4.6301,-4.6301,-4.6301,-4.6301,0.0,0.0,0.0,0.0,0.0,0.0,0.0,0.0,0.0,0.0,0.0,-3.9373,-3.9373,-3.9373,-3.9433,0.0,0.0,0.0,0.0,0.0,0.0,0.0,0.0,0.0,0.0,0.0,0.0,0.0,0.0,0.0,0.0,0.0,0.0,0.0,0.0,0.0,-3.8241,-3.927,-3.9697,-3.9697,-3.9697,-3.9697,-3.9697,-3.9697,-3.9697,-3.9697,-3.9697,-3.9697,-3.9697,-3.9697,-3.9697,-3.9697,-3.9697,-3.9697,-3.9697,-3.9697,-3.9697,0.0,0.0,0.0,0.0,0.0,0.0,0.0,0.0,0.0,-4.1781,-4.2288,-4.2143,-4.2127,-4.2981,-4.1335,-4.0259,-4.1601,-4.0458,-4.0,-4.1956,-4.19,-4.1319,-4.0598,-4.324,-4.4618,-4.315,-4.5011,-4.5586,-4.3855,-4.5342,-4.6301,-4.6301,-4.6301,-4.612,-4.5793,-4.4767,-4.4706,-4.5793,-4.4865,-4.5036,-4.6476,-4.6577,-4.6853,-4.728,-4.728,-4.7506,-4.7908,-4.7908,-4.7908,-4.7908,-4.7908,-4.7908,-4.7908,-4.7908,-4.738,-4.6627,-4.6627,-4.6627,-4.6627,0.0,0.0,0.0,0.0,0.0,0.0,0.0,0.0,0.0,0.0,0.0,0.0,0.0,0.0,0.0,0.0,0.0,0.0,0.0,0.0,0.0,0.0,0.0,0.0,0.0,0.0,0.0,0.0,0.0,0.0,0.0,0.0,0.0,0.0,0.0,0.0,-3.8818,-3.9421,-3.9697,-3.9697,-3.9697,-3.9697,-3.9697,-3.9697,-3.9697,-3.9697,-3.9697,-3.9697,-3.9697,-3.9697,-3.9697,-3.9697,-3.9697,-3.9697,-3.9697,-3.9697,0.0,-3.9697,-3.9697,-4.0049,0.0,-4.105,-4.1605,-4.2037,0.0,0.0,-4.2811,-4.2861,-4.1744,-4.1378,-4.3362,-4.0015,-3.8564,-4.3462,-4.2023,-4.091,-4.2607,-4.4451,-4.5037,-4.344,-4.3674,-4.3822,-4.3636,-4.5232,-4.5586,-4.3855,-4.5342,-4.6301,-4.6301,-4.6301,-4.5586,-4.4041,-4.5281,-4.5342,-4.3979,-4.581,-4.6845,-4.7054,-4.7506,-4.7757,-4.7832,-4.7832,-4.7857,-4.7908,-4.7908,-4.7908,-4.7908,-4.7908,-4.7908,-4.7908,-4.7908,-4.7832,-4.7732,-4.7732,-4.7732,-4.7732,0.0,0.0,0.0,0.0,0.0,0.0,0.0,0.0,0.0,0.0,0.0,0.0,0.0,0.0,0.0,0.0,0.0,0.0,0.0,0.0,0.0,0.0,0.0,0.0,0.0,0.0,0.0,0.0,0.0,0.0,0.0,0.0,0.0,0.0,0.0,0.0,0.0,-3.932,-3.9697,-3.9697,-3.9697,-3.9697,-3.9697,-3.9697,-3.9697,-3.9697,-3.9697,-3.9697,0.0,0.0,-3.9697,-3.9697,-3.9697,-3.9697,-3.9697,-3.9697,-3.9697,0.0,-4.0099,0.0,0.0,0.0,-4.2037,-4.2288,-4.2615,-4.2811,-4.2986,-4.2986,-4.268,-4.2749,-4.3626,-4.2345,-4.1756,0.0,-4.3494,-4.337,-4.335,-4.4168,-4.489,-4.5159,-4.4312,-4.4103,-4.5074,-4.5853,-4.5999,-4.5281,-4.5853,-4.6301,-4.6301,-4.6301,-4.5999,-4.522,-4.5914,-4.6088,-4.5687,-4.6611,-4.728,-4.7581,-4.7807,-4.8083,-4.841,-4.841,-4.8586,-4.8887,-4.8887,-4.8887,-4.8887,-4.8887,-4.8887,-4.8887,-4.8887,-4.8887,-4.8812,-4.8159,-4.7908,-4.7908,0.0,0.0,0.0,0.0,0.0,0.0,0.0,0.0,0.0,0.0,0.0,0.0,0.0,0.0,0.0,0.0,0.0,0.0,0.0,0.0,0.0,0.0,0.0,0.0,0.0,0.0,0.0,0.0,0.0,0.0,0.0,0.0,0.0,0.0,0.0,0.0,0.0,-3.922,-3.9697,-3.9697,-3.9697,-3.9697,-3.9697,-3.9697,-3.9697,-3.9697,-3.9697,-3.9697,0.0,0.0,-3.9697,-3.9697,-3.9697,-3.9697,-3.9697,-3.9697,-3.9798,-4.0074,-4.0777,0.0,0.0,-4.2233,-4.2439,-4.2539,-4.2886,-4.2986,-4.3011,-4.3162,-4.3514,-4.389,-4.4217,-4.422,-4.4052,-4.3905,-4.4511,-4.4899,-4.4449,-4.4436,-4.489,-4.618,-4.522,-4.489,-4.618,-4.6301,-4.6301,-4.6301,-4.6301,-4.6301,-4.6301,-4.6301,-4.6376,-4.6527,-4.6552,-4.6803,-4.733,-4.7506,-4.7782,-4.8159,-4.8309,-4.8586,-4.9012,-4.9012,-4.9213,-4.959,-4.959,-4.959,-4.959,-4.959,-4.959,-4.959,-4.959,-4.959,-4.949,-4.8686,-4.8385,-4.8385,0.0,0.0,0.0,0.0,0.0,0.0,0.0,0.0,0.0,0.0,0.0,0.0,0.0,0.0,0.0,0.0,0.0,0.0,0.0,0.0,0.0,0.0,0.0,0.0,0.0,0.0,0.0,0.0,0.0,0.0,0.0,0.0,0.0,0.0,0.0,0.0,0.0,0.0,-3.9697,-3.9697,-3.9697,-3.9697,-3.9697,-3.9697,-3.9697,-3.9697,-3.9697,0.0,0.0,0.0,-3.9697,-3.9697,-3.9697,-3.9697,0.0,-3.9697,-4.0074,0.0,0.0,0.0,-4.2313,-4.2811,-4.2961,-4.2961,-4.2986,-4.2986,-4.3137,-4.3664,-4.379,-4.4141,-4.5221,-4.4061,-4.3662,-4.5874,-4.4804,-4.435,-4.5974,-4.624,-4.624,-4.6301,-4.624,-4.624,0.0,-4.6301,-4.6301,-4.6301,-4.6301,-4.6301,-4.6301,-4.6301,-4.6552,-4.7043,-4.7043,-4.7355,-4.7883,-4.8435,-4.8736,-4.8761,-4.9289,-4.9565,-4.9565,-4.9565,-4.9565,-4.959,-4.959,-4.959,-4.959,-4.959,-4.959,-4.959,-4.959,-4.959,-4.959,-4.9565,-4.954,-4.954,0.0,0.0,0.0,0.0,0.0,0.0,0.0,0.0,0.0,0.0,0.0,0.0,0.0,0.0,0.0,0.0,0.0,0.0,0.0,0.0,0.0,0.0,0.0,0.0,0.0,0.0,0.0,0.0,0.0,0.0,0.0,0.0,0.0,0.0,0.0,0.0,0.0,0.0,0.0,-3.9697,-3.9697,-3.9697,-3.9697,-3.9697,-3.9697,-3.9697,0.0,0.0,0.0,0.0,0.0,0.0,-3.9697,0.0,0.0,-4.0124,-4.0877,-4.1735,0.0,0.0,-4.2735,-4.2936,-4.2986,-4.2986,-4.2986,-4.3263,-4.3589,-4.3765,-4.4392,-4.5045,-4.5422,-4.5331,-4.5388,-4.6155,-4.5793,-4.5671,-4.624,-4.6301,-4.6301,-4.6301,-4.6301,0.0,0.0,0.0,0.0,-4.6301,-4.6301,-4.6301,-4.6301,-4.6652,-4.6892,-4.7068,-4.7481,-4.7908,-4.8485,-4.8686,-4.8962,-4.9314,-4.9515,-4.959,-4.959,-4.959,-4.959,-4.959,-4.959,-4.959,-4.959,-4.959,-4.959,-4.959,-4.959,-4.959,-4.959,-4.959,-4.959,-4.959,0.0,0.0,0.0,0.0,0.0,0.0,0.0,0.0,0.0,0.0,0.0,0.0,0.0,0.0,0.0,0.0,0.0,0.0,0.0,0.0,0.0,0.0,0.0,0.0,0.0,0.0,0.0,0.0,0.0,0.0,0.0,0.0,0.0,0.0,0.0,0.0,0.0,0.0,0.0,0.0,-3.9697,-3.9697,-3.9697,-3.9697,-3.9697,0.0,0.0,0.0,0.0,0.0,0.0,0.0,0.0,-3.9823,-4.0124,-4.0877,-4.1605,-4.2263,0.0,-4.2766,-4.2986,-4.2986,-4.2986,-4.3037,-4.3212,-4.3539,-4.3915,-4.4317,-4.497,-4.5547,-4.5748,-4.6075,-4.6301,-4.6301,-4.6301,-4.6301,-4.6301,-4.6301,-4.6301,-4.6301,-4.6301,-4.6301,0.0,0.0,0.0,-4.6301,-4.6301,-4.6401,-4.6602,-4.6892,-4.7305,-4.7707,-4.8033,-4.8485,-4.9063,-4.9063,-4.9238,-4.959,-4.959,-4.959,-4.959,-4.959,-4.959,-4.959,-4.959,-4.959,-4.959,-4.959,-4.959,-4.959,-4.959,-4.959,-4.959,-4.959,-4.959,-4.959,0.0,0.0,0.0,0.0,0.0,0.0,0.0,0.0,0.0,0.0,0.0,0.0,0.0,0.0,0.0,0.0,0.0,0.0,0.0,0.0,0.0,0.0,0.0,0.0,0.0,0.0,0.0,0.0,0.0,0.0,0.0,0.0,0.0,0.0,0.0,0.0,0.0,0.0,0.0,0.0,0.0,0.0,-3.9697,-3.9697,0.0,0.0,0.0,0.0,0.0,0.0,0.0,0.0,0.0,0.0,-4.0777,-4.1886,-4.2238,-4.2363,-4.2836,-4.2986,-4.2986,-4.2986,-4.3011,-4.3162,-4.3689,-4.384,-4.4192,-4.5271,-4.5522,-4.5698,0.0,0.0,-4.6301,-4.6301,-4.6301,-4.6301,-4.6301,-4.6301,-4.6301,0.0,0.0,0.0,0.0,0.0,0.0,-4.6301,0.0,-4.6577,-4.7043,-4.7179,-4.7682,-4.8736,-4.8786,-4.9063,-4.959,-4.959,-4.959,-4.959,-4.959,-4.959,-4.959,-4.959,-4.959,-4.959,-4.959,-4.959,-4.959,-4.959,-4.959,-4.959,-4.959,-4.959,-4.959,-4.959,-4.959,-4.959,0.0,0.0,0.0,0.0,0.0,0.0,0.0,0.0,0.0,0.0,0.0,0.0,0.0,0.0,0.0,0.0,0.0,0.0,0.0,0.0,0.0,0.0,0.0,0.0,0.0,0.0,0.0,0.0,0.0,0.0,0.0,0.0,0.0,0.0,0.0,0.0,0.0,0.0,0.0,0.0,0.0,0.0,-3.9697,0.0,0.0,0.0,0.0,0.0,0.0,0.0,0.0,0.0,0.0,0.0,-4.1254,-4.2011,0.0,-4.2866,-4.2936,-4.2986,-4.2986,-4.2986,-4.3288,-4.3639,-4.3765,-4.4443,-4.5146,-4.5422,-4.5824,-4.615,0.0,0.0,0.0,-4.6301,-4.6301,0.0,-4.6301,-4.6301,0.0,-4.6301,0.0,-4.6301,-4.6301,-4.6301,0.0,0.0,-4.6702,-4.6979,-4.7068,-4.7908,-4.8485,-4.8761,-4.9163,-4.9464,-4.959,-4.959,-4.959,-4.959,-4.959,-4.959,-4.959,-4.959,-4.959,-4.959,-4.959,-4.959,-4.959,-4.959,-4.959,-4.959,-4.959,-4.959,-4.959,-4.959,-4.959,-4.959,0.0,0.0,0.0,0.0,0.0,0.0,0.0,0.0,0.0,0.0,0.0,0.0,0.0,0.0,0.0,0.0,0.0,0.0,0.0,0.0,0.0,0.0,0.0,0.0,0.0,0.0,0.0,0.0,0.0,0.0,0.0,0.0,0.0,0.0,0.0,0.0,0.0,0.0,0.0,0.0,0.0,0.0,0.0,0.0,0.0,0.0,0.0,0.0,0.0,0.0,0.0,-4.0149,-4.0701,-4.1254,-4.1806,-4.2414,0.0,-4.2986,-4.2986,-4.2986,-4.3037,-4.3288,-4.3564,-4.394,-4.4418,-4.502,-4.5547,-4.5799,-4.61,0.0,0.0,0.0,0.0,0.0,0.0,0.0,-4.6301,-4.6301,-4.6301,0.0,-4.6301,0.0,-4.6301,-4.6301,-4.6401,0.0,-4.6954,-4.7168,-4.7456,-4.8309,-4.8887,-4.9113,-4.9439,-4.959,-4.959,-4.959,-4.959,-4.959,-4.959,-4.959,-4.959,-4.959,-4.959,-4.959,-4.959,-4.959,-4.959,-4.959,-4.959,-4.959,-4.959,-4.959,-4.959,-4.959,-4.959,-4.959,0.0,0.0,0.0,0.0,0.0,0.0,0.0,0.0,0.0,0.0,0.0,0.0,0.0,0.0,0.0,0.0,0.0,0.0,0.0,0.0,0.0,0.0,0.0,0.0,0.0,0.0,0.0,0.0,0.0,0.0,0.0,0.0,0.0,0.0,0.0,0.0,0.0,0.0,0.0,0.0,0.0,0.0,0.0,0.0,0.0,0.0,0.0,0.0,0.0,0.0,-4.0074,-4.0601,-4.1125,-4.1706,-4.2313,-4.2811,-4.2986,-4.2986,-4.2986,-4.2986,-4.3112,-4.3664,-4.3865,-4.4192,-4.5246,-4.5547,-4.5723,-4.62,0.0,-4.6301,-4.6301,0.0,-4.6301,-4.6301,0.0,-4.6301,-4.6301,-4.6301,-4.6301,-4.6301,-4.6301,-4.6301,-4.6301,-4.6376,-4.6627,-4.7043,-4.728,-4.7556,-4.7983,-4.856,-4.9113,-4.959,-4.959,-4.959,-4.959,-4.959,-4.959,-4.959,-4.959,-4.959,-4.959,-4.959,-4.959,-4.959,-4.959,-4.959,-4.959,-4.959,-4.959,-4.959,-4.959,-4.959,-4.959,-4.959,-4.959,-4.959,0.0,0.0,0.0,0.0,0.0,0.0,0.0,0.0,0.0,0.0,-3.9373,-3.9373,0.0,0.0,0.0,0.0,0.0,0.0,0.0,0.0,0.0,0.0,0.0,0.0,0.0,0.0,0.0,0.0,0.0,0.0,0.0,0.0,0.0,0.0,0.0,0.0,0.0,0.0,0.0,0.0,0.0,0.0,0.0,0.0,0.0,0.0,0.0,0.0,0.0,0.0,-4.0074,-4.0601,-4.1125,-4.1706,-4.2313,-4.2811,-4.2986,-4.2986,-4.2986,-4.2986,-4.3112,-4.3664,-4.4141,-4.4644,-4.5321,-4.5849,0.0,0.0,0.0,-4.6301,-4.6301,-4.6301,0.0,-4.6301,0.0,0.0,0.0,0.0,-4.6301,0.0,0.0,0.0,0.0,0.0,0.0,0.0,-4.7983,-4.8535,-4.8611,-4.9138,-4.949,-4.959,-4.959,-4.959,-4.959,-4.959,-4.959,-4.959,-4.959,-4.959,-4.959,-4.959,-4.959,-4.959,-4.959,-4.959,-4.959,-4.959,-4.959,-4.959,-4.959,-4.959,-4.959,-4.959,-4.959,-4.959,0.0,0.0,0.0,0.0,0.0,0.0,0.0,-3.9373,-3.9373,-3.9373,-3.9373,-3.9373,-3.9373,-4.0277,-4.0995,0.0,0.0,0.0,0.0,0.0,0.0,0.0,0.0,0.0,0.0,0.0,0.0,0.0,0.0,0.0,0.0,0.0,0.0,0.0,0.0,0.0,0.0,0.0,0.0,0.0,0.0,0.0,0.0,0.0,0.0,0.0,0.0,0.0,0.0,0.0,-4.0249,-4.0949,-4.12,-4.1907,-4.269,-4.2911,-4.2986,-4.2986,-4.2986,-4.3187,-4.3539,-4.4091,-4.4644,-4.5221,-4.5799,0.0,0.0,0.0,0.0,-4.6301,-4.6301,0.0,0.0,0.0,0.0,0.0,0.0,0.0,0.0,0.0,0.0,0.0,0.0,0.0,0.0,0.0,-4.8309,-4.8761,-4.8761,-4.9289,-4.959,-4.959,-4.959,-4.959,-4.959,-4.959,-4.959,-4.959,-4.959,-4.959,-4.959,-4.959,-4.959,-4.959,-4.959,-4.959,-4.959,-4.959,-4.959,-4.959,-4.959,-4.959,-4.959,-4.959,-4.959,-4.959,0.0,0.0,0.0,0.0,0.0,0.0,0.0,-3.9373,-3.9373,-3.9373,-3.9373,-3.9373,-3.9373,-4.0008,-4.0666,0.0,0.0,0.0,0.0,0.0,0.0,0.0,0.0,0.0,0.0,0.0,0.0,-4.329,0.0,0.0,0.0,0.0,0.0,0.0,0.0,0.0,0.0,0.0,0.0,0.0,0.0,0.0,0.0,0.0,0.0,0.0,0.0,0.0,0.0,0.0,-4.0526,-4.13,-4.148,-4.2183,-4.2986,-4.2986,-4.2986,-4.3011,-4.3112,-4.3463,-4.3966,-4.4644,-4.5146,-4.5623,-4.6175,-4.6301,0.0,0.0,0.0,-4.6301,0.0,0.0,0.0,0.0,0.0,0.0,0.0,0.0,0.0,0.0,0.0,0.0,0.0,0.0,0.0,0.0,-4.856,-4.8937,-4.8937,-4.9364,-4.959,-4.959,-4.959,-4.959,-4.959,-4.959,-4.959,-4.959,-4.959,-4.959,-4.959,-4.959,-4.959,-4.959,-4.959,-4.959,-4.959,-4.959,-4.959,-4.959,-4.959,-4.959,-4.959,-4.959,-4.959,-4.959,0.0,0.0,0.0,0.0,0.0,0.0,0.0,-3.9373,-3.9373,-3.9373,-3.9373,-3.9373,-3.9373,-4.0008,-4.0666,0.0,0.0,0.0,0.0,0.0,0.0,0.0,0.0,0.0,0.0,0.0,0.0,-4.329,-4.2234,0.0,0.0,0.0,0.0,0.0,0.0,-3.6405,0.0,0.0,0.0,0.0,0.0,0.0,0.0,0.0,0.0,0.0,0.0,0.0,0.0,0.0,0.0,-4.1376,-4.1907,-4.2484,-4.2986,-4.2986,0.0,0.0,-4.3589,-4.3765,-4.4066,-4.5146,-4.5447,-4.5623,-4.6175,0.0,0.0,0.0,-4.6301,-4.6301,0.0,0.0,0.0,0.0,0.0,0.0,0.0,0.0,0.0,0.0,0.0,0.0,0.0,0.0,0.0,0.0,-4.8912,-4.9515,-4.9515,-4.9565,-4.959,-4.959,-4.959,-4.959,-4.959,-4.959,-4.959,-4.959,-4.959,-4.959,-4.959,-4.959,-4.959,-4.959,-4.959,-4.959,-4.959,-4.959,-4.959,-4.959,-4.959,-4.959,-4.959,-4.959,-4.959,-4.959,0.0,0.0,0.0,0.0,0.0,0.0,-3.9373,-3.9373,-3.9373,-3.9373,-3.9373,-3.9373,-3.9373,-4.0008,-4.0666,-4.1324,0.0,0.0,0.0,0.0,0.0,0.0,0.0,0.0,0.0,0.0,-4.329,-4.329,-4.2152,0.0,0.0,0.0,0.0,0.0,0.0,-3.6405,-3.6405,0.0,0.0,0.0,0.0,0.0,0.0,0.0,0.0,0.0,0.0,0.0,0.0,0.0,0.0,0.0,-4.2037,-4.259,0.0,0.0,-4.2986,-4.3112,-4.3639,-4.4041,-4.4493,-4.5296,-4.5723,-4.605,-4.625,0.0,0.0,-4.6301,-4.6301,-4.6301,-4.6301,0.0,0.0,0.0,0.0,0.0,0.0,0.0,0.0,0.0,0.0,0.0,0.0,0.0,0.0,0.0,-4.9339,-4.959,-4.959,-4.959,-4.959,-4.959,-4.959,-4.959,-4.959,-4.959,-4.959,-4.959,-4.959,-4.959,-4.959,-4.959,-4.959,-4.959,-4.959,-4.959,-4.959,-4.959,-4.959,-4.959,-4.959,-4.959,-4.959,-4.959,-4.959,-4.959,0.0,0.0,0.0,0.0,0.0,-3.9373,-3.9373,-3.9373,-3.9373,-3.9373,-3.9373,-3.9499,-3.9679,-4.0127,-4.0756,-4.1632,-4.1722,0.0,0.0,0.0,0.0,0.0,0.0,0.0,0.0,0.0,-4.329,-4.329,-4.1823,-4.0703,0.0,0.0,-3.715,-3.6405,0.0,0.0,0.0,0.0,0.0,0.0,0.0,0.0,0.0,0.0,0.0,0.0,0.0,0.0,0.0,0.0,0.0,0.0,0.0,0.0,0.0,0.0,-4.2986,-4.3137,-4.384,-4.4317,-4.4794,-4.5547,-4.6024,-4.6301,0.0,0.0,0.0,-4.6301,-4.6301,-4.6301,-4.6301,0.0,0.0,0.0,0.0,0.0,0.0,0.0,0.0,0.0,0.0,0.0,0.0,0.0,0.0,-4.9515,-4.959,-4.959,-4.959,-4.959,-4.959,-4.959,-4.959,-4.959,-4.959,-4.959,-4.959,-4.959,-4.959,-4.959,-4.959,-4.959,-4.959,-4.959,-4.959,-4.959,-4.959,-4.959,-4.959,-4.959,-4.959,-4.959,-4.959,-4.959,-4.959,-4.959,0.0,0.0,0.0,0.0,0.0,0.0,-3.9373,-3.9373,-3.9373,-3.9373,-3.9373,-3.9679,-4.0307,-4.0397,-4.0935,-4.2261,-4.2381,0.0,0.0,0.0,0.0,0.0,0.0,0.0,0.0,0.0,-4.329,-4.329,-4.1029,-3.9913,-3.9869,-3.752,-3.6405,-3.6405,0.0,0.0,0.0,0.0,0.0,0.0,0.0,0.0,0.0,0.0,0.0,0.0,0.0,0.0,0.0,0.0,0.0,0.0,0.0,0.0,0.0,0.0,-4.2986,-4.3212,-4.4317,-4.4618,-4.4895,-4.6024,-4.6301,-4.6301,0.0,0.0,0.0,0.0,-4.6301,-4.6301,0.0,0.0,0.0,0.0,0.0,0.0,0.0,0.0,0.0,0.0,0.0,0.0,0.0,0.0,0.0,-4.9565,-4.959,0.0,-4.959,-4.959,-4.959,-4.959,-4.959,-4.959,-4.959,-4.959,-4.959,-4.959,-4.959,-4.959,-4.959,-4.959,-4.959,-4.959,-4.959,-4.959,-4.959,-4.959,-4.959,-4.959,-4.959,-4.959,-4.959,-4.959,-4.959,-4.959,0.0,0.0,0.0,0.0,0.0,0.0,0.0,-3.9373,-3.9373,-3.9373,-3.9798,-4.0157,-4.0367,-4.1205,-4.1961,-4.2351,-4.241,0.0,0.0,0.0,0.0,0.0,0.0,0.0,0.0,0.0,-4.29,-4.2152,-4.0618,-3.9492,-3.8649,-3.7103,-3.6405,-3.6405,-3.6405,-3.6405,0.0,0.0,0.0,0.0,0.0,0.0,0.0,0.0,0.0,0.0,0.0,0.0,0.0,0.0,0.0,0.0,0.0,0.0,0.0,0.0,0.0,0.0,-4.4418,-4.492,-4.5397,-4.6125,-4.6301,-4.6301,-4.6301,0.0,0.0,0.0,0.0,0.0,0.0,0.0,0.0,0.0,0.0,0.0,0.0,0.0,0.0,0.0,0.0,0.0,0.0,0.0,0.0,-4.9565,-4.959,-4.959,-4.959,-4.959,-4.959,-4.959,-4.959,-4.959,-4.959,-4.959,-4.959,-4.959,-4.959,-4.959,-4.959,-4.959,-4.959,-4.959,-4.959,-4.959,-4.959,-4.959,-4.959,-4.959,-4.959,-4.959,-4.959,-4.959,-4.959,-4.959,0.0,0.0,0.0,0.0,0.0,0.0,0.0,-3.9373,-3.9499,-3.9768,-4.0157,-4.0576,-4.1085,-4.1901,-4.25,-4.2701,-4.2731,0.0,0.0,0.0,0.0,0.0,0.0,0.0,0.0,-4.329,-4.2739,-4.1587,-4.0447,-3.9271,-3.8062,-3.6943,-3.6405,-3.6405,-3.6405,-3.6531,0.0,0.0,0.0,0.0,0.0,0.0,-3.9697,0.0,0.0,0.0,0.0,0.0,0.0,0.0,0.0,0.0,0.0,0.0,0.0,0.0,-4.394,0.0,0.0,-4.5221,-4.5623,-4.6175,-4.6301,0.0,0.0,0.0,0.0,0.0,0.0,0.0,0.0,0.0,0.0,0.0,0.0,0.0,0.0,0.0,0.0,0.0,0.0,0.0,0.0,0.0,-4.9213,-4.9565,-4.959,-4.959,-4.959,-4.959,-4.959,-4.959,-4.959,-4.959,-4.959,-4.959,-4.959,-4.959,-4.959,-4.959,-4.959,-4.959,-4.959,-4.959,-4.959,-4.959,0.0,-4.959,-4.959,-4.959,-4.959,-4.959,-4.959,-4.959,-4.959,-4.959,0.0,0.0,0.0,0.0,0.0,0.0,0.0,-3.9469,-3.9709,-4.0307,-4.0487,-4.0995,-4.2261,-4.244,-4.2671,-4.323,0.0,0.0,0.0,0.0,0.0,0.0,0.0,0.0,-4.329,-4.329,-4.267,-4.1462,-4.049,-3.9316,-3.7971,-3.6964,-3.6499,-3.6405,-3.6455,-3.6807,0.0,0.0,0.0,0.0,0.0,0.0,0.0,0.0,0.0,0.0,0.0,0.0,0.0,0.0,0.0,0.0,0.0,0.0,0.0,0.0,0.0,0.0,0.0,0.0,0.0,0.0,0.0,0.0,0.0,0.0,0.0,0.0,0.0,0.0,0.0,0.0,0.0,0.0,0.0,0.0,0.0,0.0,0.0,0.0,0.0,0.0,0.0,0.0,-4.959,-4.959,-4.959,-4.959,-4.959,-4.959,-4.959,-4.959,-4.959,-4.959,-4.959,-4.959,-4.959,-4.959,-4.959,-4.959,-4.959,-4.959,-4.959,-4.959,-4.959,-4.959,-4.959,-4.959,-4.959,-4.959,-4.959,-4.959,-4.959,-4.959,-4.959,-4.959,0.0,0.0,0.0,0.0,0.0,0.0,0.0,0.0,0.0,0.0,-4.1265,-4.2051,-4.2381,-4.2791,-4.314,0.0,0.0,0.0,0.0,0.0,0.0,0.0,0.0,0.0,-4.329,-4.329,-4.2304,-4.0275,-4.0916,-3.9683,-3.6803,-3.7402,-3.7243,-3.643,-3.6857,-3.7586,0.0,0.0,0.0,0.0,0.0,0.0,0.0,0.0,0.0,0.0,-4.0174,-4.0752,0.0,0.0,0.0,0.0,0.0,0.0,0.0,0.0,-4.4518,-4.4844,-4.5849,0.0,-4.615,-4.6276,-4.6301,-4.6301,0.0,0.0,0.0,0.0,0.0,0.0,0.0,0.0,0.0,0.0,0.0,0.0,0.0,0.0,0.0,0.0,0.0,0.0,0.0,-4.8937,-4.959,-4.959,-4.959,-4.959,-4.959,-4.959,-4.959,-4.959,-4.959,-4.959,-4.959,-4.959,-4.959,-4.959,-4.959,-4.959,-4.959,-4.959,-4.959,-4.959,-4.959,-4.959,-4.959,-4.959,-4.959,-4.959,-4.959,-4.959,-4.959,-4.959,-4.959,-4.959,0.0,0.0,0.0,0.0,0.0,0.0,0.0,0.0,0.0,0.0,0.0,0.0,0.0,0.0,0.0,0.0,0.0,0.0,0.0,0.0,0.0,0.0,0.0,-4.329,-4.329,-4.329,-4.2426,-4.0703,-4.0788,-3.9552,-3.7196,-3.7289,-3.7117,-3.6832,-3.7637,-3.8291,0.0,0.0,0.0,0.0,-3.9697,0.0,0.0,0.0,0.0,0.0,-4.04,-4.1028,0.0,-4.2112,-4.259,-4.2986,0.0,0.0,0.0,0.0,-4.4819,-4.5196,-4.6075,-4.6301,-4.6301,-4.6301,-4.6301,-4.6301,0.0,0.0,0.0,0.0,0.0,0.0,0.0,0.0,0.0,0.0,0.0,0.0,0.0,0.0,0.0,0.0,0.0,0.0,0.0,-4.9088,-4.959,-4.959,-4.959,-4.959,-4.959,-4.959,-4.959,-4.959,-4.959,-4.959,-4.959,-4.959,-4.959,-4.959,-4.959,-4.959,-4.959,-4.959,-4.959,-4.959,-4.959,-4.959,-4.959,-4.959,-4.959,-4.959,-4.959,-4.959,-4.959,-4.959,-4.959,-4.959,0.0,0.0,0.0,0.0,0.0,0.0,0.0,0.0,0.0,0.0,0.0,0.0,0.0,0.0,0.0,0.0,0.0,0.0,0.0,0.0,0.0,0.0,0.0,-4.329,-4.329,-4.329,-4.2629,-4.1337,-4.0532,-3.936,-3.7815,-3.7113,-3.7001,-3.7487,-3.8492,-3.8969,0.0,0.0,0.0,-3.9697,-3.9697,0.0,0.0,0.0,0.0,0.0,0.0,0.0,0.0,-4.2313,-4.264,-4.2986,-4.2986,0.0,0.0,0.0,0.0,0.0,-4.615,-4.6301,-4.6301,-4.6301,-4.6301,-4.6301,0.0,0.0,0.0,0.0,0.0,0.0,0.0,0.0,0.0,0.0,0.0,0.0,0.0,0.0,0.0,0.0,0.0,0.0,-4.8711,-4.9264,-4.959,-4.959,-4.959,-4.959,-4.959,-4.959,-4.9565,-4.9464,-4.9464,-4.9414,-4.9339,-4.9414,-4.9414,-4.9339,-4.9339,-4.9339,-4.9339,-4.9339,-4.9339,-4.9339,-4.9339,-4.9339,-4.9339,-4.9339,-4.9339,-4.9339,-4.9339,-4.9339,-4.9339,-4.9339,-4.9339,-4.9339,0.0,0.0,0.0,0.0,0.0,0.0,0.0,0.0,0.0,0.0,0.0,0.0,0.0,0.0,0.0,0.0,0.0,0.0,0.0,0.0,0.0,-4.329,-4.329,-4.329,-4.329,-4.329,-4.2263,-4.0145,-4.0958,-3.9727,-3.6687,-3.794,-3.8553,-3.8668,-3.8844,-3.912,-3.9572,-3.9672,-3.9697,-3.9697,-3.9697,0.0,0.0,0.0,0.0,0.0,0.0,0.0,0.0,-4.2685,-4.2911,-4.2986,-4.2986,0.0,0.0,0.0,0.0,0.0,-4.615,-4.6301,-4.6301,-4.6301,-4.6301,-4.6301,0.0,0.0,0.0,0.0,0.0,0.0,0.0,0.0,0.0,0.0,0.0,0.0,0.0,0.0,0.0,0.0,0.0,-4.8134,-4.8711,-4.9264,-4.959,-4.959,-4.959,-4.959,-4.959,-4.959,-4.9389,-4.8912,-4.8887,-4.8661,-4.8184,-4.8661,-4.8661,-4.8159,-4.8159,-4.8159,-4.8159,-4.8159,-4.8159,-4.8159,-4.8159,-4.8159,-4.8159,-4.8159,-4.8159,-4.8159,-4.8159,-4.8159,-4.8159,-4.8159,-4.8159,-4.8159,0.0,0.0,0.0,0.0,0.0,0.0,0.0,0.0,0.0,0.0,0.0,0.0,0.0,0.0,0.0,0.0,0.0,0.0,0.0,0.0,0.0,-4.329,-4.329,-4.329,-4.329,-4.329,-4.278,-4.174,-4.1312,-4.0283,-3.872,-3.8821,-3.8887,-3.8894,-3.917,-3.9446,-3.9697,-3.9697,-3.9697,-3.9697,0.0,0.0,0.0,0.0,0.0,0.0,0.0,0.0,0.0,0.0,-4.2986,-4.3037,-4.3338,0.0,0.0,0.0,0.0,0.0,-4.625,-4.6301,-4.6301,-4.6301,-4.6301,-4.6301,0.0,0.0,0.0,0.0,0.0,0.0,0.0,0.0,0.0,0.0,0.0,0.0,0.0,0.0,0.0,0.0,0.0,-4.8259,-4.9138,-4.9439,-4.959,-4.959,-4.959,-4.959,-4.959,-4.9314,-4.9038,-4.8786,-4.846,-4.8033,-4.7481,-4.7757,-4.7883,-4.7908,-4.7908,-4.7908,-4.7908,-4.7908,-4.7908,-4.7908,-4.7908,-4.7908,-4.7908,-4.7908,-4.7908,-4.7908,-4.7908,-4.7908,-4.7908,-4.7908,-4.7908,-4.7908,0.0,0.0,0.0,0.0,0.0,0.0,0.0,0.0,0.0,0.0,0.0,0.0,0.0,0.0,0.0,0.0,0.0,0.0,0.0,0.0,-4.329,-4.329,-4.329,-4.329,-4.329,-4.329,-4.311,-4.2673,-4.1351,-4.0549,-4.0256,-3.9357,-3.8994,-3.9094,-3.9496,-3.9697,-3.9697,-3.9697,-3.9697,-3.9697,0.0,0.0,0.0,0.0,0.0,0.0,0.0,0.0,0.0,0.0,0.0,0.0,0.0,0.0,0.0,-4.5321,-4.5874,-4.6301,-4.6301,-4.6301,-4.6301,-4.6301,0.0,-4.6301,-4.6301,0.0,0.0,0.0,0.0,0.0,0.0,0.0,0.0,0.0,0.0,0.0,0.0,0.0,-4.6652,-4.7606,-4.7832,-4.8309,-4.9314,-4.9515,-4.959,-4.959,-4.9464,-4.9414,-4.9414,-4.8862,-4.851,-4.8385,-4.7958,-4.7481,-4.6954,-4.6892,-4.7154,-4.7531,-4.7531,-4.7531,-4.7531,-4.7531,-4.7531,-4.7531,-4.7531,-4.7531,-4.7531,-4.7531,-4.7531,-4.7531,-4.7531,-4.7531,-4.7531,-4.7531,-4.7531,-4.7531,0.0,0.0,0.0,0.0,0.0,0.0,0.0,0.0,0.0,0.0,0.0,0.0,0.0,0.0,0.0,0.0,0.0,0.0,0.0,0.0,-4.329,-4.329,-4.329,-4.329,-4.329,-4.329,-4.2485,-4.0907,-4.0786,-4.0113,-3.9044,-3.8919,-3.9145,-3.9647,-3.9672,-3.9697,-3.9697,-3.9697,-3.9697,-3.9747,-4.0249,0.0,0.0,0.0,0.0,0.0,0.0,0.0,0.0,0.0,0.0,0.0,0.0,0.0,-4.4744,-4.5321,-4.5874,-4.6301,-4.6301,-4.6301,-4.6301,-4.6301,0.0,0.0,-4.6301,0.0,0.0,0.0,0.0,0.0,0.0,0.0,0.0,0.0,0.0,0.0,0.0,0.0,-4.6527,-4.7129,-4.7606,-4.8159,-4.8761,-4.9289,-4.959,-4.959,-4.9113,-4.8837,-4.8837,-4.8284,-4.7757,-4.7255,-4.7143,-4.6928,-4.6376,-4.6376,-4.6376,-4.6426,-4.6426,-4.6426,-4.6426,-4.6426,-4.6426,-4.6426,-4.6426,-4.6426,-4.6426,-4.6426,-4.6426,-4.6426,-4.6426,-4.6426,-4.6426,-4.6426,-4.6426,-4.6426,0.0,0.0,0.0,0.0,0.0,0.0,0.0,0.0,0.0,0.0,0.0,0.0,0.0,0.0,0.0,0.0,0.0,0.0,0.0,-4.329,-4.3469,-4.3888,-4.3917,-4.4137,-4.4556,-4.4167,-4.382,-4.3571,-4.2385,-4.0983,-3.9371,-3.9371,-3.9496,-3.9697,-3.9697,-3.9697,-3.9697,-3.9697,-3.9898,-4.0224,-4.0425,-4.0727,0.0,0.0,0.0,0.0,0.0,0.0,0.0,0.0,-4.3212,-4.3589,0.0,0.0,-4.5271,-4.5824,-4.615,-4.6301,-4.6301,-4.6301,-4.6301,-4.6301,0.0,0.0,0.0,0.0,0.0,0.0,0.0,0.0,0.0,0.0,0.0,0.0,0.0,0.0,0.0,-4.6301,-4.6527,-4.7079,-4.7305,-4.7631,-4.8184,-4.8435,-4.8535,-4.8535,-4.836,-4.8234,-4.8234,-4.7732,-4.733,-4.7093,-4.6803,-4.6527,-4.6301,-4.6301,-4.6301,-4.6301,-4.6301,-4.6301,-4.6301,-4.6301,-4.6301,-4.6301,-4.6301,-4.6301,-4.6301,-4.6301,-4.6301,-4.6301,-4.6301,-4.6301,-4.6301,-4.6301,-4.6301,-4.6301,0.0,0.0,0.0,0.0,0.0,0.0,0.0,0.0,0.0,0.0,0.0,0.0,0.0,0.0,0.0,0.0,0.0,0.0,-4.3589,-4.3618,-4.3888,-4.4586,-4.4616,-4.4945,-4.5603,-4.478,-4.4343,-4.4412,-4.2546,-4.0975,-3.9697,-3.9697,-3.9697,-3.9697,-3.9697,-3.9697,-3.9697,-3.9873,-4.0174,-4.0551,-4.0902,-4.1254,0.0,0.0,0.0,0.0,0.0,0.0,0.0,0.0,0.0,0.0,0.0,0.0,0.0,0.0,-4.6301,-4.6301,-4.6301,-4.6301,-4.6301,0.0,0.0,0.0,0.0,0.0,0.0,0.0,0.0,0.0,0.0,0.0,0.0,0.0,0.0,0.0,-4.6301,-4.6301,-4.6451,-4.6828,-4.7029,-4.728,-4.7631,-4.7807,-4.7908,-4.7908,-4.7757,-4.7657,-4.7657,-4.7154,-4.6878,-4.6878,-4.6502,-4.6301,-4.6301,-4.6301,-4.6301,-4.6301,-4.6301,-4.6301,-4.6301,-4.6301,-4.6301,-4.6301,-4.6301,-4.6301,-4.6301,-4.6301,-4.6301,-4.6301,-4.6301,-4.6301,-4.6301,-4.6301,-4.6301,-4.6301,0.0,0.0,0.0,0.0,0.0,0.0,0.0,0.0,0.0,0.0,0.0,0.0,0.0,0.0,0.0,0.0,0.0,0.0,-4.4287,-4.4317,-4.4616,-4.5274,-4.5304,-4.5633,-4.6279,-4.5026,-4.3766,-4.248,-4.0609,-3.9697,-3.9697,-3.9697,-3.9697,-3.9697,-3.9697,-3.9697,-3.9747,-4.0275,-4.0526,-4.0626,-4.176,-4.2213,-4.2288,0.0,0.0,0.0,0.0,0.0,0.0,0.0,-4.3815,0.0,0.0,0.0,0.0,0.0,-4.6301,-4.6301,-4.6301,-4.6301,0.0,0.0,0.0,0.0,0.0,0.0,0.0,0.0,0.0,0.0,-4.6301,0.0,0.0,-4.6301,-4.6301,-4.6301,-4.6301,-4.6301,-4.6301,-4.6301,-4.6803,-4.7068,-4.7068,-4.7581,-4.7883,-4.7883,-4.7405,-4.7068,-4.7068,-4.6602,-4.6301,-4.6301,-4.6301,-4.6301,-4.6301,-4.6301,-4.6301,-4.6301,-4.6301,-4.6301,-4.6301,-4.6301,-4.6301,-4.6301,-4.6301,-4.6301,-4.6301,-4.6301,-4.6301,-4.6301,-4.6301,-4.6301,-4.6301,-4.6301,-4.6301,-4.6301,0.0,0.0,0.0,0.0,0.0,0.0,0.0,0.0,0.0,0.0,0.0,0.0,0.0,0.0,0.0,0.0,0.0,0.0,-4.4317,-4.4736,-4.5304,-4.5992,-4.6022,-4.6322,-4.701,-4.4874,-4.3133,-4.1865,-4.134,-4.0592,-3.9697,-3.9697,-3.9697,-3.9697,-3.9697,-3.9898,-4.0275,-4.045,-4.0953,-4.176,-4.2087,-4.2439,-4.276,0.0,0.0,0.0,0.0,0.0,0.0,0.0,0.0,0.0,0.0,0.0,0.0,-4.625,-4.6301,-4.6301,-4.6301,0.0,0.0,0.0,0.0,0.0,0.0,0.0,0.0,0.0,0.0,0.0,-4.6301,0.0,0.0,-4.6301,-4.6301,-4.6301,-4.6301,-4.6301,-4.6301,-4.6301,-4.6451,-4.6552,-4.6552,-4.6702,-4.6778,-4.6778,-4.6652,-4.6552,-4.6552,-4.6401,-4.6301,-4.6301,-4.6301,-4.6301,-4.6301,-4.6301,-4.6301,-4.6301,-4.6301,-4.6301,-4.6301,-4.6301,-4.6301,-4.6301,-4.6301,-4.6301,-4.6301,-4.6301,-4.6301,-4.6301,-4.6301,-4.6301,-4.6301,-4.6301,-4.6301,-4.6301,0.0,0.0,0.0,0.0,0.0,0.0,0.0,0.0,0.0,0.0,0.0,0.0,0.0,0.0,0.0,0.0,0.0,0.0,0.0,-4.5484,-4.5992,-4.6681,-4.6711,-4.6429,-4.5824,-4.4303,-4.2641,-4.0844,-4.0844,-4.0465,-3.9697,-3.9697,-3.9798,-4.0023,-4.0023,-4.0325,-4.0852,-4.1078,-4.1555,-4.2238,-4.2439,-4.274,-4.2986,0.0,0.0,0.0,0.0,0.0,0.0,0.0,0.0,0.0,0.0,0.0,0.0,-4.6301,-4.6301,-4.6301,0.0,0.0,0.0,0.0,0.0,0.0,0.0,0.0,0.0,0.0,0.0,0.0,0.0,-4.6301,0.0,-4.6301,-4.6301,-4.6301,-4.6301,-4.6301,-4.6301,-4.6301,-4.6301,-4.6301,-4.6301,-4.6301,-4.6301,-4.6301,-4.6301,-4.6301,-4.6301,-4.6301,-4.6301,-4.6301,-4.6301,-4.6301,-4.6301,-4.6301,-4.6301,-4.6301,-4.6301,-4.6301,-4.6301,-4.6301,-4.6301,-4.6301,-4.6301,-4.6301,-4.6301,-4.6301,-4.6301,-4.6301,-4.6301,-4.6301,-4.6301,-4.6301,-4.6301,-4.6301,0.0,0.0,0.0,0.0,0.0,0.0,0.0,0.0,0.0,0.0,0.0,0.0,0.0,0.0,0.0,0.0,0.0,0.0,0.0,0.0,-4.6681,-4.7279,-4.7309,-4.6166,-4.374,-4.3551,-4.2301,-3.9878,-3.9749,-3.9697,-3.9697,-3.9747,-4.0049,-4.0526,-4.0576,-4.0902,-4.1401,-4.1957,-4.2238,-4.2338,-4.2816,-4.3011,-4.3062,-4.3062,0.0,0.0,0.0,0.0,0.0,0.0,0.0,0.0,0.0,0.0,0.0,-4.6301,-4.6301,0.0,0.0,0.0,0.0,0.0,0.0,0.0,0.0,0.0,0.0,0.0,0.0,0.0,0.0,-4.6301,-4.6301,-4.6301,-4.6301,-4.6301,-4.6301,-4.6301,-4.6301,-4.6301,-4.6301,-4.6301,-4.6301,-4.6301,-4.6301,-4.6301,-4.6301,-4.6301,-4.6301,-4.6301,-4.6301,-4.6301,-4.6301,-4.6301,-4.6301,-4.6301,-4.6301,-4.6301,-4.6301,-4.6301,-4.6301,-4.6301,-4.6301,-4.6301,-4.6301,-4.6301,-4.6301,-4.6301,-4.6301,-4.6301,-4.6301,-4.6301,-4.6301,-4.6301,-4.6301,-4.6301,0.0,0.0,0.0,0.0,0.0,0.0,0.0,0.0,0.0,0.0,0.0,0.0,0.0,0.0,0.0,0.0,0.0,0.0,0.0,0.0,-4.716,-4.7309,-4.7309,-4.6594,-4.5024,-4.4022,-4.2738,-4.1169,-4.016,-3.9697,-3.9697,-4.0149,-4.04,-4.0526,-4.0924,-4.148,-4.2037,-4.2162,-4.2464,-4.2811,-4.2936,-4.3237,-4.3614,-4.3614,-4.3966,0.0,0.0,0.0,0.0,0.0,0.0,0.0,-4.6276,-4.6301,-4.6301,-4.6301,-4.6301,0.0,0.0,0.0,0.0,0.0,0.0,0.0,0.0,0.0,0.0,0.0,0.0,0.0,0.0,-4.6301,-4.6301,-4.6301,-4.6301,-4.6301,-4.6301,-4.6301,-4.6301,-4.6301,-4.6301,-4.6301,-4.6301,-4.6301,-4.6301,-4.6301,-4.6301,-4.6301,-4.6301,-4.6301,-4.6301,-4.6301,-4.6301,-4.6301,-4.6301,-4.6301,-4.6301,-4.6301,-4.6301,-4.6301,-4.6301,-4.6301,-4.6301,-4.6301,-4.6301,-4.6301,-4.6301,-4.6301,-4.6301,-4.6301,-4.6301,-4.6301,-4.6301,-4.6301,-4.6301,-4.6301,0.0,0.0,0.0,0.0,0.0,0.0,0.0,0.0,0.0,0.0,0.0,0.0,0.0,0.0,0.0,0.0,0.0,0.0,0.0,0.0,-4.7309,-4.7309,-4.7309,-4.6682,-4.5434,-4.4163,-4.2882,-4.1591,-4.0594,-4.0099,-4.0099,-4.0375,-4.0802,-4.1304,-4.1605,-4.2032,-4.2615,-4.2615,-4.271,-4.3011,-4.3263,-4.3539,-4.384,-4.4091,-4.4543,-4.5045,-4.5045,0.0,0.0,0.0,0.0,0.0,0.0,0.0,-4.6301,-4.6301,-4.6301,0.0,0.0,0.0,0.0,0.0,0.0,0.0,0.0,0.0,0.0,0.0,0.0,0.0,0.0,-4.6301,-4.6301,-4.6301,-4.6301,-4.6301,-4.6301,-4.6301,-4.6301,-4.6301,-4.6301,-4.6301,-4.6301,-4.6301,-4.6301,-4.6301,-4.6301,-4.6301,-4.6301,-4.6301,-4.6301,-4.6301,-4.6301,-4.6301,-4.6301,-4.6301,-4.6301,-4.6301,-4.6301,-4.6301,-4.6301,-4.6301,-4.6301,-4.6301,-4.6301,-4.6301,-4.6301,-4.6301,-4.6301,-4.6301,-4.6301,-4.6301,-4.6301,-4.6301,-4.6301,-4.6301,0.0,0.0,0.0,0.0,0.0,0.0,0.0,0.0,0.0,0.0,0.0,0.0,0.0,0.0,0.0,0.0,0.0,0.0,0.0,0.0,0.0,-4.7309,-4.7309,-4.6814,-4.5734,-4.4369,-4.3142,-4.2096,-4.1106,-4.0701,0.0,0.0,-4.1279,-4.2213,-4.2313,-4.2615,-4.2986,-4.2986,-4.3037,-4.3162,-4.3614,-4.3915,-4.4141,-4.4593,-4.5121,-4.5623,-4.5623,-4.5924,-4.6301,-4.6301,0.0,0.0,0.0,0.0,-4.6301,-4.6301,-4.6301,-4.6301,0.0,0.0,0.0,0.0,0.0,0.0,0.0,0.0,0.0,0.0,0.0,0.0,-4.6301,-4.6301,-4.6301,-4.6301,-4.6301,-4.6301,-4.6301,-4.6301,-4.6301,-4.6301,-4.6301,-4.6301,-4.6301,-4.6301,-4.6301,-4.6301,-4.6301,-4.6301,-4.6301,-4.6301,-4.6301,-4.6301,-4.6301,-4.6301,-4.6301,-4.6301,-4.6301,-4.6301,-4.6301,-4.6301,-4.6301,-4.6301,-4.6301,-4.6301,-4.6301,-4.6301,-4.6301,-4.6301,-4.6301,-4.6301,-4.6301,-4.6301,-4.6301,-4.6301,-4.6301,-4.6301,0.0,0.0,0.0,0.0,0.0,0.0,0.0,0.0,0.0,0.0,0.0,0.0,0.0,0.0,0.0,0.0,0.0,0.0,0.0,0.0,0.0,-4.7309,-4.7309,-4.7222,-4.7062,-4.5166,-4.4083,-4.3938,-4.2086,0.0,0.0,0.0,0.0,-4.2238,-4.2715,-4.2911,-4.2986,-4.2986,-4.3263,-4.3689,-4.3765,-4.4392,-4.5271,-4.5347,-4.5723,-4.62,-4.62,-4.625,-4.6301,-4.6301,-4.6301,0.0,0.0,0.0,-4.6301,-4.6301,-4.6301,0.0,0.0,0.0,0.0,0.0,0.0,0.0,0.0,0.0,0.0,0.0,0.0,0.0,-4.6301,-4.6301,-4.6301,-4.6301,-4.6301,-4.6301,-4.6301,-4.6301,-4.6301,-4.6301,-4.6301,-4.6301,-4.6301,-4.6301,-4.6301,-4.6301,-4.6301,-4.6301,-4.6301,-4.6301,-4.6301,-4.6301,-4.6301,-4.6301,-4.6301,-4.6301,-4.6301,-4.6301,-4.6301,-4.6301,-4.6301,-4.6301,-4.6301,-4.6301,-4.6301,-4.6301,-4.6301,-4.6301,-4.6301,-4.6301,-4.6301,-4.6301,-4.6301,-4.6301,-4.6301,-4.6301,0.0,0.0,0.0,0.0,0.0,0.0,0.0,0.0,0.0,0.0,0.0,0.0,0.0,0.0,0.0,0.0,0.0,0.0,0.0,0.0,0.0,-4.7848,-4.748,-4.7219,-4.7219,-4.492,-4.3671,-4.3671,0.0,0.0,0.0,-4.2514,-4.2665,0.0,0.0,-4.3162,-4.3438,-4.3438,-4.3765,-4.4292,-4.4618,-4.5045,-4.5522,-4.5824,-4.61,-4.6301,-4.6301,-4.6301,-4.6301,-4.6301,-4.6301,-4.6301,-4.6301,0.0,0.0,0.0,-4.6301,0.0,0.0,0.0,0.0,0.0,0.0,0.0,0.0,0.0,0.0,0.0,0.0,0.0,-4.6301,-4.6301,-4.6301,-4.6301,-4.6301,-4.6301,-4.6301,-4.6301,-4.6301,-4.6301,-4.6301,-4.6301,-4.6301,-4.6301,-4.6301,-4.6301,-4.6301,-4.6301,-4.6301,-4.6301,-4.6301,-4.6301,-4.6301,-4.6301,-4.6301,-4.6301,-4.6301,-4.6301,-4.6301,-4.6301,-4.6301,-4.6301,-4.6301,-4.6301,-4.6301,-4.6301,-4.6301,-4.6301,-4.6301,-4.6301,-4.6301,-4.6301,-4.6301,-4.6301,-4.6301,-4.6301,0.0,0.0,0.0,0.0,0.0,0.0,0.0,0.0,0.0,0.0,0.0,0.0,0.0,0.0,0.0,0.0,0.0,0.0,0.0,0.0,0.0,-4.8536,-4.8018,-4.7572,-4.7213,-4.5066,-4.3802,0.0,0.0,0.0,-4.2439,-4.2785,-4.3062,0.0,-4.3187,-4.3413,-4.3815,-4.394,-4.4342,-4.4895,-4.5321,-4.5573,-4.5748,-4.615,-4.6301,-4.6301,-4.6301,-4.6301,-4.6301,-4.6301,-4.6301,-4.6301,-4.6301,-4.6301,0.0,0.0,0.0,0.0,0.0,0.0,0.0,0.0,0.0,0.0,0.0,0.0,0.0,0.0,0.0,0.0,-4.6301,-4.6301,-4.6301,-4.6301,-4.6301,-4.6301,-4.6301,-4.6301,-4.6301,-4.6301,-4.6301,-4.6301,-4.6301,-4.6301,-4.6301,-4.6301,-4.6301,-4.6301,-4.6301,-4.6301,-4.6301,-4.6301,-4.6301,-4.6301,-4.6301,-4.6301,-4.6301,-4.6301,-4.6301,-4.6301,-4.6301,-4.6301,-4.6301,-4.6301,-4.6301,-4.6301,-4.6301,-4.6301,-4.6301,-4.6301,-4.6301,-4.6301,-4.6301,-4.6301,-4.6301,-4.6301,0.0,0.0,0.0,0.0,0.0,0.0,0.0,0.0,0.0,0.0,0.0,0.0,-4.7309,-4.7309,-4.7309,-4.7309,-4.7878,0.0,0.0,0.0,0.0,-4.9269,-4.9209,0.0,-4.7242,-4.6349,-4.5343,0.0,0.0,0.0,-4.2936,-4.2961,-4.3263,-4.3765,-4.3765,-4.3765,-4.384,0.0,-4.492,-4.5447,-4.5472,-4.5799,-4.6276,-4.6301,-4.6301,-4.6301,-4.6301,-4.6301,-4.6301,-4.6301,-4.6301,-4.6301,-4.6301,-4.6301,-4.6301,0.0,0.0,0.0,0.0,0.0,0.0,0.0,0.0,0.0,0.0,0.0,0.0,0.0,0.0,0.0,-4.6301,-4.6301,-4.6301,-4.6301,-4.6301,-4.6301,-4.6301,-4.6301,-4.6301,-4.6301,-4.6301,-4.6301,-4.6301,-4.6301,-4.6301,-4.6301,-4.6301,-4.6301,-4.6301,-4.6301,-4.6301,-4.6301,-4.6301,-4.6301,-4.6301,-4.6301,-4.6301,-4.6301,-4.6301,-4.6301,-4.6301,-4.6301,-4.6301,-4.6301,-4.6301,-4.6301,-4.6301,-4.6301,-4.6301,-4.6301,-4.6301,-4.6301,-4.6301,-4.6301,-4.6301,-4.6301,0.0,0.0,0.0,0.0,0.0,0.0,0.0,0.0,0.0,0.0,0.0,0.0,0.0,-4.7668,-4.7938,-4.7938,-4.8536,0.0,0.0,0.0,0.0,-4.9883,-4.9469,-4.8596,-4.7163,-4.6013,0.0,0.0,0.0,-4.2986,-4.2986,-4.3338,-4.3614,-4.379,-4.379,-4.4217,-4.4895,-4.5095,-4.5497,-4.6024,-4.6024,-4.6125,-4.6301,-4.6301,-4.6301,-4.6301,-4.6301,-4.6301,-4.6301,-4.6301,-4.6301,-4.6301,-4.6301,-4.6301,-4.6301,-4.6301,-4.6301,0.0,0.0,0.0,0.0,0.0,0.0,0.0,0.0,0.0,0.0,0.0,0.0,0.0,-4.6301,-4.6301,-4.6301,-4.6301,-4.6301,-4.6301,-4.6301,-4.6301,-4.6301,-4.6301,-4.6301,-4.6301,-4.6301,-4.6301,-4.6301,-4.6301,-4.6301,-4.6301,-4.6301,-4.6301,-4.6301,-4.6301,-4.6301,-4.6301,-4.6301,-4.6301,-4.6301,-4.6301,-4.6301,-4.6301,-4.6301,-4.6301,-4.6301,-4.6301,-4.6301,-4.6301,-4.6301,-4.6301,-4.6301,-4.6301,-4.6301,-4.6301,-4.6301,-4.6301,-4.6301,-4.6301,0.0,0.0,0.0,0.0,0.0,0.0,0.0,0.0,-4.7309,-4.7309,0.0,0.0,0.0,0.0,-4.8716,-4.8925,-4.9344,-4.9703,-4.9912,-5.0331,-5.0524,-5.0524,-5.0099,-4.9014,-4.7146,0.0,0.0,0.0,0.0,0.0,0.0,-4.3815,-4.4192,-4.4367,-4.4367,-4.4794,0.0,0.0,-4.5974,-4.6301,-4.6301,-4.6301,-4.6301,-4.6301,-4.6301,-4.6301,-4.6301,-4.6301,-4.6301,-4.6301,-4.6301,-4.6301,-4.6301,-4.6301,-4.6301,-4.6301,-4.6301,0.0,0.0,0.0,0.0,0.0,0.0,0.0,0.0,0.0,0.0,0.0,0.0,0.0,-4.6301,-4.6301,-4.6301,-4.6301,-4.6301,-4.6301,-4.6301,-4.6301,-4.6301,-4.6301,-4.6301,-4.6301,-4.6301,-4.6301,-4.6301,-4.6301,-4.6301,-4.6301,-4.6301,-4.6301,-4.6301,-4.6301,-4.6301,-4.6301,-4.6301,-4.6301,-4.6301,-4.6301,-4.6301,-4.6301,-4.6301,-4.6301,-4.6301,-4.6301,-4.6301,-4.6301,-4.6301,-4.6301,-4.6301,-4.6301,-4.6301,-4.6301,-4.6301,-4.6301,-4.6301,-4.6301,0.0,0.0,0.0,0.0,0.0,0.0,0.0,0.0,-4.7339,-4.7369,0.0,0.0,0.0,0.0,0.0,-5.0166,-5.0226,-5.0495,-5.1169,-5.1229,-5.1229,-5.1259,-5.1259,-4.9979,0.0,0.0,0.0,0.0,0.0,0.0,0.0,0.0,-4.4945,-4.5497,-4.5497,-4.5522,-4.5547,0.0,-4.6301,-4.6301,-4.6301,-4.6301,-4.6301,-4.6301,-4.6301,-4.6301,-4.6301,-4.6301,-4.6301,-4.6301,-4.6301,-4.6301,-4.6301,-4.6301,-4.6301,-4.6301,-4.6301,-4.6301,0.0,0.0,0.0,0.0,0.0,0.0,0.0,0.0,0.0,0.0,0.0,0.0,0.0,-4.6301,-4.6301,-4.6301,-4.6301,-4.6301,-4.6301,-4.6301,-4.6301,-4.6301,-4.6301,-4.6301,-4.6301,-4.6301,-4.6301,-4.6301,-4.6301,-4.6301,-4.6301,-4.6301,-4.6301,-4.6301,-4.6301,-4.6301,-4.6301,-4.6301,-4.6301,-4.6301,-4.6301,-4.6301,-4.6301,-4.6301,-4.6301,-4.6301,-4.6301,-4.6301,-4.6301,-4.6301,-4.6301,-4.6301,-4.6301,-4.6301,-4.6301,-4.6301,-4.6301,-4.6301,0.0,0.0,0.0,0.0,0.0,-4.7459,-4.7938,-4.8027,-4.8177,0.0,0.0,0.0,-4.903,-4.9583,-5.0242,-5.09,-5.0913,-5.102,-5.1199,-5.1229,-5.1439,-5.1917,-5.1917,-5.1297,-5.0029,0.0,0.0,0.0,0.0,0.0,0.0,0.0,0.0,0.0,-4.5899,-4.6075,-4.61,-4.625,0.0,-4.6301,-4.6301,-4.6301,-4.6301,-4.6301,-4.6301,-4.6301,-4.6301,-4.6301,-4.6301,-4.6301,-4.6301,-4.6301,-4.6301,-4.6301,-4.6301,-4.6301,-4.6301,-4.6301,-4.6301,0.0,0.0,0.0,0.0,0.0,0.0,0.0,0.0,0.0,0.0,0.0,0.0,-4.6301,-4.6301,-4.6301,-4.6301,-4.6301,-4.6301,-4.6301,-4.6301,-4.6301,-4.6301,-4.6301,-4.6301,-4.6301,-4.6301,-4.6301,-4.6301,-4.6301,-4.6301,-4.6301,-4.6301,-4.6301,-4.6301,-4.6301,-4.6301,-4.6301,-4.6301,-4.6301,-4.6301,-4.6301,-4.6301,-4.6301,-4.6301,-4.6301,-4.6301,-4.6301,-4.6301,-4.6301,-4.6301,-4.6301,-4.6301,-4.6301,-4.6301,-4.6301,-4.6301,-4.6301,0.0,0.0,0.0,0.0,0.0,-4.8267,-4.8626,-4.873,-4.888,0.0,0.0,0.0,-5.0062,-5.0661,-5.1199,-5.1588,-5.1887,-5.2037,-5.2037,-5.2037,-5.2217,-5.2606,-5.2606,-5.1817,-5.0233,-5.0174,-4.8816,0.0,0.0,-4.6716,-4.5905,-4.6495,-4.6777,0.0,0.0,0.0,0.0,0.0,0.0,-4.6301,-4.6301,-4.6301,-4.6301,-4.6301,-4.6301,-4.6301,-4.6301,-4.6301,-4.6301,-4.6301,-4.6301,-4.6301,-4.6301,-4.6301,-4.6301,-4.6301,-4.6301,-4.6301,-4.6301,-4.6301,-4.6301,-4.6301,0.0,0.0,-4.6301,-4.6301,0.0,0.0,0.0,0.0,0.0,-4.6301,-4.6301,-4.6301,-4.6301,-4.6301,-4.6301,-4.6301,-4.6301,-4.6301,-4.6301,-4.6301,-4.6301,-4.6301,-4.6301,-4.6301,-4.6301,-4.6301,-4.6301,-4.6301,-4.6301,-4.6301,-4.6301,-4.6301,-4.6301,-4.6301,-4.6301,-4.6301,-4.6301,-4.6301,-4.6301,-4.6301,-4.6301,-4.6301,-4.6301,-4.6301,-4.6301,-4.6301,-4.6301,-4.6301,-4.6301,-4.6301,-4.6301,-4.6301,-4.6301,-4.6301,0.0,0.0,-4.8386,-4.8386,-4.891,-4.9329,-4.9419,-4.9419,-4.9449,0.0,-5.0062,-5.0644,-5.1259,-5.1917,-5.2306,-5.2306,-5.2845,-5.3174,-5.3174,-5.3174,-5.3204,-5.3294,-5.3294,-5.2147,-4.9643,-5.1238,-4.9933,-4.5496,-4.9025,-4.9772,-4.805,-4.8524,-4.8736,-4.8705,0.0,0.0,0.0,0.0,0.0,-4.6301,-4.6301,-4.6301,-4.6301,-4.6301,-4.6301,-4.6301,-4.6301,-4.6301,-4.6301,-4.6301,-4.6301,-4.6301,-4.6301,-4.6301,-4.6301,-4.6301,-4.6301,-4.6301,-4.6301,-4.6301,-4.6301,-4.6301,-4.6301,0.0,-4.6301,-4.6301,-4.6301,-4.6301,0.0,0.0,0.0,0.0,-4.6301,-4.6301,-4.6301,-4.6301,-4.6301,-4.6301,-4.6301,-4.6301,-4.6301,-4.6301,-4.6301,-4.6301,-4.6301,-4.6301,-4.6301,-4.6301,-4.6301,-4.6301,-4.6301,-4.6301,-4.6301,-4.6301,-4.6301,-4.6301,-4.6301,-4.6301,-4.6301,-4.6301,-4.6301,-4.6301,-4.6301,-4.6301,-4.6301,-4.6301,-4.6301,-4.6301,-4.6301,-4.6301,-4.6301,-4.6301,-4.6301,-4.6301,-4.6301,-4.6301,0.0,-4.903,-4.912,-4.912,-4.9209,-4.9434,-4.9972,-4.9986,-5.0242,-5.078,-5.1409,-5.1858,-5.2007,-5.2606,-5.2995,-5.2995,-5.3114,-5.3174,-5.3174,-5.3174,-5.3443,-5.3982,-5.4012,-5.3973,-5.3971,-5.3204,-5.2333,-5.1389,-5.0932,-5.0491,-5.0104,-5.0213,-5.0268,-5.0268,0.0,0.0,0.0,0.0,0.0,-4.6301,-4.6301,-4.6301,-4.6301,-4.6301,-4.6301,-4.6301,-4.6301,-4.6301,-4.6301,-4.6301,-4.6301,-4.6301,-4.6301,-4.6301,-4.6301,-4.6301,-4.6301,-4.6301,-4.6301,-4.6301,-4.6301,-4.6301,-4.6301,0.0,-4.6301,-4.6301,-4.6301,0.0,0.0,0.0,0.0,0.0,-4.6301,-4.6301,-4.6301,-4.6301,-4.6301,-4.6301,-4.6301,-4.6301,-4.6301,-4.6301,-4.6301,-4.6301,-4.6301,-4.6301,-4.6301,-4.6301,-4.6301,-4.6301,-4.6301,-4.6301,-4.6301,-4.6301,-4.6301,-4.6301,-4.6301,-4.6301,-4.6301,-4.6301,-4.6301,-4.6301,-4.6301,-4.6301,-4.6301,-4.6301,-4.6301,-4.6301,-4.6301,-4.6301,-4.6301,-4.6301,-4.6301,-4.6301,-4.6301,-4.6301,-4.9299,-4.9523,-4.9763,-4.9763,-5.0032,-5.0361,-5.0614,-5.0674,-5.096,-5.1618,-5.2276,-5.2695,-5.2695,-5.3294,-5.3683,-5.3683,-5.3982,-5.4192,-5.4192,-5.4192,-5.4341,-5.467,-5.47,-5.4518,-5.4119,-5.4068,-5.3332,-5.1835,-5.2615,-5.2562,-5.1835,-5.1835,-5.1427,-5.0713,0.0,0.0,0.0,0.0,-4.8736,-4.7324,-4.6576,-4.6301,-4.6301,-4.6301,-4.6301,-4.6301,-4.6301,-4.6301,-4.6301,-4.6301,-4.6301,-4.6301,-4.6301,-4.6301,-4.6301,-4.6301,-4.6301,-4.6301,-4.6301,-4.6301,-4.6301,-4.6301,-4.6301,0.0,0.0,-4.6301,-4.6301,-4.6301,0.0,0.0,0.0,0.0,-4.6301,-4.6301,-4.6301,-4.6301,-4.6301,-4.6301,-4.6301,-4.6301,-4.6301,-4.6301,-4.6301,-4.6301,-4.6301,-4.6301,-4.6301,-4.6301,-4.6301,-4.6301,-4.6301,-4.6301,-4.6301,-4.6301,-4.6301,-4.6301,-4.6301,-4.6301,-4.6301,-4.6301,-4.6301,-4.6301,-4.6301,-4.6301,-4.6301,-4.6301,-4.6301,-4.6301,-4.6301,-4.6301,-4.6301,-4.6301,-4.6301,-4.6301,-4.6301,-4.6301,-4.9673,-5.0062,-5.0375,-5.0375,-5.0913,-5.1409,-5.1409,-5.1498,-5.1798,-5.2306,-5.2965,-5.3384,-5.3384,-5.3982,-5.4401,-5.4401,-5.488,-5.5179,-5.5179,-5.5179,-5.5179,-5.5179,-5.5179,-5.4641,-5.3466,-5.459,-5.4016,-5.159,-5.4016,-5.459,-5.3413,-5.3413,-5.2775,0.0,0.0,0.0,0.0,0.0,0.0,-4.8416,-4.7205,-4.6541,-4.6301,-4.6301,-4.6301,-4.6301,-4.6301,-4.6301,-4.6301,-4.6301,-4.6301,-4.6301,-4.6301,-4.6301,-4.6301,-4.6301,-4.6301,-4.6301,-4.6301,-4.6301,-4.6301,-4.6301,-4.6301,-4.6301,0.0,0.0,0.0,-4.6301,0.0,0.0,0.0,0.0,0.0,0.0,0.0,0.0,0.0,-4.6301,0.0,-4.6301,-4.6301,-4.6301,-4.6301,-4.6301,-4.6301,-4.6301,-4.6301,-4.6301,-4.6301,-4.6301,-4.6301,-4.6301,-4.6301,-4.6301,-4.6301,-4.6301,-4.6301,-4.6301,-4.6301,-4.6301,-4.6301,-4.6301,-4.6301,-4.6301,-4.6301,-4.6301,-4.6301,-4.6301,-4.6301,-4.6301,-4.6301,-4.6301,-4.6301,-4.6301,-4.6301,-4.6301,-5.1109,-5.105,-5.1109,-5.1109,-5.1648,-5.2097,-5.2097,-5.2576,-5.2995,-5.3054,-5.3653,-5.4102,-5.4102,-5.467,-5.5089,-5.5089,-5.5149,-5.5179,-5.5179,-5.5179,-5.5179,-5.5179,-5.5179,-5.5128,-5.4976,-5.5128,-5.5027,-5.4692,-5.5027,-5.5128,-5.4976,-5.4976,-5.4845,0.0,-5.4692,0.0,0.0,0.0,-5.1071,0.0,-4.83,-4.7475,-4.6301,-4.6301,-4.6301,-4.6301,-4.6301,-4.6301,-4.6301,-4.6301,-4.6301,-4.6301,-4.6301,-4.6301,-4.6301,-4.6301,-4.6301,-4.6301,-4.6301,-4.6301,-4.6301,-4.6301,-4.6301,-4.6301,-4.6301,0.0,-4.6301,-4.6301,0.0,-4.6301,-4.6301,0.0,0.0,-4.6301,0.0,0.0,-4.6301,-4.6301,-4.6301,-4.6301,-4.6301,-4.6301,-4.6301,-4.6301,-4.6301,-4.6301,-4.6301,-4.6301,-4.6301,-4.6301,-4.6301,-4.6301,-4.6301,-4.6301,-4.6301,-4.6301,-4.6301,-4.6301,-4.6301,-4.6301,-4.6301,-4.6301,-4.6301,-4.6301,-4.6301,-4.6301,-4.6301,-4.6301,-4.6301,-4.6301,-4.6301,-4.6301,-4.6301,-4.6301,-4.6301,-4.6301,-5.2426,-5.2366,-5.2366,-5.2366,-5.2576,-5.2755,-5.2755,-5.3354,-5.3773,-5.3773,-5.4371,-5.479,-5.479,-5.5029,-5.5179,-5.5179,-5.5179,-5.5179,-5.5179,-5.5179,-5.5179,-5.5179,-5.5179,-5.5179,-5.5179,-5.5179,-5.5179,-5.5179,-5.5179,-5.5179,-5.5179,-5.5179,-5.4743,-5.3964,-5.4794,0.0,-5.3069,0.0,-5.3069,0.0,0.0,-5.0184,-4.8678,-4.6968,-4.6301,-4.6301,-4.6301,-4.6301,-4.6301,-4.6301,-4.6301,-4.6301,-4.6301,-4.6301,-4.6301,-4.6301,-4.6301,-4.6301,-4.6301,-4.6301,-4.6301,-4.6301,-4.6301,-4.6301,-4.6301,-4.6301,-4.6301,-4.6301,0.0,0.0,0.0,0.0,0.0,0.0,-4.6301,-4.6301,0.0,0.0,-4.6301,-4.6301,-4.6301,-4.6301,-4.6301,-4.6301,-4.6301,-4.6301,-4.6301,-4.6301,-4.6301,-4.6301,-4.6301,-4.6301,-4.6301,-4.6301,-4.6301,-4.6301,-4.6301,-4.6301,-4.6301,-4.6301,-4.6301,-4.6301,-4.6301,-4.6301,-4.6301,-4.6301,-4.6301,-4.6301,-4.6301,-4.6301,-4.6301,-4.6301,-4.6301,-4.6301,-4.6301,-4.6301,-5.3683,-5.3443,-5.3174,-5.3174,-5.3324,-5.3533,-5.3713,-5.4162,-5.4491,-5.4491,-5.491,-5.5179,-5.5179,-5.5179,-5.5179,-5.5179,-5.5179,-5.5179,-5.5179,-5.5179,-5.5179,-5.5179,-5.5179,-5.5179,-5.5179,-5.5179,-5.5179,-5.5179,-5.5179,-5.5179,-5.5179,-5.5179,-5.4641,-5.3623,0.0,-5.4641,-5.3675,0.0,-5.4355,-5.3016,-5.3016,-5.2164,-5.0655,-4.7912,-4.701,-4.7163,-4.7163,-4.724,-4.7367,-4.7367,-4.7091,-4.6753,-4.6753,-4.6652,-4.6527,-4.6527,-4.6426,-4.6301,-4.6301,-4.6301,-4.6301,-4.6301,-4.6301,-4.6301,-4.6301,-4.6301,-4.6301,-4.6301,-4.6301,0.0,0.0,0.0,-4.6301,-4.6301,0.0,-4.6301,-4.6301,-4.6301,0.0,-4.6301,-4.6301,-4.6301,-4.6301,-4.6301,-4.6301,-4.6301,-4.6301,-4.6301,-4.6301,-4.6301,-4.6301,-4.6301,-4.6301,-4.6301,-4.6301,-4.6301,-4.6301,-4.6301,-4.6301,-4.6301,-4.6301,-4.6301,-4.6301,-4.6301,-4.6301,-4.6301,-4.6301,-4.6301,-4.6301,-4.6301,-4.6301,-4.6301,-4.6301,-4.6301,-4.6301,-4.6301,-5.4999,-5.4072,-5.3174,-5.3174,-5.3743,-5.4401,-5.5029,-5.5149,-5.5149,-5.5149,-5.5179,-5.5179,-5.5179,-5.5179,-5.5179,-5.5179,-5.5179,-5.5179,-5.5179,-5.5179,-5.5179,-5.5179,-5.5179,-5.5179,-5.5179,-5.5179,-5.5179,-5.5179,-5.5179,-5.5179,-5.5179,-5.5179,-5.5179,-5.5128,-5.5179,-5.5179,-5.5128,-5.5179,-5.4355,-5.3016,-5.3016,-5.2502,-5.1429,-4.9263,-4.8816,-4.9435,-4.9435,-4.9719,-5.0194,-5.0194,-4.9135,-4.7857,-4.7857,-4.7506,-4.7043,-4.7043,-4.6728,-4.6301,-4.6301,-4.6301,-4.6301,-4.6301,-4.6301,-4.6301,-4.6301,-4.6301,-4.6301,-4.6301,-4.6301,-4.6301,-4.6301,-4.6301,-4.6301,-4.6301,-4.6301,0.0,0.0,-4.6301,-4.6301,-4.6301,-4.6301,-4.6301,-4.6301,-4.6301,-4.6301,-4.6301,-4.6301,-4.6301,-4.6301,-4.6301,-4.6301,-4.6301,-4.6301,-4.6301,-4.6301,-4.6301,-4.6301,-4.6301,-4.6301,-4.6301,-4.6301,-4.6301,-4.6301,-4.6301,-4.6301,-4.6301,-4.6301,-4.6301,-4.6301,-4.6301,-4.6301,-4.6301,-4.6301,-4.6301,-4.6301,-4.6301,-5.5149,-5.482,-5.4521,-5.4521,0.0,-5.494,-5.5149,-5.5179,-5.5179,-5.5179,-5.5179,-5.5179,-5.5179,-5.5179,-5.5179,-5.5179,-5.5179,-5.5179,-5.5179,-5.5179,-5.5179,-5.5179,-5.5179,-5.5179,-5.5179,-5.5179,-5.5179,-5.5179,-5.5179,-5.5179,-5.5179,-5.5179,-5.5179,-5.5179,0.0,-5.5179,0.0,0.0,0.0,0.0,0.0,-5.459,-5.3719,-5.2516,-5.1876,-5.1629,-5.1629,-5.1738,-5.1871,-5.1871,-5.1521,-5.1111,-5.1111,-5.0234,-4.923,-4.923,-4.8339,-4.738,-4.738,-4.738,-4.738,-4.738,-4.738,-4.738,-4.738,-4.7104,-4.6853,-4.6853,-4.6577,-4.6301,-4.6301,-4.6301,-4.6301,-4.6301,-4.6301,-4.6301,0.0,-4.6301,-4.6301,-4.6301,-4.6301,-4.6301,-4.6301,-4.6301,-4.6301,-4.6301,-4.6301,-4.6301,-4.6301,-4.6301,-4.6301,-4.6301,-4.6301,-4.6301,-4.6301,-4.6301,-4.6301,-4.6301,-4.6301,-4.6301,-4.6301,-4.6301,-4.6301,-4.6301,-4.6301,-4.6301,-4.6301,-4.6301,-4.6301,-4.6301,-4.6301,-4.6301,-4.6301,-4.6301,-4.6301,-4.6301,-5.5179,-5.5179,-5.5179,-5.5179,-5.5179,-5.5179,-5.5179,-5.5179,-5.5179,-5.5179,-5.5179,-5.5179,-5.5179,-5.5179,-5.5179,-5.5179,-5.5179,-5.5179,-5.5179,-5.5179,-5.5179,-5.5179,-5.5179,-5.5179,-5.5179,-5.5179,-5.5179,-5.5179,-5.5179,-5.5179,-5.5179,-5.5179,-5.5179,-5.5179,0.0,-5.5179,-5.5179,0.0,-5.5329,0.0,0.0,-5.6331,-5.6,-5.5562,-5.4751,-5.3838,-5.3838,-5.3922,-5.4119,-5.4119,-5.3776,-5.3315,-5.3315,-5.2479,-5.1433,-5.1433,-5.0585,-4.9464,-4.8907,-4.8723,-4.86,-4.8032,-4.7908,-4.7908,-4.7908,-4.7657,-4.7405,-4.7405,-4.7129,-4.6878,-4.6878,-4.6878,-4.6828,-4.6627,-4.6602,-4.6527,0.0,-4.6301,-4.6301,-4.6301,-4.6301,-4.6301,-4.6301,-4.6301,-4.6301,-4.6301,-4.6301,-4.6301,-4.6301,-4.6301,-4.6301,-4.6301,-4.6301,-4.6301,-4.6301,-4.6301,-4.6301,-4.6301,-4.6301,-4.6301,-4.6301,-4.6301,-4.6301,-4.6301,-4.6301,-4.6301,-4.6301,-4.6301,-4.6301,-4.6301,-4.6301,-4.6301,-4.6301,-4.6301,-4.6301,-4.6301,-5.5179,-5.5179,-5.5179,-5.5179,-5.5179,-5.5179,-5.5179,-5.5179,-5.5179,-5.5179,-5.5179,-5.5179,-5.5179,-5.5179,-5.5179,-5.5179,-5.5179,-5.5179,-5.5179,-5.5179,-5.5179,-5.5179,-5.5179,-5.5179,-5.5179,-5.5179,-5.5179,-5.5179,-5.5179,-5.5179,-5.5179,-5.5179,-5.5179,-5.5179,-5.5179,0.0,-5.5239,-5.5239,-5.5628,-5.6316,-5.6915,-5.7543,-5.8171,-5.8171,-5.7306,-5.6066,-5.6066,-5.6386,-5.6849,-5.6849,-5.5849,-5.4623,-5.4623,-5.4148,-5.3677,-5.3677,-5.3262,-5.2416,-5.0803,-5.0386,-4.9992,-4.8393,-4.7983,-4.7983,-4.7983,-4.7958,-4.7958,-4.7958,-4.7995,-4.797,-4.7908,-4.797,-4.7794,-4.7255,-4.7093,-4.6892,-4.6426,-4.6386,-4.6361,-4.6301,-4.6361,-4.6361,-4.6301,-4.6301,-4.6301,-4.6301,-4.6301,-4.6301,-4.6301,-4.6301,-4.6301,-4.6301,-4.6301,-4.6301,-4.6301,-4.6301,-4.6301,-4.6301,-4.6301,-4.6301,-4.6301,-4.6301,-4.6301,-4.6301,-4.6301,-4.6301,-4.6301,-4.6301,-4.6301,-4.6301,-4.6301,-4.6301,-4.6301,-4.6301,-4.6301,-4.6301,-5.5179,-5.5179,-5.5179,-5.5179,-5.5179,-5.5179,-5.5179,-5.5179,-5.5179,-5.5179,-5.5179,-5.5179,-5.5179,-5.5179,-5.5179,-5.5179,-5.5179,-5.5179,-5.5179,-5.5179,-5.5179,-5.5179,-5.5179,-5.5179,-5.5179,-5.5179,-5.5179,-5.5179,-5.5179,-5.5179,-5.5179,-5.5179,-5.5179,-5.5179,0.0,0.0,-5.5927,-5.5927,-5.6585,-5.7633,-5.7782,-5.8261,-5.886,-5.886,-5.8614,-5.8258,-5.8258,-5.8377,-5.8495,-5.8495,-5.8221,-5.786,-5.786,-5.6988,-5.588,-5.588,-5.4962,-5.3622,-5.2002,-5.154,-5.1171,-4.9584,-4.9163,-4.9163,-4.9163,-4.8837,-4.856,-4.856,-4.9153,-4.9308,-4.8156,-4.8907,-4.9282,-4.7918,-4.738,-4.7018,-4.6892,-4.7521,-4.7534,-4.6421,-4.7265,-4.7475,-4.6421,-4.6301,-4.6301,-4.6301,-4.6301,-4.6301,-4.6301,-4.6301,-4.6301,-4.6301,-4.6301,-4.6301,-4.6301,-4.6301,-4.6301,-4.6301,-4.6301,-4.6301,-4.6301,-4.6301,-4.6301,-4.6301,-4.6301,-4.6301,-4.6301,-4.6301,-4.6301,-4.6301,-4.6301,-4.6301,-4.6301,-4.6301,-4.6301,-4.6301,-5.5179,-5.5179,-5.5179,-5.5179,-5.5179,-5.5179,-5.5179,-5.5179,-5.5299,-5.5598,-5.5628,-5.5718,-5.5987,-5.6017,-5.6017,-5.6017,-5.6017,-5.6017,-5.6017,-5.6017,-5.6017,-5.6017,-5.6017,-5.5897,-5.5628,-5.5628,-5.5478,-5.5179,-5.5179,-5.5179,-5.5179,0.0,0.0,0.0,0.0,-5.5837,0.0,-5.6765,-5.7453,-5.8141,-5.8441,-5.877,0.0,-5.9099,-5.9099,-5.9099,-5.9099,-5.9099,-5.9099,-5.9099,-5.9099,-5.9099,-5.9099,-5.8495,-5.7749,-5.7749,-5.716,-5.6079,-5.4477,-5.4061,-5.3703,-5.2112,-5.1705,-5.1705,-5.1705,-5.1442,-5.1268,-5.1268,-5.1736,-5.183,-5.0891,-5.0891,-5.0446,-4.8623,-4.7832,-4.7481,-4.7481,-4.7682,-4.7836,-4.7658,-4.7571,-4.7475,-4.7265,-4.6695,-4.6301,-4.6301,-4.6301,-4.6301,-4.6301,-4.6301,-4.6301,-4.6301,-4.6301,-4.6301,-4.6301,-4.6301,-4.6301,-4.6301,-4.6301,-4.6301,-4.6301,-4.6301,-4.6301,-4.6301,-4.6301,-4.6301,-4.6301,-4.6301,-4.6301,-4.6301,-4.6301,-4.6301,-4.6301,-4.6301,-4.6301,-4.6301,-5.5179,-5.5179,-5.5179,-5.5179,-5.5269,-5.5329,-5.5329,-5.5329,-5.5538,-5.6107,-5.6308,-5.6496,-5.7034,-5.7094,-5.7094,-5.7094,-5.7094,-5.7094,-5.7094,-5.7094,-5.7094,-5.7094,-5.7094,-5.6825,-5.6368,-5.6338,-5.6017,-5.5448,-5.5448,-5.5448,-5.5448,0.0,0.0,0.0,0.0,0.0,0.0,-5.7723,-5.8261,-5.8291,-5.889,-5.9159,-5.9219,-5.9219,-5.9279,-5.9368,-5.9368,-5.9308,-5.9219,-5.9219,-5.9308,-5.9368,-5.9368,-5.9368,-5.9368,-5.9368,-5.9368,-5.9011,-5.7392,-5.6966,-5.6566,-5.5051,-5.4635,-5.4635,-5.4635,-5.4635,-5.4635,-5.4635,-5.4758,-5.4734,-5.4584,-5.3302,-5.1645,-4.9545,-4.8699,-4.8382,-4.8604,-4.8146,-4.8188,-4.9305,-4.8184,0.0,-4.8521,-4.7349,-4.6601,-4.6601,-4.6755,-4.6849,-4.6849,-4.6849,-4.6849,-4.6849,-4.6695,-4.6601,-4.6601,-4.6601,-4.6481,-4.6301,-4.6481,-4.6481,-4.6301,-4.6301,-4.6301,-4.6301,-4.6301,-4.6301,-4.6301,-4.6301,-4.6301,-4.6301,-4.6301,-4.6301,-4.6301,-4.6301,-4.6301,-4.6301,-5.5179,-5.5179,-5.5179,-5.5179,-5.5658,-5.5987,-5.5987,-5.5987,-5.6098,-5.6166,-5.6615,-5.6974,-5.7094,-5.7094,-5.7094,-5.7094,-5.7094,-5.7094,-5.7094,-5.7094,-5.7094,-5.7094,-5.7094,-5.7034,-5.6944,-5.6944,-5.6885,-5.6765,-5.6765,-5.6765,-5.6765,-5.6765,0.0,0.0,0.0,0.0,-5.7842,-5.862,-5.8919,-5.8949,-5.9069,-5.9428,-5.9907,-5.9907,-6.0266,-6.0775,-6.0775,-6.0386,-5.9907,-5.9907,-6.0296,-6.0775,-6.0775,-6.0775,-6.0775,-6.0775,-6.0775,-6.038,-5.8784,-5.832,-5.797,-5.6396,-5.5972,-5.5972,-5.5972,-5.5972,-5.5972,-5.5972,-5.6601,-5.6732,-5.5404,-5.4538,-5.3402,-5.1733,-5.1014,-5.1046,-5.2343,-5.1945,-5.1215,-5.0267,-5.1534,-5.1683,-4.9367,-4.8531,-4.8094,-4.8094,-4.9224,-4.9932,-4.9932,-4.9932,-4.9932,-4.9932,-4.8736,-4.8094,-4.8094,-4.8094,-4.7475,-4.6301,-4.7534,-4.7475,-4.6301,-4.6301,-4.6301,-4.6301,-4.6301,-4.6301,-4.6301,-4.6301,-4.6301,-4.6301,-4.6301,-4.6301,-4.6301,-4.6301,-4.6301,-4.6301,-5.5628,-5.5688,-5.5807,-5.6107,-5.6436,-5.6645,-5.6645,-5.6944,-5.7184,-5.7184,-5.7453,-5.7752,-5.8112,-5.8141,-5.8141,-5.8141,-5.8141,-5.8141,-5.8141,-5.8141,-5.8141,-5.8141,-5.8141,-5.7962,-5.7633,-5.7633,-5.7453,-5.7094,-5.7094,-5.7094,-5.7094,-5.7094,-5.7094,0.0,0.0,-5.7992,0.0,-5.8979,-5.9308,-5.9608,-5.9608,-6.0027,-6.0625,-6.0625,-6.0835,-6.1104,-6.1104,-6.1134,-6.1074,-6.0745,-6.0835,-6.1104,-6.1104,-6.1104,-6.1104,-6.1104,-6.1104,-6.0936,-6.0168,-5.9911,-5.9739,-5.8987,-5.8812,-5.8812,-5.8812,-5.8812,-5.8812,-5.8812,-5.9131,-5.8867,-5.6872,-5.6296,-5.5457,-5.3544,-5.3031,-5.3142,-5.3886,-5.3392,-5.3063,-5.3148,-5.3219,-5.2995,-5.2264,-5.1654,-5.0512,-4.8673,-4.9194,-4.9224,-4.8447,-4.911,-4.9224,-4.8447,-4.8474,-4.8474,-4.8474,-4.9251,-4.9041,-4.7888,-4.9418,-4.952,-4.8412,-4.9252,-4.9605,-4.9605,-4.8745,-4.8352,-4.8292,-4.7496,-4.7129,-4.7129,-4.7129,-4.7129,-4.7129,-4.7129,-4.7129,-4.7054,-5.6256,-5.6376,-5.6526,-5.7004,-5.7334,-5.7513,-5.7513,-5.8231,-5.865,-5.8381,-5.8471,-5.88,-5.9458,-5.9548,-5.9548,-5.9548,-5.9548,-5.9548,-5.9548,-5.9548,-5.9548,-5.9548,-5.9398,-5.9069,-5.856,-5.8411,-5.8052,-5.7513,-5.7513,-5.7453,-5.7304,-5.7453,-5.7513,-5.7543,-5.8082,-5.871,-5.9308,-5.9308,-5.9697,-6.0296,-6.0296,-6.0715,-6.1313,-6.1313,-6.1403,-6.1523,-6.1523,-6.1852,-6.2241,-6.1702,-6.1523,-6.1523,-6.1523,-6.1523,-6.1523,-6.1523,-6.1523,-6.1523,-6.1523,-6.1523,-6.1523,-6.1523,-6.1523,-6.1523,-6.1523,-6.1523,-6.1523,-6.1523,-6.1433,-6.0624,-5.8349,-5.8176,-5.7686,-5.546,-5.5113,-5.5203,-5.5355,-5.4732,-5.4654,-5.5847,-5.4742,-5.4176,-5.501,-5.4515,-5.2903,-5.0054,-4.9897,-4.9422,-4.8268,-4.9308,-4.9365,-4.8268,-4.9156,-4.964,-4.964,-5.0933,-5.104,-5.0036,-5.1591,-5.1809,-5.0842,-5.2103,-5.2506,-5.2103,-5.0842,-5.0093,-4.9672,-4.844,-4.7908,-4.7908,-4.7908,-4.7908,-4.7908,-4.7908,-4.7908,-4.7782,-5.7004,-5.7004,-5.7034,-5.7094,-5.8112,-5.8919,-5.8919,-6.0027,-6.0386,-5.9189,-5.9548,-6.0176,-6.0864,-6.0924,-6.0924,-6.0924,-6.0924,-6.0924,-6.0924,-6.0924,-6.0924,-6.0924,-6.0326,-5.9967,-5.9907,-5.9308,-5.8979,-5.8919,-5.8919,-5.862,-5.8052,-5.865,-5.8919,-5.8919,-5.8979,-5.9368,-5.9997,-5.9997,-6.0386,-6.1014,-6.1014,-6.1403,-6.2002,-6.2002,-6.2361,-6.2899,-6.2899,-6.2929,-6.2989,-6.2899,-6.2899,-6.2899,-6.2899,-6.2899,-6.2899,-6.2899,-6.2899,-6.2899,-6.2899,-6.2899,-6.2899,-6.2899,-6.2899,-6.2899,-6.2899,-6.2899,-6.2899,-6.2899,-6.2421,-6.1308,-5.9016,-5.9822,-6.0072,-5.7744,-5.7398,-5.7684,-5.8529,-5.7382,-5.645,-5.6593,-5.7185,-5.7104,-5.5868,-5.5152,-5.4665,-5.4333,-5.4451,-5.4509,-5.4355,-5.4509,-5.4509,-5.4355,-5.3724,-5.3363,-5.3363,-5.4127,-5.378,-5.2396,-5.3892,-5.3865,-5.2506,-5.2621,-5.1929,-5.0545,-5.0366,-4.949,-4.8094,-4.797,-4.7908,-4.7908,-4.7908,-4.7908,-4.7908,-4.7908,-4.7908,-4.7883,-5.7633,-5.8022,-5.8411,-5.883,-5.9668,-6.0296,-6.0296,-6.0775,-6.1074,-6.0924,-6.0775,-6.0805,-6.1074,-6.1104,-6.1104,-6.1104,-6.1104,-6.1104,-6.1104,-6.1104,-6.1104,-6.1104,-6.0835,-6.0715,-6.0715,-6.0027,-5.9697,-5.9697,-5.9308,-5.8979,-5.871,-5.8979,-5.9308,-5.9697,-5.9697,-6.0057,-6.0715,-6.0715,-6.1104,-6.1702,-6.1702,-6.2091,-6.269,-6.269,-6.2839,-6.3079,-6.3079,-6.3079,-6.3079,-6.3079,-6.3079,-6.3079,-6.3079,-6.3079,-6.3079,-6.3079,-6.3079,-6.3079,-6.3079,-6.3079,-6.3079,-6.3079,-6.3079,-6.3079,-6.3079,-6.3079,-6.3079,-6.3079,-6.2869,-6.2279,-6.0992,-6.1275,-6.1294,-5.9959,-5.9728,-5.9717,-5.9732,-5.9143,-5.8578,-5.8195,-5.8451,-5.8494,-5.7837,-5.7193,-5.6809,-5.6809,-5.5688,-5.4599,-5.3761,-5.4546,-5.414,-5.2352,-5.3715,-5.4049,-5.3051,-5.5126,-5.5638,-5.4544,-5.61,-5.6249,-5.514,-5.6099,-5.5678,-5.4049,-5.2158,-5.0935,-5.0281,-4.933,-4.8912,-4.8912,-4.8912,-4.8912,-4.8912,-4.8912,-4.8912,-4.8912,-5.8919,-5.9368,-5.9847,-6.0296,-6.0954,-6.1403,-6.1403,-6.1553,-6.1852,-6.2331,-6.1972,-6.1702,-6.1702,-6.1702,-6.1702,-6.1702,-6.1702,-6.1702,-6.1702,-6.1702,-6.1702,-6.1702,-6.1493,-6.1403,-6.1403,-6.0745,-6.0386,-6.0386,-5.9937,-5.9608,-5.9398,-5.9398,-5.9757,-6.0386,-6.0386,-6.0775,-6.1403,-6.1403,-6.1792,-6.2391,-6.2391,-6.266,-6.3079,-6.3079,-6.3079,-6.3079,-6.3079,-6.3079,-6.3079,-6.3079,-6.3079,-6.3079,-6.3079,-6.3079,-6.3079,-6.3079,-6.3079,-6.3079,-6.3079,-6.3079,-6.3079,-6.3079,-6.3079,-6.3079,-6.3079,-6.3079,-6.3079,-6.3079,-6.3079,-6.2929,-6.248,-6.2391,-6.2181,-6.1493,-6.1403,-6.1164,-6.0475,-6.0206,-5.9907,-5.9458,-5.9219,-5.9099,-5.9099,-5.868,-5.8411,-5.8411,-5.6991,-5.5513,-5.4033,-5.4999,-5.4531,-5.2363,-5.4621,-5.5288,-5.4148,-5.6471,-5.7339,-5.6715,-5.7813,-5.8051,-5.744,-5.8081,-5.7804,-5.6537,-5.3882,-5.27,-5.2639,-5.1455,-5.0727,-5.0308,-5.0308,-5.0308,-5.0308,-5.0308,-5.0308,-5.0308,-6.1074,-6.1074,-6.1104,-6.1104,-6.1642,-6.2091,-6.2091,-6.263,-6.3049,-6.3079,-6.3049,-6.3049,-6.3049,-6.3049,-6.3049,-6.3049,-6.3049,-6.3049,-6.3049,-6.3049,-6.3049,-6.3049,-6.2421,-6.2091,-6.2091,-6.1433,-6.1104,-6.1104,-6.1104,-6.0745,-6.0086,-6.0086,-6.0446,-6.1104,-6.1104,-6.1463,-6.2091,-6.2091,-6.245,-6.3079,-6.3079,-6.3079,-6.3079,-6.3079,-6.3079,-6.3079,-6.3079,-6.3079,-6.3079,-6.3079,-6.3079,-6.3079,-6.3079,-6.3079,-6.3079,-6.3079,-6.3079,-6.3079,-6.3079,-6.3079,-6.3079,-6.3079,-6.3079,-6.3079,-6.3079,-6.3079,-6.3079,-6.3079,-6.3079,-6.3079,-6.3079,-6.3079,-6.2839,-6.2181,-6.2091,-6.1852,-6.1194,-6.0505,-6.0086,-6.0086,-5.9488,-5.9099,-5.9099,-5.9099,-5.9099,-5.9099,-5.9069,-5.8447,-5.7102,-5.7042,-5.7042,-5.7042,-5.77,-5.8058,-5.8058,-5.874,-5.9069,-5.9045,-5.9099,-5.9099,-5.9045,-5.744,-5.6736,-5.6593,-5.5035,-5.4327,-5.4327,-5.4327,-5.3429,-5.1989,-5.1989,-5.1989,-5.1989,-5.1989,-5.1989,-5.1989,-6.1104,-6.1463,-6.1792,-6.1792,-6.2331,-6.278,-6.278,-6.2929,-6.3079,-6.3079,-6.3079,-6.3079,-6.3079,-6.3079,-6.3079,-6.3079,-6.3079,-6.3079,-6.3079,-6.3079,-6.3079,-6.3079,-6.2869,-6.278,-6.278,-6.2121,-6.1792,-6.1792,-6.1343,-6.1014,-6.0775,-6.0775,-6.1134,-6.1792,-6.1792,-6.2151,-6.278,-6.278,-6.2869,-6.3079,-6.3079,-6.3079,-6.3079,-6.3079,-6.3079,-6.3079,-6.3079,-6.3079,-6.3079,-6.3079,-6.3079,-6.3079,-6.3079,-6.3079,-6.3079,-6.3079,-6.3079,-6.3079,-6.3079,-6.3079,-6.3079,-6.3079,-6.3079,-6.3079,-6.3079,-6.3079,-6.3079,-6.3079,-6.3079,-6.3079,-6.3079,-6.3079,-6.3019,-6.281,-6.278,-6.254,-6.1882,-6.1583,-6.1104,-6.0206,-5.9907,-5.9608,-5.9159,-5.9099,-5.9099,-5.9099,-5.9099,-5.8919,-5.8501,-5.8471,-5.7927,-5.6884,-5.808,-5.8253,-5.7149,-5.8461,-5.9099,-5.9099,-5.9099,-5.9099,-5.9045,-5.744,-5.7328,-5.8221,-5.5588,-5.4976,-5.5907,-5.48,-5.4089,-5.361,-5.361,-5.361,-5.361,-5.361,-5.361,-5.361,-6.1852,-6.2181,-6.248,-6.248,-6.281,-6.3079,-6.3079,-6.3079,-6.3079,-6.3079,-6.3079,-6.3079,-6.3079,-6.3079,-6.3079,-6.3079,-6.3079,-6.3079,-6.3079,-6.3079,-6.3079,-6.3079,-6.3079,-6.3079,-6.3079,-6.266,-6.248,-6.248,-6.2061,-6.1852,-6.1852,-6.1852,-6.2061,-6.248,-6.248,-6.269,-6.3079,-6.3079,-6.3079,-6.3079,-6.3079,-6.3079,-6.3079,-6.3079,-6.3079,-6.3079,-6.3079,-6.3079,-6.3079,-6.3079,-6.3079,-6.3079,-6.3079,-6.3079,-6.3079,-6.3079,-6.3079,-6.3079,-6.3079,-6.3079,-6.3079,-6.3079,-6.3079,-6.3079,-6.3079,-6.3079,-6.3079,-6.3079,-6.3079,-6.3079,-6.3079,-6.3079,-6.3079,-6.3079,-6.3079,-6.2929,-6.251,-6.2241,-6.1792,-6.0924,-6.0625,-6.0206,-5.9548,-5.9488,-5.9368,-5.9129,-5.9099,-5.9099,-5.9099,-5.9099,-5.8634,-5.7608,-5.858,-5.8634,-5.7608,-5.8634,-5.9099,-5.9099,-5.9099,-5.9099,-5.9045,-5.8026,-5.8136,-5.8991,-5.7047,-5.6679,-5.7496,-5.6565,-5.5791,-5.5269,-5.5269,-5.5269,-5.5269,-5.5269,-5.5269,-5.5269,-6.3079,-6.3079,-6.3079,-6.3139,-6.3139,-6.3169,-6.3199,-6.3199,-6.3199,-6.3199,-6.3199,-6.3199,-6.3199,-6.3199,-6.3199,-6.3139,-6.3109,-6.3079,-6.3079,-6.3079,-6.3079,-6.3079,-6.3079,-6.3079,-6.3079,-6.3079,-6.3079,-6.3079,-6.3079,-6.3079,-6.3079,-6.3079,-6.3079,-6.3079,-6.3079,-6.3079,-6.3079,-6.3079,-6.3079,-6.3079,-6.3079,-6.3079,-6.3079,-6.3079,-6.3079,-6.3079,-6.3079,-6.3079,-6.3079,-6.3079,-6.3079,-6.3079,-6.3079,-6.3079,-6.3079,-6.3079,-6.3079,-6.3079,-6.3079,-6.3079,-6.3079,-6.3079,-6.3079,-6.3079,-6.3079,-6.3079,-6.3079,-6.3079,-6.3079,-6.3079,-6.3079,-6.3079,-6.3079,-6.3079,-6.3079,-6.3079,-6.3079,-6.254,-6.2151,-6.2091,-6.1553,-6.0924,-6.0206,-6.0116,-5.9817,-5.9219,-5.9129,-5.9099,-5.9099,-5.9099,-5.9099,-5.9099,-5.9099,-5.9099,-5.9099,-5.9099,-5.9099,-5.9099,-5.9099,-5.9099,-5.9099,-5.9099,-5.9099,-5.9099,-5.9099,-5.9099,-5.9099,-5.9099,-5.8221,-5.6849,-5.6849,-5.6849,-5.6849,-5.6849,-5.6849,-5.6849,-6.3079,-6.3079,-6.3228,-6.3707,-6.3767,-6.3947,-6.4485,-6.4575,-6.4575,-6.4575,-6.4575,-6.4575,-6.4575,-6.4575,-6.4366,-6.3827,-6.3348,-6.3079,-6.3079,-6.3079,-6.3079,-6.3079,-6.3079,-6.3079,-6.3079,-6.3079,-6.3079,-6.3079,-6.3079,-6.3079,-6.3079,-6.3079,-6.3079,-6.3079,-6.3079,-6.3079,-6.3079,-6.3079,-6.3079,-6.3079,-6.3079,-6.3079,-6.3079,-6.3079,-6.3079,-6.3079,-6.3079,-6.3079,-6.3079,-6.3079,-6.3079,-6.3079,-6.3079,-6.3079,-6.3079,-6.3079,-6.3079,-6.3079,-6.3079,-6.3079,-6.3079,-6.3079,-6.3079,-6.3079,-6.3079,-6.3079,-6.3079,-6.3079,-6.3079,-6.3079,-6.3079,-6.3079,-6.3079,-6.3079,-6.3079,-6.3079,-6.3079,-6.2929,-6.266,-6.2151,-6.1972,-6.1613,-6.0924,-6.0386,-6.0027,-5.9877,-5.9398,-5.9099,-5.9099,-5.9099,-5.9099,-5.9099,-5.9099,-5.9099,-5.9099,-5.9099,-5.9099,-5.9099,-5.9099,-5.9099,-5.9099,-5.9099,-5.9099,-5.9099,-5.9099,-5.9099,-5.9099,-5.9099,-5.8882,-5.8495,-5.8495,-5.8495,-5.8495,-5.8495,-5.8495,-5.8495,-6.3438,-6.3498,-6.3707,-6.4366,-6.4485,-6.4605,-6.4964,-6.5024,-6.5024,-6.5024,-6.5024,-6.5024,-6.5024,-6.5024,-6.4874,-6.4515,-6.3887,-6.3378,-6.3109,-6.3079,-6.3079,-6.3079,-6.3079,-6.3079,-6.3079,-6.3079,-6.3079,-6.3079,-6.3079,-6.3079,-6.3079,-6.3079,-6.3079,-6.3079,-6.3079,-6.3079,-6.3079,-6.3079,-6.3079,-6.3079,-6.3079,-6.3079,-6.3079,-6.3079,-6.3079,-6.3079,-6.3079,-6.3079,-6.3079,-6.3079,-6.3079,-6.3079,-6.3079,-6.3079,-6.3079,-6.3079,-6.3079,-6.3079,-6.3079,-6.3079,-6.3079,-6.3079,-6.3079,-6.3079,-6.3079,-6.3079,-6.3079,-6.3079,-6.3079,-6.3079,-6.3079,-6.3079,-6.3079,-6.3079,-6.3079,-6.3079,-6.3079,-6.3079,-6.2929,-6.26,-6.254,-6.2271,-6.1613,-6.1224,-6.0894,-6.0565,-6.0236,-5.9877,-5.9578,-5.9548,-5.9428,-5.9129,-5.9099,-5.9099,-5.9099,-5.9099,-5.9099,-5.9099,-5.9099,-5.9099,-5.9099,-5.9099,-5.9099,-5.9099,-5.9099,-5.9099,-5.9099,-5.9099,-5.9099,-5.9099,-5.9099,-5.9099,-5.9099,-5.9099,-5.9099,-5.9099,-6.3887,-6.4066,-6.4366,-6.5054,-6.5173,-6.5203,-6.5323,-6.5323,-6.5323,-6.5323,-6.5323,-6.5323,-6.5323,-6.5323,-6.5293,-6.5173,-6.4635,-6.4006,-6.3258,-6.3228,-6.3169,-6.3079,-6.3079,-6.3079,-6.3079,-6.3079,-6.3079,-6.3079,-6.3079,-6.3079,-6.3079,-6.3079,-6.3079,-6.3079,-6.3079,-6.3079,-6.3079,-6.3079,-6.3079,-6.3079,-6.3079,-6.3079,-6.3079,-6.3079,-6.3079,-6.3079,-6.3079,-6.3079,-6.3079,-6.3079,-6.3079,-6.3079,-6.3079,-6.3079,-6.3079,-6.3079,-6.3079,-6.3079,-6.3079,-6.3079,-6.3079,-6.3079,-6.3079,-6.3079,-6.3079,-6.3079,-6.3079,-6.3079,-6.3079,-6.3079,-6.3079,-6.3079,-6.3079,-6.3079,-6.3079,-6.3079,-6.3079,-6.3079,-6.3079,-6.3079,-6.3079,-6.2869,-6.2301,-6.2151,-6.1852,-6.1313,-6.1164,-6.0864,-6.0266,-6.0236,-5.9997,-5.9428,-5.9219,-5.9099,-5.9099,-5.9099,-5.9099,-5.9099,-5.9099,-5.9099,-5.9099,-5.9099,-5.9099,-5.9099,-5.9099,-5.9099,-5.9099,-5.9099,-5.9099,-5.9099,-5.9099,-5.9099,-5.9099,-5.9099,-5.9099,-5.9099,-6.3977,-6.4485,-6.5084,-6.5742,-6.5862,-6.6041,-6.661,-6.67,-6.67,-6.67,-6.67,-6.67,-6.67,-6.67,-6.646,-6.5892,-6.5772,-6.5173,-6.3947,-6.3857,-6.3617,-6.3109,-6.3079,-6.3079,-6.3079,-6.3079,-6.3079,-6.3079,-6.3079,-6.3079,-6.3079,-6.3079,-6.3079,-6.3079,-6.3079,-6.3079,-6.3079,-6.3079,-6.3079,-6.3079,-6.3079,-6.3079,-6.3079,-6.3079,-6.3079,-6.3079,-6.3079,-6.3079,-6.3079,-6.3079,-6.3079,-6.3079,-6.3079,-6.3079,-6.3079,-6.3079,-6.3079,-6.3079,-6.3079,-6.3079,-6.3079,-6.3079,-6.3079,-6.3079,-6.3079,-6.3079,-6.3079,-6.3079,-6.3079,-6.3079,-6.3079,-6.3079,-6.3079,-6.3079,-6.3079,-6.3079,-6.3079,-6.3079,-6.3079,-6.3079,-6.3079,-6.3049,-6.2929,-6.2421,-6.2061,-6.1942,-6.1433,-6.1074,-6.0954,-6.0954,-6.0894,-6.0805,-5.9697,-5.9099,-5.9099,-5.9099,-5.9099,-5.9099,-5.9099,-5.9099,-5.9099,-5.9099,-5.9099,-5.9099,-5.9099,-5.9099,-5.9099,-5.9099,-5.9099,-5.9099,-5.9099,-5.9099,-5.9099,-5.9099,-5.9099,-5.9099,-6.5024,-6.5353,-6.5772,-6.643,-6.655,-6.664,-6.6939,-6.6999,-6.6999,-6.6999,-6.6999,-6.6999,-6.6999,-6.6999,-6.6879,-6.658,-6.655,-6.6131,-6.5144,-6.4755,-6.4425,-6.4156,-6.3767,-6.3408,-6.3079,-6.3079,-6.3079,-6.3079,-6.3079,-6.3079,-6.3079,-6.3079,-6.3079,-6.3079,-6.3079,-6.3079,-6.3079,-6.3079,-6.3079,-6.3079,-6.3079,-6.3079,-6.3079,-6.3079,-6.3079,-6.3079,-6.3079,-6.3079,-6.3079,-6.3079,-6.3079,-6.3079,-6.3079,-6.3079,-6.3079,-6.3079,-6.3079,-6.3079,-6.3079,-6.3079,-6.3079,-6.3079,-6.3079,-6.3079,-6.3079,-6.3079,-6.3079,-6.3079,-6.3079,-6.3079,-6.3079,-6.3079,-6.3079,-6.3079,-6.3079,-6.3079,-6.3079,-6.3079,-6.3079,-6.3079,-6.3079,-6.3079,-6.3079,-6.281,-6.263,-6.263,-6.2331,-6.2032,-6.1672,-6.1642,-6.1493,-6.1134,-6.0505,-6.0176,-6.0176,-6.0176,-5.9997,-5.9638,-5.9638,-5.9458,-5.9099,-5.9099,-5.9099,-5.9099,-5.9099,-5.9099,-5.9099,-5.9099,-5.9099,-5.9099,-5.9099,-5.9099,-5.9099,-5.9099,-5.9099,-5.9099,-6.5922,-6.6131,-6.64,-6.6909,-6.6999,-6.6999,-6.6999,-6.6999,-6.6999,-6.6999,-6.6999,-6.6999,-6.6999,-6.6999,-6.6999,-6.6999,-6.6999,-6.6789,-6.6281,-6.5772,-6.5353,-6.5054,-6.4515,-6.3947,-6.3318,-6.3288,-6.3228,-6.3079,-6.3079,-6.3079,-6.3079,-6.3079,-6.3079,-6.3079,-6.3079,-6.3079,-6.3079,-6.3079,-6.3079,-6.3079,-6.3079,-6.3079,-6.3079,-6.3079,-6.3079,-6.3079,-6.3079,-6.3079,-6.3079,-6.3079,-6.3079,-6.3079,-6.3079,-6.3079,-6.3079,-6.3079,-6.3079,-6.3079,-6.3079,-6.3079,-6.3079,-6.3079,-6.3079,-6.3079,-6.3079,-6.3079,-6.3079,-6.3079,-6.3079,-6.3079,-6.3079,-6.3079,-6.3079,-6.3079,-6.3079,-6.3079,-6.3079,-6.3079,-6.3079,-6.3079,-6.3079,-6.3079,-6.3079,-6.3079,-6.3079,-6.3079,-6.3079,-6.2869,-6.2361,-6.2331,-6.2091,-6.1583,-6.1283,-6.1104,-6.1104,-6.1104,-6.0835,-6.0326,-6.0326,-6.0057,-5.9578,-5.9578,-5.9488,-5.9338,-5.9338,-5.9249,-5.9099,-5.9099,-5.9099,-5.9099,-5.9099,-5.9099,-5.9099,-5.9099,-5.9099,-5.9099,-6.6011,-6.649,-6.6939,-6.6969,-6.6999,-6.6999,-6.6999,-6.6999,-6.6999,-6.6999,-6.6999,-6.6999,-6.6999,-6.6999,-6.6999,-6.6999,-6.6999,-6.6969,-6.6909,-6.6879,-6.6311,-6.5084,-6.4934,-6.4635,-6.3947,-6.3917,-6.3647,-6.3079,-6.3079,-6.3079,-6.3079,-6.3079,-6.3079,-6.3079,-6.3079,-6.3079,-6.3079,-6.3079,-6.3079,-6.3079,-6.3079,-6.3079,-6.3079,-6.3079,-6.3079,-6.3079,-6.3079,-6.3079,-6.3079,-6.3079,-6.3079,-6.3079,-6.3079,-6.3079,-6.3079,-6.3079,-6.3079,-6.3079,-6.3079,-6.3079,-6.3079,-6.3079,-6.3079,-6.3079,-6.3079,-6.3079,-6.3079,-6.3079,-6.3079,-6.3079,-6.3079,-6.3079,-6.3079,-6.3079,-6.3079,-6.3079,-6.3079,-6.3079,-6.3079,-6.3079,-6.3079,-6.3079,-6.3079,-6.3079,-6.3079,-6.3079,-6.3079,-6.3049,-6.3019,-6.3019,-6.2989,-6.2929,-6.1762,-6.1104,-6.1104,-6.1104,-6.1104,-6.1044,-6.1044,-6.1014,-6.0954,-6.0954,-6.0625,-6.0027,-6.0027,-5.9668,-5.9099,-5.9099,-5.9099,-5.9099,-5.9099,-5.9099,-5.9099,-5.9099,-5.9099,-5.9099,-6.661,-6.6819,-6.6999,-6.6999,-6.6999,-6.6999,-6.6999,-6.6999,-6.6999,-6.6999,-6.6999,-6.6999,-6.6999,-6.6999,-6.6999,-6.6999,-6.6999,-6.6999,-6.6999,-6.6999,-6.658,-6.5682,-6.5652,-6.5114,-6.4006,-6.4006,-6.3707,-6.3079,-6.3079,-6.3079,-6.3079,-6.3079,-6.3079,-6.3079,-6.3079,-6.3079,-6.3079,-6.3079,-6.3079,-6.3079,-6.3079,-6.3079,-6.3079,-6.3079,-6.3079,-6.3079,-6.3079,-6.3079,-6.3079,-6.3079,-6.3079,-6.3079,-6.3079,-6.3079,-6.3079,-6.3079,-6.3079,-6.3079,-6.3079,-6.3079,-6.3079,-6.3079,-6.3079,-6.3079,-6.3079,-6.3079,-6.3079,-6.3079,-6.3079,-6.3079,-6.3079,-6.3079,-6.3079,-6.3079,-6.3079,-6.3079,-6.3079,-6.3079,-6.3079,-6.3079,-6.3079,-6.3079,-6.3079,-6.3079,-6.3079,-6.3079,-6.3079,-6.3079,-6.3079,-6.3079,-6.3079,-6.3079,-6.26,-6.2331,-6.2331,-6.2331,-6.2121,-6.1732,-6.1732,-6.1493,-6.1104,-6.1104,-6.0954,-6.0715,-6.0715,-6.0595,-6.0326,-5.9877,-5.9727,-5.9668,-5.9249,-5.9099,-5.9099,-5.9099,-5.9099,-5.9099,-6.6999,-6.6999,-6.6999,-6.6999,-6.6999,-6.6999,-6.6999,-6.6999,-6.6999,-6.6999,-6.6999,-6.6999,-6.6999,-6.6999,-6.6999,-6.6999,-6.6819,-6.67,-6.67,-6.649,-6.6251,-6.6011,-6.6011,-6.5383,-6.4036,-6.4006,-6.3707,-6.3079,-6.3079,-6.3079,-6.3079,-6.3079,-6.3079,-6.3079,-6.3079,-6.3079,-6.3079,-6.3079,-6.3079,-6.3079,-6.3079,-6.3079,-6.3079,-6.3079,-6.3079,-6.3079,-6.3079,-6.3079,-6.3079,-6.3079,-6.3079,-6.3079,-6.3079,-6.3079,-6.3079,-6.3079,-6.3079,-6.3079,-6.3079,-6.3079,-6.3079,-6.3079,-6.3079,-6.3079,-6.3079,-6.3079,-6.3079,-6.3079,-6.3079,-6.3079,-6.3079,-6.3079,-6.3079,-6.3079,-6.3079,-6.3079,-6.3079,-6.3079,-6.3079,-6.3079,-6.3079,-6.3079,-6.3079,-6.3079,-6.3079,-6.3079,-6.3079,-6.3079,-6.3079,-6.3079,-6.3079,-6.3079,-6.3079,-6.3079,-6.3079,-6.3079,-6.2839,-6.2391,-6.2391,-6.2181,-6.1732,-6.1732,-6.1613,-6.1433,-6.1433,-6.1313,-6.1074,-6.0595,-6.0416,-6.0356,-5.9668,-5.9398,-5.9398,-5.9189,-5.9099,-5.9099,-6.6999,-6.6999,-6.6999,-6.6999,-6.6999,-6.6999,-6.6999,-6.6999,-6.6999,-6.6999,-6.6999,-6.6999,-6.6969,-6.6969,-6.6969,-6.6969,-6.637,-6.6011,-6.6011,-6.5383,-6.5323,-6.5951,-6.6011,-6.5383,-6.4036,-6.4006,-6.3707,-6.3079,-6.3079,-6.3079,-6.3079,-6.3079,-6.3079,-6.3079,-6.3079,-6.3079,-6.3079,-6.3079,-6.3079,-6.3079,-6.3079,-6.3079,-6.3079,-6.3079,-6.3079,-6.3079,-6.3079,-6.3079,-6.3079,-6.3079,-6.3079,-6.3079,-6.3079,-6.3079,-6.3079,-6.3079,-6.3079,-6.3079,-6.3079,-6.3079,-6.3079,-6.3079,-6.3079,-6.3079,-6.3079,-6.3079,-6.3079,-6.3079,-6.3079,-6.3079,-6.3079,-6.3079,-6.3079,-6.3079,-6.3079,-6.3079,-6.3079,-6.3079,-6.3079,-6.3079,-6.3079,-6.3079,-6.3079,-6.3079,-6.3079,-6.3079,-6.3079,-6.3079,-6.3079,-6.3079,-6.3079,-6.3079,-6.3079,-6.3079,-6.3079,-6.3079,-6.3079,-6.3079,-6.3079,-6.3079,-6.3079,-6.3079,-6.272,-6.2121,-6.2121,-6.1732,-6.1134,-6.1134,-6.1134,-6.1044,-6.0356,-6.0086,-5.9997,-5.9338,-5.9099,-5.9099,-6.6999,-6.6999,-6.6999,-6.6999,-6.6999,-6.6999,-6.6999,-6.6999,-6.6999,-6.6999,-6.6999,-6.6819,-6.634,-6.6311,-6.6131,-6.5652,-6.5443,-6.5323,-6.5323,-6.5144,-6.4904,-6.4605,-6.5054,-6.4904,-6.4006,-6.4006,-6.3707,-6.3079,-6.3079,-6.3079,-6.3079,-6.3079,-6.3079,-6.3079,-6.3079,-6.3079,-6.3079,-6.3079,-6.3079,-6.3079,-6.3079,-6.3079,-6.3079,-6.3079,-6.3079,-6.3079,-6.3079,-6.3079,-6.3079,-6.3079,-6.3079,-6.3079,-6.3079,-6.3079,-6.3079,-6.3079,-6.3079,-6.3079,-6.3079,-6.3079,-6.3079,-6.3079,-6.3079,-6.3079,-6.3079,-6.3079,-6.3079,-6.3079,-6.3079,-6.3079,-6.3079,-6.3079,-6.3079,-6.3079,-6.3079,-6.3079,-6.3079,-6.3079,-6.3079,-6.3079,-6.3079,-6.3079,-6.3079,-6.3079,-6.3079,-6.3079,-6.3079,-6.3079,-6.3079,-6.3079,-6.3079,-6.3079,-6.3079,-6.3079,-6.3079,-6.3079,-6.3079,-6.3079,-6.3079,-6.3079,-6.3079,-6.3079,-6.2959,-6.278,-6.278,-6.266,-6.245,-6.2002,-6.1792,-6.1732,-6.1074,-6.0505,-6.0057,-5.9877,-5.9488,-5.9099,-6.6702,-6.661,-6.652,-6.6251,-6.6221,-6.6221,-6.6221,-6.6221,-6.6221,-6.6221,-6.6221,-6.6071,-6.5652,-6.5622,-6.5473,-6.5054,-6.4784,-6.4515,-6.4276,-6.4246,-6.4066,-6.3647,-6.4036,-6.4066,-6.3647,-6.3617,-6.3438,-6.3079,-6.3079,-6.3079,-6.3079,-6.3079,-6.3079,-6.3079,-6.3079,-6.3079,-6.3079,-6.3079,-6.3079,-6.3079,-6.3079,-6.3079,-6.3079,-6.3079,-6.3079,-6.3079,-6.3079,-6.3079,-6.3079,-6.3079,-6.3079,-6.3079,-6.3079,-6.3079,-6.3079,-6.3079,-6.3079,-6.3079,-6.3079,-6.3079,-6.3079,-6.3079,-6.3079,-6.3079,-6.3079,-6.3079,-6.3079,-6.3079,-6.3079,-6.3079,-6.3079,-6.3079,-6.3079,-6.3079,-6.3079,-6.3079,-6.3079,-6.3079,-6.3079,-6.3079,-6.3079,-6.3079,-6.3079,-6.3079,-6.3079,-6.3079,-6.3079,-6.3079,-6.3079,-6.3079,-6.3079,-6.3079,-6.3079,-6.3079,-6.3079,-6.3079,-6.3079,-6.3079,-6.3079,-6.3079,-6.3079,-6.3079,-6.3079,-6.3079,-6.3079,-6.3079,-6.3049,-6.266,-6.248,-6.2421,-6.1762,-6.1253,-6.0805,-6.0296,-5.9817,-5.9458,-6.652,-6.6312,-6.6101,-6.544,-6.529,-6.5172,-6.5172,-6.5083,-6.5024,-6.5024,-6.5024,-6.4994,-6.4934,-6.4934,-6.4904,-6.4844,-6.4276,-6.3677,-6.3109,-6.3079,-6.3079,-6.3079,-6.3079,-6.3079,-6.3079,-6.3079,-6.3079,-6.3079,-6.3079,-6.3079,-6.3079,-6.3079,-6.3079,-6.3079,-6.3079,-6.3079,-6.3079,-6.3079,-6.3079,-6.3079,-6.3079,-6.3079,-6.3079,-6.3079,-6.3079,-6.3079,-6.3079,-6.3079,-6.3079,-6.3079,-6.3079,-6.3079,-6.3079,-6.3079,-6.3079,-6.3079,-6.3079,-6.3079,-6.3079,-6.3079,-6.3079,-6.3079,-6.3079,-6.3079,-6.3079,-6.3079,-6.3079,-6.3079,-6.3079,-6.3079,-6.3079,-6.3079,-6.3079,-6.3079,-6.3079,-6.3079,-6.3079,-6.3079,-6.3079,-6.3079,-6.3079,-6.3079,-6.3079,-6.3079,-6.3079,-6.3079,-6.3079,-6.3079,-6.3079,-6.3079,-6.3079,-6.3079,-6.3079,-6.3079,-6.3079,-6.3079,-6.3079,-6.3079,-6.3079,-6.3079,-6.3079,-6.3079,-6.3079,-6.3079,-6.3079,-6.3079,-6.3079,-6.3079,-6.3079,-6.3019,-6.2421,-6.2151,-6.1942,-6.0715,-6.0176,-5.9997,-6.8476,-6.8422,-6.8359,-6.8233,-6.7349,-6.6621,-6.6621,-6.573,-6.5024,-6.5024,-6.5024,-6.4814,-6.4276,-6.4216,-6.4036,-6.3528,-6.3378,-6.3228,-6.3079,-6.3079,-6.3079,-6.3079,-6.3079,-6.3079,-6.3079,-6.3079,-6.3079,-6.3079,-6.3079,-6.3079,-6.3079,-6.3079,-6.3079,-6.3079,-6.3079,-6.3079,-6.3079,-6.3079,-6.3079,-6.3079,-6.3079,-6.3079,-6.3079,-6.3079,-6.3079,-6.3079,-6.3079,-6.3079,-6.3079,-6.3079,-6.3079,-6.3079,-6.3079,-6.3079,-6.3079,-6.3079,-6.3079,-6.3079,-6.3079,-6.3079,-6.3079,-6.3079,-6.3079,-6.3079,-6.3079,-6.3079,-6.3079,-6.3079,-6.3079,-6.3079,-6.3079,-6.3079,-6.3079,-6.3079,-6.3079,-6.3079,-6.3079,-6.3079,-6.3079,-6.3079,-6.3079,-6.3079,-6.3079,-6.3079,-6.3079,-6.3079,-6.3079,-6.3079,-6.3079,-6.3079,-6.3079,-6.3079,-6.3079,-6.3079,-6.3079,-6.3079,-6.3079,-6.3079,-6.3079,-6.3079,-6.3079,-6.3079,-6.3079,-6.3079,-6.3079,-6.3079,-6.3079,-6.3079,-6.3079,-6.3079,-6.2929,-6.254,-6.2061,-6.1762,-6.0984,-5.9997,-6.8764,-6.8691,-6.8563,-6.8264,-6.7599,-6.7117,-6.7117,-6.6495,-6.6029,-6.6029,-6.6029,-6.5682,-6.4645,-6.4527,-6.4152,-6.3166,-6.3079,-6.3079,-6.3079,-6.3079,-6.3079,-6.3079,-6.3079,-6.3079,-6.3079,-6.3079,-6.3079,-6.3079,-6.3079,-6.3079,-6.3079,-6.3079,-6.3079,-6.3079,-6.3079,-6.3079,-6.3079,-6.3079,-6.3079,-6.3079,-6.3079,-6.3079,-6.3079,-6.3079,-6.3079,-6.3079,-6.3079,-6.3079,-6.3079,-6.3079,-6.3079,-6.3079,-6.3079,-6.3079,-6.3079,-6.3079,-6.3079,-6.3079,-6.3079,-6.3079,-6.3079,-6.3079,-6.3079,-6.3079,-6.3079,-6.3079,-6.3079,-6.3079,-6.3079,-6.3079,-6.3079,-6.3079,-6.3079,-6.3079,-6.3079,-6.3079,-6.3079,-6.3079,-6.3079,-6.3079,-6.3079,-6.3079,-6.3079,-6.3079,-6.3079,-6.3079,-6.3079,-6.3079,-6.3079,-6.3079,-6.3079,-6.3079,-6.3079,-6.3079,-6.3079,-6.3079,-6.3079,-6.3079,-6.3079,-6.3079,-6.3079,-6.3079,-6.3079,-6.3079,-6.3079,-6.3079,-6.3079,-6.3079,-6.3079,-6.3079,-6.3079,-6.2869,-6.254,-6.2211,-6.1253,-5.9997,-6.8964,-6.871,-6.8567,-6.8004,-6.7673,-6.7521,-6.7521,-6.7317,-6.7164,-6.7164,-6.7164,-6.6647,-6.5274,-6.4923,-6.429,-6.3194,-6.3079,-6.3079,-6.3079,-6.3079,-6.3079,-6.3079,-6.3079,-6.3079,-6.3079,-6.3079,-6.3079,-6.3079,-6.3079,-6.3079,-6.3079,-6.3079,-6.3079,-6.3079,-6.3079,-6.3079,-6.3079,-6.3079,-6.3079,-6.3079,-6.3079,-6.3079,-6.3079,-6.3079,-6.3079,-6.3079,-6.3079,-6.3079,-6.3079,-6.3079,-6.3079,-6.3079,-6.3079,-6.3079,-6.3079,-6.3079,-6.3079,-6.3079,-6.3079,-6.3079,-6.3079,-6.3079,-6.3079,-6.3079,-6.3079,-6.3079,-6.3079,-6.3079,-6.3079,-6.3079,-6.3079,-6.3079,-6.3079,-6.3079,-6.3079,-6.3079,-6.3079,-6.3079,-6.3079,-6.3079,-6.3079,-6.3079,-6.3079,-6.3079,-6.3079,-6.3079,-6.3079,-6.3079,-6.3079,-6.3079,-6.3079,-6.3079,-6.3079,-6.3079,-6.3079,-6.3079,-6.3079,-6.3079,-6.3079,-6.3079,-6.3079,-6.3079,-6.3079,-6.3079,-6.3079,-6.3079,-6.3079,-6.3079,-6.3079,-6.3079,-6.3079,-6.3079,-6.2989,-6.2211,-6.1224,-6.0146,-7.0913,-7.0913,-7.088,-7.0779,-6.976,-6.8943,-6.8943,-6.7924,-6.7164,-6.7164,-6.7164,-6.6647,-6.5274,-6.404,-6.3279,-6.3137,-6.3079,-6.3079,-6.3079,-6.3079,-6.3079,-6.3079,-6.3079,-6.3079,-6.3079,-6.3079,-6.3079,-6.3079,-6.3079,-6.3079,-6.3079,-6.3079,-6.3079,-6.3079,-6.3079,-6.3079,-6.3079,-6.3079,-6.3079,-6.3079,-6.3079,-6.3079,-6.3079,-6.3079,-6.3079,-6.3079,-6.3079,-6.3079,-6.3079,-6.3079,-6.3079,-6.3079,-6.3079,-6.3079,-6.3079,-6.3079,-6.3079,-6.3079,-6.3079,-6.3079,-6.3079,-6.3079,-6.3079,-6.3079,-6.3079,-6.3079,-6.3079,-6.3079,-6.3079,-6.3079,-6.3079,-6.3079,-6.3079,-6.3079,-6.3079,-6.3079,-6.3079,-6.3079,-6.3079,-6.3079,-6.3079,-6.3079,-6.3079,-6.3079,-6.3079,-6.3079,-6.3079,-6.3079,-6.3079,-6.3079,-6.3079,-6.3079,-6.3079,-6.3079,-6.3079,-6.3079,-6.3079,-6.3079,-6.3079,-6.3079,-6.3079,-6.3079,-6.3079,-6.3079,-6.3079,-6.3079,-6.3079,-6.3079,-6.3079,-6.3079,-6.3079,-6.3079,-6.2929,-6.1702,-6.1134,-6.0805,-7.1312,-7.1312,-7.1312,-7.1312,-7.0791,-7.0356,-7.0356,-6.9855,-6.949,-6.949,-6.949,-6.8927,-6.7521,-6.6206,-6.5382,-6.5382,-6.4678,-6.4209,-6.4209,-6.3535,-6.3079,-6.3079,-6.3079,-6.3079,-6.3079,-6.3079,-6.3079,-6.3079,-6.3079,-6.3079,-6.3079,-6.3079,-6.3079,-6.3079,-6.3079,-6.3079,-6.3079,-6.3079,-6.3079,-6.3079,-6.3079,-6.3079,-6.3079,-6.3079,-6.3079,-6.3079,-6.3079,-6.3079,-6.3079,-6.3079,-6.3079,-6.3079,-6.3079,-6.3079,-6.3079,-6.3079,-6.3079,-6.3079,-6.3079,-6.3079,-6.3079,-6.3079,-6.3079,-6.3079,-6.3079,-6.3079,-6.3079,-6.3079,-6.3079,-6.3079,-6.3079,-6.3079,-6.3079,-6.3079,-6.3079,-6.3079,-6.3079,-6.3079,-6.3079,-6.3079,-6.3079,-6.3079,-6.3079,-6.3079,-6.3079,-6.3079,-6.3079,-6.3079,-6.3079,-6.3079,-6.3079,-6.3079,-6.3079,-6.3079,-6.3079,-6.3079,-6.3079,-6.3079,-6.3079,-6.3079,-6.3079,-6.3079,-6.3079,-6.3079,-6.3079,-6.3079,-6.3079,-6.3079,-6.3079,-6.3079,-6.3079,-6.3079,-6.2929,-6.1613,-6.1104,-6.0924]},{"header":{"parameterUnit":"m.s-1","parameterCategory":1,"la1":30.6,"la2":28.766,"lo1":-90.7593,"lo2":-88.6598,"dy":0.0162,"dx":0.0183,"nx":116,"ny":114,"refTime":"2023-06-15T00:00:00:Z","depth":0,"parameterNumber":3,"parameterNumberName":"V-component_of_WINDS"},"data":[0.0,0.0,0.0,0.0,0.0,0.0,0.0,0.0,0.0,0.0,0.0,0.0,0.0,0.0,0.0,0.0,0.0,0.0,0.0,0.0,0.0,0.0,0.0,0.0,0.0,0.0,0.0,0.0,0.0,0.0,0.0,0.0,0.0,0.0,0.0,0.0,0.0,0.0,0.0,0.0,0.0,0.0,0.0,0.0,0.0,0.0,0.0,0.0,0.0,0.0,0.0,0.0,0.0,0.0,0.0,0.0,0.0,0.0,0.0,0.0,0.0,0.0,0.0,0.0,0.0,0.0,0.0,0.0,0.0,0.0,0.0,0.0,0.0,0.0,0.0,0.0,0.0,0.0,0.0,0.0,0.0,0.0,0.0,0.0,0.0,0.0,0.0,0.0,0.0,0.0,0.0,0.0,0.0,0.0,0.0,0.0,0.0,0.0,0.0,0.0,0.0,0.0,0.0,0.0,0.0,0.0,0.0,0.0,0.0,0.0,0.0,0.0,0.0,0.0,0.0,0.0,0.0,0.0,0.0,0.0,0.0,0.0,0.0,0.0,0.0,0.0,0.0,0.0,0.0,0.0,0.0,0.0,0.0,0.0,0.0,0.0,0.0,0.0,0.0,0.0,0.0,0.0,0.0,0.0,0.0,0.0,0.0,0.0,0.0,0.0,0.0,0.0,0.0,0.0,0.0,0.0,0.0,0.0,0.0,0.0,0.0,0.0,0.0,0.0,0.0,0.0,0.0,0.0,0.0,0.0,0.0,0.0,0.0,0.0,0.0,0.0,0.0,0.0,0.0,0.0,0.0,0.0,0.0,0.0,0.0,0.0,0.0,0.0,0.0,0.0,0.0,0.0,0.0,0.0,0.0,0.0,0.0,0.0,0.0,0.0,0.0,0.0,0.0,0.0,0.0,0.0,0.0,0.0,0.0,0.0,0.0,0.0,0.0,0.0,0.0,0.0,0.0,0.0,0.0,0.0,0.0,0.0,0.0,0.0,0.0,0.0,0.0,0.0,0.0,0.0,0.0,0.0,0.0,0.0,0.0,0.0,0.0,0.0,0.0,0.0,0.0,0.0,0.0,0.0,0.0,0.0,0.0,0.0,0.0,0.0,0.0,0.0,0.0,0.0,0.0,0.0,0.0,0.0,0.0,0.0,0.0,0.0,0.0,0.0,0.0,0.0,0.0,0.0,0.0,0.0,0.0,0.0,0.0,0.0,0.0,0.0,0.0,0.0,0.0,0.0,0.0,0.0,0.0,0.0,0.0,0.0,0.0,0.0,0.0,0.0,0.0,0.0,0.0,0.0,0.0,0.0,0.0,0.0,0.0,0.0,0.0,0.0,0.0,0.0,0.0,0.0,0.0,0.0,0.0,0.0,0.0,0.0,0.0,0.0,0.0,0.0,0.0,0.0,0.0,0.0,0.0,0.0,0.0,0.0,0.0,0.0,0.0,0.0,0.0,0.0,0.0,0.0,0.0,0.0,0.0,0.0,0.0,0.0,0.0,0.0,0.0,0.0,0.0,0.0,0.0,0.0,0.0,0.0,0.0,0.0,0.0,0.0,0.0,0.0,0.0,0.0,0.0,0.0,0.0,0.0,0.0,0.0,0.0,0.0,0.0,0.0,0.0,0.0,0.0,0.0,0.0,0.0,0.0,0.0,0.0,0.0,0.0,0.0,0.0,0.0,0.0,0.0,0.0,0.0,0.0,0.0,0.0,0.0,0.0,0.0,0.0,0.0,0.0,0.0,0.0,0.0,0.0,0.0,0.0,0.0,0.0,0.0,0.0,0.0,0.0,0.0,0.0,0.0,0.0,0.0,0.0,0.0,0.0,0.0,0.0,0.0,0.0,0.0,0.0,0.0,0.0,0.0,0.0,0.0,0.0,0.0,0.0,0.0,0.0,0.0,0.0,0.0,0.0,0.0,0.0,0.0,0.0,0.0,0.0,0.0,0.0,0.0,0.0,0.0,0.0,0.0,0.0,0.0,0.0,0.0,0.0,0.0,0.0,0.0,0.0,0.0,0.0,0.0,0.0,0.0,0.0,0.0,0.0,0.0,0.0,0.0,0.0,0.0,0.0,0.0,0.0,0.0,0.0,0.0,0.0,0.0,0.0,0.0,0.0,0.0,0.0,0.0,0.0,0.0,0.0,0.0,0.0,0.0,0.0,0.0,0.0,0.0,0.0,0.0,0.0,0.0,0.0,0.0,0.0,0.0,0.0,0.0,0.0,0.0,0.0,0.0,0.0,0.0,0.0,0.0,0.0,0.0,0.0,0.0,0.0,0.0,0.0,0.0,0.0,0.0,0.0,0.0,0.0,0.0,0.0,0.0,0.0,0.0,0.0,0.0,0.0,0.0,0.0,0.0,0.0,0.0,0.0,0.0,0.0,0.0,0.0,0.0,0.0,0.0,0.0,0.0,0.0,0.0,0.0,0.0,0.0,0.0,0.0,0.0,0.0,0.0,0.0,0.0,0.0,0.0,0.0,0.0,0.0,0.0,0.0,0.0,0.0,0.0,0.0,0.0,0.0,0.0,0.0,0.0,0.0,0.0,0.0,0.0,0.0,0.0,0.0,0.0,0.0,0.0,0.0,0.0,0.0,0.0,0.0,0.0,0.0,0.0,0.0,0.0,0.0,0.0,0.0,0.0,0.0,0.0,0.0,0.0,0.0,0.0,0.0,0.0,0.0,0.0,0.0,0.0,0.0,0.0,0.0,0.0,0.0,0.0,0.0,0.0,0.0,0.0,0.0,0.0,0.0,0.0,0.0,0.0,0.0,0.0,0.0,0.0,0.0,0.0,0.0,0.0,0.0,0.0,0.0,0.0,0.0,0.0,0.0,0.0,0.0,0.0,0.0,0.0,0.0,0.0,0.0,0.0,0.0,0.0,0.0,0.0,0.0,0.0,0.0,0.0,0.0,0.0,0.0,0.0,0.0,0.0,0.0,0.0,0.0,0.0,0.0,0.0,0.0,0.0,0.0,0.0,0.0,0.0,0.0,0.0,0.0,0.0,0.0,0.0,0.0,0.0,0.0,0.0,0.0,0.0,0.0,0.0,0.0,0.0,0.0,0.0,0.0,0.0,0.0,0.0,0.0,0.0,0.0,0.0,0.0,0.0,0.0,0.0,0.0,0.0,0.0,0.0,0.0,0.0,0.0,0.0,0.0,0.0,0.0,0.0,0.0,0.0,0.0,0.0,0.0,0.0,0.0,0.0,0.0,0.0,0.0,0.0,0.0,0.0,0.0,0.0,0.0,0.0,0.0,0.0,0.0,0.0,0.0,0.0,0.0,0.0,0.0,0.0,0.0,0.0,0.0,0.0,0.0,0.0,0.0,0.0,0.0,0.0,0.0,0.0,0.0,0.0,0.0,0.0,0.0,0.0,0.0,0.0,0.0,0.0,0.0,0.0,0.0,0.0,0.0,0.0,0.0,0.0,0.0,0.0,0.0,0.0,0.0,0.0,0.0,0.0,0.0,0.0,0.0,0.0,0.0,0.0,0.0,0.0,0.0,0.0,0.0,0.0,0.0,0.0,0.0,0.0,0.0,0.0,0.0,0.0,0.0,0.0,0.0,0.0,0.0,0.0,0.0,0.0,0.0,0.0,0.0,0.0,0.0,0.0,0.0,0.0,0.0,0.0,0.0,0.0,0.0,0.0,0.0,0.0,0.0,0.0,0.0,0.0,0.0,0.0,0.0,0.0,0.0,0.0,0.0,0.0,0.0,0.0,0.0,0.0,0.0,0.0,0.0,0.0,0.0,0.0,0.0,0.0,0.0,0.0,0.0,0.0,0.0,0.0,0.0,0.0,0.0,0.0,0.0,0.0,0.0,0.0,0.0,0.0,0.0,0.0,0.0,0.0,0.0,0.0,0.0,0.0,0.0,0.0,0.0,0.0,0.0,0.0,0.0,0.0,0.0,0.0,0.0,0.0,0.0,0.0,0.0,0.0,0.0,0.0,0.0,0.0,0.0,0.0,0.0,0.0,0.0,0.0,0.0,0.0,0.0,0.0,0.0,0.0,0.0,0.0,0.0,0.0,0.0,0.0,0.0,0.0,0.0,0.0,0.0,0.0,0.0,0.0,0.0,0.0,0.0,0.0,0.0,0.0,0.0,0.0,0.0,0.0,0.0,0.0,0.0,0.0,0.0,0.0,0.0,0.0,0.0,0.0,0.0,0.0,0.0,0.0,0.0,0.0,0.0,0.0,0.0,0.0,0.0,0.0,0.0,0.0,0.0,0.0,0.0,0.0,0.0,0.0,0.0,0.0,0.0,0.0,0.0,0.0,0.0,0.0,0.0,0.0,0.0,0.0,0.0,0.0,0.0,0.0,0.0,0.0,0.0,0.0,0.0,0.0,0.0,0.0,0.0,0.0,0.0,0.0,0.0,0.0,0.0,0.0,0.0,0.0,0.0,0.0,0.0,0.0,0.0,0.0,0.0,0.0,0.0,0.0,0.0,0.0,0.0,0.0,0.0,0.0,0.0,0.0,0.0,0.0,0.0,0.0,0.0,0.0,0.0,0.0,0.0,0.0,0.0,0.0,0.0,0.0,0.0,0.0,0.0,0.0,0.0,0.0,0.0,0.0,0.0,0.0,0.0,0.0,0.0,0.0,0.0,0.0,0.0,0.0,0.0,0.0,0.0,0.0,0.0,0.0,0.0,0.0,0.0,0.0,0.0,0.0,0.0,0.0,0.0,0.0,0.0,0.0,0.0,0.0,0.0,0.0,0.0,0.0,0.0,0.0,0.0,0.0,0.0,0.0,0.0,0.0,0.0,0.0,0.0,0.0,0.0,0.0,0.0,0.0,0.0,0.0,0.0,0.0,0.0,0.0,0.0,0.0,0.0,0.0,0.0,0.0,0.0,0.0,0.0,0.0,0.0,0.0,0.0,0.0,0.0,0.0,0.0,0.0,0.0,0.0,0.0,0.0,0.0,0.0,0.0,0.0,0.0,0.0,0.0,0.0,0.0,0.0,0.0,0.0,0.0,0.0,0.0,0.0,0.0,0.0,0.0,0.0,0.0,0.0,0.0,0.0,0.0,0.0,0.0,0.0,0.0,0.0,0.0,0.0,0.0,0.0,0.0,0.0,0.0,0.0,0.0,0.0,0.0,0.0,0.0,0.0,0.0,0.0,0.0,0.0,0.0,0.0,0.0,0.0,0.0,0.0,0.0,0.0,0.0,0.0,0.0,0.0,0.0,0.0,0.0,0.0,0.0,0.0,0.0,0.0,0.0,0.0,0.0,0.0,0.0,0.0,0.0,0.0,0.0,0.0,0.0,0.0,0.0,0.0,0.0,0.0,0.0,0.0,0.0,0.0,0.0,0.0,0.0,0.0,0.0,0.0,0.0,0.0,0.0,0.0,0.0,0.0,0.0,0.0,0.0,0.0,0.0,0.0,0.0,0.0,0.0,0.0,0.0,0.0,0.0,0.0,0.0,0.0,0.0,0.0,0.0,0.0,0.0,0.0,0.0,0.0,0.0,0.0,0.0,0.0,0.0,0.0,0.0,0.0,0.0,0.0,0.0,0.0,0.0,0.0,0.0,0.0,0.0,0.0,0.0,0.0,0.0,0.0,0.0,0.0,0.0,0.0,0.0,0.0,0.0,0.0,0.0,0.0,0.0,0.0,0.0,0.0,0.0,0.0,0.0,0.0,0.0,0.0,0.0,0.0,0.0,0.0,0.0,0.0,0.0,0.0,0.0,0.0,0.0,0.0,0.0,0.0,0.0,0.0,0.0,0.0,0.0,0.0,0.0,0.0,0.0,0.0,0.0,0.0,0.0,0.0,0.0,0.0,0.0,0.0,0.0,0.0,0.0,0.0,0.0,0.0,0.0,0.0,0.0,0.0,0.0,0.0,0.0,0.0,0.0,0.0,0.0,0.0,0.0,0.0,0.0,0.0,0.0,0.0,0.0,0.0,0.0,0.0,0.0,0.0,0.0,0.0,0.0,0.0,0.0,0.0,0.0,0.0,0.0,0.0,0.0,0.0,0.0,0.0,0.0,0.0,0.0,0.0,0.0,0.0,0.0,0.0,0.0,0.0,0.0,0.0,0.0,0.0,0.0,0.0,0.0,0.0,0.0,0.0,0.0,0.0,0.0,0.0,-4.7606,-4.71,0.0,0.0,0.0,0.0,0.0,0.0,0.0,0.0,0.0,0.0,0.0,0.0,0.0,0.0,0.0,0.0,0.0,0.0,0.0,0.0,0.0,0.0,0.0,0.0,0.0,0.0,0.0,0.0,0.0,0.0,0.0,0.0,0.0,0.0,0.0,0.0,0.0,0.0,0.0,0.0,0.0,0.0,0.0,0.0,0.0,0.0,0.0,0.0,0.0,0.0,0.0,0.0,0.0,0.0,0.0,0.0,0.0,0.0,0.0,0.0,0.0,0.0,0.0,0.0,0.0,0.0,0.0,0.0,0.0,0.0,0.0,0.0,0.0,0.0,0.0,0.0,0.0,0.0,0.0,0.0,0.0,0.0,0.0,0.0,0.0,0.0,0.0,0.0,0.0,0.0,0.0,0.0,0.0,0.0,0.0,0.0,0.0,0.0,0.0,0.0,0.0,0.0,0.0,0.0,0.0,0.0,0.0,0.0,0.0,0.0,0.0,0.0,0.0,0.0,-4.852,-4.7967,0.0,0.0,0.0,0.0,0.0,0.0,0.0,0.0,0.0,0.0,0.0,0.0,0.0,0.0,0.0,0.0,0.0,0.0,0.0,0.0,0.0,0.0,0.0,0.0,0.0,0.0,0.0,0.0,0.0,0.0,0.0,0.0,0.0,0.0,0.0,0.0,0.0,0.0,0.0,0.0,0.0,0.0,0.0,0.0,0.0,0.0,0.0,0.0,0.0,0.0,0.0,0.0,0.0,0.0,0.0,0.0,0.0,0.0,0.0,0.0,0.0,0.0,0.0,0.0,0.0,0.0,0.0,0.0,0.0,0.0,0.0,0.0,0.0,0.0,0.0,0.0,0.0,0.0,0.0,0.0,0.0,0.0,0.0,0.0,0.0,0.0,0.0,0.0,0.0,0.0,0.0,0.0,0.0,0.0,0.0,0.0,0.0,0.0,0.0,0.0,0.0,0.0,0.0,0.0,0.0,0.0,0.0,0.0,-4.959,-4.9995,-5.1162,-4.9863,-4.9924,-5.0936,-4.9337,-4.8865,-4.9299,-4.9494,0.0,0.0,0.0,0.0,0.0,0.0,0.0,0.0,0.0,0.0,0.0,0.0,0.0,0.0,0.0,0.0,0.0,0.0,0.0,0.0,0.0,0.0,0.0,0.0,0.0,0.0,0.0,0.0,0.0,0.0,0.0,0.0,0.0,0.0,0.0,0.0,0.0,0.0,-4.286,-4.286,-4.286,-4.282,0.0,0.0,0.0,0.0,0.0,0.0,0.0,0.0,0.0,0.0,0.0,0.0,0.0,0.0,0.0,0.0,0.0,0.0,0.0,0.0,0.0,0.0,0.0,0.0,0.0,0.0,0.0,0.0,0.0,0.0,0.0,0.0,0.0,0.0,0.0,0.0,0.0,0.0,0.0,0.0,0.0,0.0,0.0,0.0,-4.5657,-4.6338,0.0,0.0,0.0,0.0,0.0,0.0,0.0,0.0,0.0,0.0,0.0,0.0,0.0,-4.95,-5.23,-5.0217,-5.0192,-5.2188,-5.024,-5.0358,-5.2235,-5.0227,-5.0152,-5.1611,-5.0427,0.0,-4.9389,-5.0327,0.0,0.0,0.0,0.0,0.0,0.0,0.0,0.0,0.0,0.0,0.0,0.0,0.0,0.0,0.0,0.0,0.0,0.0,0.0,0.0,0.0,0.0,0.0,0.0,0.0,0.0,0.0,0.0,0.0,0.0,0.0,0.0,0.0,0.0,0.0,0.0,-4.2361,-4.329,-4.329,-4.329,-4.329,-4.329,-4.278,-4.2548,-4.2589,-4.3061,0.0,0.0,0.0,0.0,0.0,0.0,0.0,0.0,0.0,0.0,0.0,0.0,0.0,0.0,0.0,0.0,0.0,0.0,0.0,0.0,0.0,0.0,0.0,0.0,0.0,0.0,0.0,0.0,0.0,0.0,0.0,0.0,0.0,0.0,0.0,0.0,0.0,0.0,0.0,-4.562,-4.6368,-4.6031,-4.685,-4.7015,0.0,0.0,0.0,0.0,0.0,0.0,0.0,0.0,0.0,-5.2234,-5.0642,-5.0923,-5.3343,-5.0999,-5.0587,-5.2167,-5.1585,-5.1814,-5.2701,-5.177,-5.1949,-5.2966,-5.2473,-5.197,-5.1456,-5.1198,-5.0804,-5.0361,0.0,0.0,0.0,0.0,-5.0361,-5.0361,0.0,0.0,0.0,0.0,0.0,0.0,0.0,0.0,0.0,0.0,0.0,0.0,0.0,0.0,0.0,-3.3111,0.0,0.0,0.0,0.0,0.0,0.0,0.0,0.0,0.0,0.0,0.0,0.0,-4.29,-4.329,-4.329,-4.329,-4.329,-4.329,-4.329,-4.329,-4.329,-4.329,-4.329,0.0,0.0,0.0,0.0,0.0,0.0,0.0,0.0,0.0,0.0,0.0,0.0,0.0,0.0,0.0,0.0,0.0,0.0,0.0,0.0,0.0,0.0,0.0,0.0,0.0,0.0,0.0,0.0,0.0,0.0,0.0,0.0,0.0,0.0,0.0,0.0,0.0,0.0,-4.6597,-4.6899,-4.6263,-4.7546,-4.8026,0.0,0.0,0.0,0.0,0.0,0.0,-5.1359,-5.2149,-5.3011,-5.3945,-5.2409,-5.2554,-5.4552,-5.2293,-5.1846,-5.3227,-5.3073,-5.3293,-5.384,-5.3248,-5.3239,-5.3699,-5.3699,-5.3493,-5.3163,-5.2429,-5.1991,-5.1708,-5.1708,-5.1708,-5.1708,-5.1708,-5.1708,-5.1708,0.0,0.0,0.0,0.0,0.0,0.0,0.0,0.0,0.0,0.0,0.0,0.0,0.0,0.0,-3.3111,-3.3111,-3.3111,-3.3111,0.0,0.0,0.0,0.0,0.0,0.0,0.0,0.0,0.0,-4.321,-4.325,-4.329,-4.329,-4.329,-4.329,-4.329,-4.329,-4.329,-4.329,-4.329,-4.329,-4.329,0.0,0.0,0.0,0.0,0.0,0.0,0.0,0.0,0.0,0.0,0.0,0.0,0.0,0.0,0.0,0.0,0.0,0.0,0.0,0.0,0.0,0.0,0.0,0.0,0.0,0.0,0.0,0.0,0.0,0.0,0.0,0.0,0.0,0.0,0.0,0.0,0.0,0.0,0.0,-4.8573,-4.9592,0.0,0.0,0.0,0.0,-5.1357,-5.2108,-5.205,-5.0974,-5.2,-5.2917,-5.3591,-5.351,-5.4317,-5.6072,-5.4525,-5.4861,-5.7099,-5.4466,-5.4344,-5.6431,-5.4187,-5.3181,-5.3211,-5.3211,-5.3241,-5.3271,-5.4296,-5.4077,-5.3084,-5.3084,-5.3084,-5.3084,-5.3084,-5.3084,-5.3084,0.0,0.0,0.0,0.0,0.0,0.0,0.0,0.0,0.0,0.0,0.0,0.0,0.0,-3.3111,-3.3111,-3.3111,-3.3111,-3.3386,-3.4079,0.0,0.0,0.0,0.0,0.0,0.0,0.0,0.0,-4.329,-4.329,-4.329,-4.329,-4.329,-4.329,-4.329,-4.329,-4.329,-4.329,-4.329,-4.329,-4.329,-4.329,-4.3559,0.0,0.0,0.0,0.0,0.0,0.0,0.0,0.0,0.0,0.0,0.0,0.0,0.0,0.0,0.0,0.0,0.0,0.0,0.0,0.0,0.0,0.0,0.0,0.0,0.0,0.0,0.0,0.0,0.0,0.0,0.0,0.0,0.0,0.0,0.0,0.0,0.0,-4.9522,-5.0998,0.0,-5.0258,-5.1972,-5.3177,-5.3177,-5.4505,-5.5127,-5.4716,-5.5521,-5.634,-5.7072,-5.5621,-5.5813,-5.7661,-5.4871,-5.4283,-5.5839,-5.4807,-5.4357,-5.4467,-5.4357,-5.4157,-5.3832,-5.3832,-5.4072,-5.4511,-5.4926,-5.4345,-5.3174,-5.3174,-5.3174,-5.3174,-5.3174,-5.3174,-5.3174,0.0,0.0,0.0,0.0,0.0,0.0,0.0,0.0,0.0,0.0,0.0,-3.3111,-3.3111,-3.3111,-3.3111,-3.3111,-3.3111,-3.3386,-3.4121,0.0,0.0,0.0,0.0,0.0,0.0,0.0,0.0,0.0,0.0,-4.329,-4.329,-4.329,-4.329,-4.329,-4.329,-4.3409,-4.3618,-4.3618,-4.3499,-4.3319,-4.3529,-4.3888,-4.4347,0.0,0.0,0.0,0.0,0.0,0.0,0.0,0.0,0.0,0.0,0.0,0.0,0.0,0.0,0.0,0.0,0.0,0.0,0.0,0.0,0.0,0.0,0.0,0.0,0.0,0.0,0.0,0.0,0.0,0.0,0.0,0.0,0.0,0.0,0.0,-5.0573,-5.0206,-5.1773,-5.2631,-5.205,-5.3803,-5.4833,-5.4463,-5.6355,-5.7217,-5.6478,-5.7816,-5.853,-5.8235,-5.7493,-5.719,-5.73,-5.5997,-5.5333,-5.5333,-5.5535,-5.5189,-5.4455,-5.487,-5.4855,-5.4551,-5.4551,-5.479,-5.5179,-5.5179,-5.467,-5.3862,-5.3862,-5.3862,-5.3862,-5.3862,-5.3862,-5.3862,0.0,0.0,0.0,0.0,0.0,0.0,0.0,0.0,0.0,0.0,-3.3111,-3.3111,-3.3111,-3.3111,-3.3111,-3.3111,-3.3111,-3.3111,-3.3179,-3.3664,0.0,0.0,0.0,0.0,0.0,0.0,0.0,0.0,0.0,0.0,0.0,-4.329,-4.329,-4.329,-4.3319,-4.3678,-4.4317,-4.4347,-4.3947,-4.3409,-4.4077,-4.4347,-4.4436,0.0,0.0,0.0,0.0,0.0,0.0,0.0,0.0,0.0,0.0,0.0,0.0,0.0,0.0,0.0,0.0,0.0,0.0,0.0,0.0,0.0,0.0,0.0,0.0,0.0,0.0,0.0,0.0,0.0,0.0,0.0,0.0,0.0,-4.8561,-4.8473,-4.9122,-5.0751,-5.1941,-5.2986,-5.4015,-5.5746,-5.6328,-5.5254,-5.7557,-5.8053,-5.5846,-5.8488,-5.9046,-5.6819,-5.8847,-5.8444,-5.5131,-5.7958,-5.8281,-5.6093,-5.6681,-5.6943,-5.6896,-5.572,-5.5179,-5.5179,-5.5179,-5.5179,-5.5179,-5.5179,-5.5179,-5.5179,-5.5179,-5.5179,-5.5179,-5.5179,-5.5179,-5.5179,0.0,0.0,0.0,0.0,0.0,0.0,0.0,0.0,0.0,0.0,-3.3111,-3.3111,-3.3111,-3.3111,-3.3111,-3.3111,-3.3111,-3.3606,-3.4777,0.0,0.0,0.0,0.0,0.0,0.0,0.0,0.0,0.0,0.0,0.0,0.0,0.0,-4.329,-4.3319,-4.3798,-4.4137,-4.4347,-4.4825,-4.4915,-4.4766,-4.4945,-4.5334,-4.5741,0.0,0.0,0.0,0.0,0.0,0.0,0.0,0.0,0.0,0.0,0.0,0.0,0.0,0.0,0.0,0.0,0.0,0.0,0.0,0.0,0.0,0.0,0.0,0.0,0.0,0.0,0.0,0.0,0.0,0.0,0.0,0.0,-5.0756,-5.1256,-5.1957,-5.2203,-5.1623,-5.3245,-5.4398,-5.4439,-5.5353,-5.61,-5.6613,-5.7787,-5.7838,-5.6337,-5.7879,-5.8363,-5.7437,-5.8001,-5.856,-5.9026,-5.8128,-5.7769,-5.8029,-5.6449,-5.567,-5.567,-5.5381,-5.5179,-5.5179,-5.5179,-5.5179,-5.5179,-5.5179,-5.5179,-5.5179,-5.5179,-5.5179,-5.5179,-5.5179,-5.5179,-5.5179,0.0,0.0,0.0,0.0,0.0,0.0,0.0,0.0,0.0,0.0,-3.3111,-3.3111,-3.3111,-3.3111,-3.3111,-3.3111,-3.3111,-3.3596,-3.4753,0.0,0.0,0.0,0.0,0.0,0.0,0.0,0.0,0.0,0.0,0.0,0.0,0.0,0.0,-4.3319,-4.4018,-4.4466,-4.4766,-4.5454,-4.5873,-4.6142,-4.6142,-4.6202,-4.6309,-4.6621,-4.698,-4.7249,-4.686,-4.6741,-4.6681,-4.6262,0.0,0.0,0.0,0.0,0.0,0.0,0.0,0.0,0.0,0.0,0.0,0.0,0.0,0.0,0.0,0.0,0.0,0.0,0.0,0.0,0.0,0.0,0.0,0.0,-5.1726,-5.2198,-5.2607,-5.2922,-5.3099,-5.2995,-5.3945,-5.4888,-5.5709,-5.5898,-5.6274,-5.6936,-5.7669,-5.7549,-5.6365,-5.771,-5.8194,-5.7407,-5.8394,-5.8751,-5.8328,-5.8419,-5.8131,-5.7276,-5.6347,-5.567,-5.5179,-5.5179,-5.5179,-5.5179,-5.5179,-5.5179,-5.5179,-5.5179,-5.5179,-5.5179,0.0,0.0,0.0,0.0,-5.5179,-5.5179,0.0,0.0,0.0,0.0,0.0,0.0,0.0,0.0,0.0,0.0,0.0,-3.3111,-3.3111,-3.3111,-3.3111,-3.3111,-3.3111,-3.3345,0.0,0.0,0.0,0.0,0.0,0.0,0.0,0.0,0.0,0.0,0.0,0.0,0.0,0.0,0.0,0.0,-4.4137,-4.4796,-4.5454,-4.6142,-4.677,-4.7309,-4.7309,-4.695,-4.6501,-4.707,-4.7309,-4.7309,-4.7309,-4.7309,-4.7309,-4.7309,0.0,0.0,0.0,0.0,0.0,0.0,0.0,0.0,0.0,0.0,0.0,0.0,0.0,0.0,0.0,0.0,0.0,0.0,0.0,0.0,0.0,0.0,0.0,0.0,-5.3018,-5.3732,-5.3459,-5.2735,-5.2753,-5.419,-5.4116,-5.4907,-5.7094,-5.6638,-5.6403,-5.6785,-5.7292,-5.7123,-5.5951,-5.76,0.0,0.0,0.0,-5.8722,-5.5651,-5.8677,-5.8555,-5.5401,-5.6347,-5.6232,-5.5179,-5.5179,-5.5179,-5.5179,-5.5179,-5.5179,-5.5179,-5.5179,-5.5179,-5.5179,-5.5179,-5.5179,-5.5179,-5.5179,-5.5179,-5.5179,0.0,0.0,0.0,0.0,0.0,0.0,0.0,0.0,0.0,-3.3111,-3.3111,-3.3111,-3.3111,-3.3111,-3.3111,-3.3111,-3.3111,-3.3495,0.0,0.0,0.0,0.0,0.0,0.0,0.0,0.0,0.0,0.0,0.0,0.0,0.0,0.0,0.0,0.0,-4.4825,-4.5484,-4.6172,-4.683,-4.7189,-4.7309,-4.7309,-4.7219,-4.713,-4.7249,-4.7309,-4.7309,-4.7309,-4.7309,-4.7309,-4.7309,-4.7309,-4.7309,-4.7309,0.0,0.0,0.0,0.0,0.0,0.0,0.0,0.0,0.0,0.0,0.0,0.0,0.0,0.0,0.0,0.0,0.0,0.0,0.0,0.0,-5.2766,-5.4112,-5.5545,-5.6409,-5.5277,-5.3914,-5.2807,-5.3883,-5.526,-5.6724,-5.5518,-5.5438,-5.7356,-5.7302,-5.6614,-5.539,-5.6594,-5.7245,-5.7039,-5.7434,-5.7854,-5.8085,-5.7854,-5.7339,-5.6638,-5.5918,0.0,-5.5179,-5.5179,-5.5179,-5.5179,-5.5179,-5.5179,-5.5179,-5.5179,-5.5179,-5.5179,-5.5179,-5.5179,-5.5179,-5.5179,-5.5179,-5.5179,0.0,0.0,0.0,0.0,0.0,0.0,0.0,0.0,0.0,0.0,-3.3111,-3.3111,-3.3111,-3.3111,-3.3111,-3.3111,-3.3571,0.0,0.0,0.0,0.0,0.0,0.0,0.0,0.0,0.0,0.0,0.0,0.0,0.0,0.0,0.0,0.0,0.0,0.0,-4.5484,-4.5873,-4.689,-4.7309,-4.7309,-4.7309,-4.7309,-4.7309,-4.7309,-4.7309,-4.7309,-4.7309,-4.7309,-4.7309,-4.7309,-4.7309,-4.7309,-4.7309,-4.7309,-4.7309,0.0,0.0,0.0,0.0,0.0,0.0,0.0,0.0,0.0,0.0,0.0,0.0,0.0,0.0,-5.0575,0.0,0.0,-5.3287,-5.3406,-5.466,-5.5773,-5.6125,-5.6271,-5.5834,-5.4603,-5.4543,-5.5036,-5.6221,-5.5346,-5.5451,-5.7227,-5.6567,-5.5819,-5.5229,-5.5769,-5.6085,-5.6085,-5.6656,-5.6991,-5.6991,-5.6991,-5.6735,-5.6085,-5.5501,-5.5359,-5.5688,-5.5688,-5.5867,-5.6137,-5.6137,-5.6137,-5.6137,-5.6137,-5.6137,-5.6137,-5.6137,-5.5748,-5.5179,-5.5179,-5.5179,-5.5179,0.0,0.0,0.0,0.0,0.0,0.0,0.0,0.0,0.0,0.0,0.0,-3.3111,-3.3111,-3.3111,-3.3162,0.0,0.0,0.0,0.0,0.0,0.0,0.0,0.0,0.0,0.0,0.0,0.0,0.0,0.0,0.0,0.0,0.0,0.0,0.0,0.0,0.0,-4.5574,-4.68,-4.7309,-4.7309,-4.7309,-4.7309,-4.7309,-4.7309,-4.7309,-4.7309,-4.7309,-4.7309,-4.7309,-4.7309,-4.7309,-4.7309,-4.7309,-4.7309,-4.7309,-4.7309,-4.7309,0.0,0.0,0.0,0.0,0.0,0.0,0.0,0.0,0.0,-4.9793,-5.0285,-5.0559,-5.0878,-5.1336,-5.267,-5.379,-5.3849,-5.5052,-5.582,-5.5299,-5.6367,-5.7132,-5.6785,-5.5594,-5.5098,-5.6107,-5.5584,-5.567,-5.6896,-5.5869,-5.5179,-5.5179,-5.5179,-5.533,-5.5551,-5.628,-5.6329,-5.5551,-5.6403,-5.6366,-5.5388,-5.5508,-5.5837,-5.6346,-5.6346,-5.6615,-5.7094,-5.7094,-5.7094,-5.7094,-5.7094,-5.7094,-5.7094,-5.7094,-5.6466,-5.5568,-5.5568,-5.5568,-5.5568,0.0,0.0,0.0,0.0,0.0,0.0,0.0,0.0,0.0,0.0,0.0,0.0,0.0,0.0,0.0,0.0,0.0,0.0,0.0,0.0,0.0,0.0,0.0,0.0,0.0,0.0,0.0,0.0,0.0,0.0,0.0,0.0,0.0,0.0,0.0,0.0,-4.6262,-4.698,-4.7309,-4.7309,-4.7309,-4.7309,-4.7309,-4.7309,-4.7309,-4.7309,-4.7309,-4.7309,-4.7309,-4.7309,-4.7309,-4.7309,-4.7309,-4.7309,-4.7309,-4.7309,0.0,-4.7309,-4.7309,-4.7728,0.0,-4.903,-4.9583,-4.9986,0.0,0.0,-5.102,-5.1079,-5.1896,-5.2487,-5.2137,-5.4699,-5.6111,-5.3672,-5.564,-5.709,-5.6031,-5.5633,-5.5865,-5.6869,-5.6789,-5.6724,-5.6867,-5.5857,-5.567,-5.6896,-5.5869,-5.5179,-5.5179,-5.5179,-5.567,-5.6752,-5.5918,-5.5869,-5.68,-5.6445,-5.62,-5.6077,-5.6615,-5.6915,-5.7004,-5.7004,-5.7034,-5.7094,-5.7094,-5.7094,-5.7094,-5.7094,-5.7094,-5.7094,-5.7094,-5.7004,-5.6885,-5.6885,-5.6885,-5.6885,0.0,0.0,0.0,0.0,0.0,0.0,0.0,0.0,0.0,0.0,0.0,0.0,0.0,0.0,0.0,0.0,0.0,0.0,0.0,0.0,0.0,0.0,0.0,0.0,0.0,0.0,0.0,0.0,0.0,0.0,0.0,0.0,0.0,0.0,0.0,0.0,0.0,-4.686,-4.7309,-4.7309,-4.7309,-4.7309,-4.7309,-4.7309,-4.7309,-4.7309,-4.7309,-4.7309,0.0,0.0,-4.7309,-4.7309,-4.7309,-4.7309,-4.7309,-4.7309,-4.7309,0.0,-4.7788,0.0,0.0,0.0,-4.9986,-5.0285,-5.0674,-5.102,-5.1229,-5.1229,-5.189,-5.2439,-5.2222,-5.3714,-5.4912,0.0,-5.5296,-5.5888,-5.6495,-5.6405,-5.6183,-5.6017,-5.659,-5.6704,-5.6035,-5.5501,-5.5431,-5.5918,-5.5501,-5.5179,-5.5179,-5.5179,-5.5431,-5.5967,-5.5451,-5.5661,-5.6545,-5.6293,-5.6346,-5.6705,-5.6974,-5.7304,-5.7693,-5.7693,-5.7902,-5.8261,-5.8261,-5.8261,-5.8261,-5.8261,-5.8261,-5.8261,-5.8261,-5.8261,-5.8171,-5.7393,-5.7094,-5.7094,0.0,0.0,0.0,0.0,0.0,0.0,0.0,0.0,0.0,0.0,0.0,0.0,0.0,0.0,0.0,0.0,0.0,0.0,0.0,0.0,0.0,0.0,0.0,0.0,0.0,0.0,0.0,0.0,0.0,0.0,0.0,0.0,0.0,0.0,0.0,0.0,0.0,-4.6741,-4.7309,-4.7309,-4.7309,-4.7309,-4.7309,-4.7309,-4.7309,-4.7309,-4.7309,-4.7309,0.0,0.0,-4.7309,-4.7309,-4.7309,-4.7309,-4.7309,-4.7309,-4.7429,-4.7758,-4.8596,0.0,0.0,-5.0331,-5.0465,-5.0584,-5.1109,-5.1229,-5.1259,-5.1439,-5.1858,-5.2306,-5.2695,-5.3405,-5.44,-5.5568,-5.5335,-5.5323,-5.6383,-5.6493,-5.6183,-5.528,-5.5967,-5.6183,-5.528,-5.5179,-5.5179,-5.5179,-5.5179,-5.5179,-5.5179,-5.5179,-5.5269,-5.5448,-5.5478,-5.5777,-5.6406,-5.6615,-5.6944,-5.7393,-5.7573,-5.7902,-5.8411,-5.8411,-5.865,-5.9099,-5.9099,-5.9099,-5.9099,-5.9099,-5.9099,-5.9099,-5.9099,-5.9099,-5.8979,-5.8022,-5.7663,-5.7663,0.0,0.0,0.0,0.0,0.0,0.0,0.0,0.0,0.0,0.0,0.0,0.0,0.0,0.0,0.0,0.0,0.0,0.0,0.0,0.0,0.0,0.0,0.0,0.0,0.0,0.0,0.0,0.0,0.0,0.0,0.0,0.0,0.0,0.0,0.0,0.0,0.0,0.0,-4.7309,-4.7309,-4.7309,-4.7309,-4.7309,-4.7309,-4.7309,-4.7309,-4.7309,0.0,0.0,0.0,-4.7309,-4.7309,-4.7309,-4.7309,0.0,-4.7309,-4.7758,0.0,0.0,0.0,-5.0315,-5.102,-5.1199,-5.1199,-5.1229,-5.1229,-5.1409,-5.2037,-5.2187,-5.2606,-5.3892,-5.5145,-5.5759,-5.528,-5.6201,-5.6511,-5.5401,-5.5229,-5.5229,-5.5179,-5.5229,-5.5229,0.0,-5.5179,-5.5179,-5.5179,-5.5179,-5.5179,-5.5179,-5.5179,-5.5478,-5.6188,-5.6188,-5.6436,-5.7064,-5.7723,-5.8082,-5.8112,-5.874,-5.9069,-5.9069,-5.9069,-5.9069,-5.9099,-5.9099,-5.9099,-5.9099,-5.9099,-5.9099,-5.9099,-5.9099,-5.9099,-5.9099,-5.9069,-5.9039,-5.9039,0.0,0.0,0.0,0.0,0.0,0.0,0.0,0.0,0.0,0.0,0.0,0.0,0.0,0.0,0.0,0.0,0.0,0.0,0.0,0.0,0.0,0.0,0.0,0.0,0.0,0.0,0.0,0.0,0.0,0.0,0.0,0.0,0.0,0.0,0.0,0.0,0.0,0.0,0.0,-4.7309,-4.7309,-4.7309,-4.7309,-4.7309,-4.7309,-4.7309,0.0,0.0,0.0,0.0,0.0,0.0,-4.7309,0.0,0.0,-4.7818,-4.8716,-4.9628,0.0,0.0,-5.093,-5.1169,-5.1229,-5.1229,-5.1229,-5.1558,-5.1947,-5.2157,-5.2905,-5.3683,-5.4132,-5.4868,-5.5428,-5.525,-5.5551,-5.5651,-5.5229,-5.5179,-5.5179,-5.5179,-5.5179,0.0,0.0,0.0,0.0,-5.5179,-5.5179,-5.5179,-5.5179,-5.5598,-5.6008,-5.6218,-5.6585,-5.7094,-5.7782,-5.8022,-5.8351,-5.877,-5.9009,-5.9099,-5.9099,-5.9099,-5.9099,-5.9099,-5.9099,-5.9099,-5.9099,-5.9099,-5.9099,-5.9099,-5.9099,-5.9099,-5.9099,-5.9099,-5.9099,-5.9099,0.0,0.0,0.0,0.0,0.0,0.0,0.0,0.0,0.0,0.0,0.0,0.0,0.0,0.0,0.0,0.0,0.0,0.0,0.0,0.0,0.0,0.0,0.0,0.0,0.0,0.0,0.0,0.0,0.0,0.0,0.0,0.0,0.0,0.0,0.0,0.0,0.0,0.0,0.0,0.0,-4.7309,-4.7309,-4.7309,-4.7309,-4.7309,0.0,0.0,0.0,0.0,0.0,0.0,0.0,0.0,-4.7459,-4.7818,-4.8716,-4.9583,-5.0255,0.0,-5.0853,-5.1229,-5.1229,-5.1229,-5.1289,-5.1498,-5.1887,-5.2336,-5.2815,-5.3593,-5.4281,-5.4521,-5.491,-5.5179,-5.5179,-5.5179,-5.5179,-5.5179,-5.5179,-5.5179,-5.5179,-5.5179,-5.5179,0.0,0.0,0.0,-5.5179,-5.5179,-5.5299,-5.5538,-5.6008,-5.6376,-5.6855,-5.7244,-5.7782,-5.8471,-5.8471,-5.868,-5.9099,-5.9099,-5.9099,-5.9099,-5.9099,-5.9099,-5.9099,-5.9099,-5.9099,-5.9099,-5.9099,-5.9099,-5.9099,-5.9099,-5.9099,-5.9099,-5.9099,-5.9099,-5.9099,0.0,0.0,0.0,0.0,0.0,0.0,0.0,0.0,0.0,0.0,0.0,0.0,0.0,0.0,0.0,0.0,0.0,0.0,0.0,0.0,0.0,0.0,0.0,0.0,0.0,0.0,0.0,0.0,0.0,0.0,0.0,0.0,0.0,0.0,0.0,0.0,0.0,0.0,0.0,0.0,0.0,0.0,-4.7309,-4.7309,0.0,0.0,0.0,0.0,0.0,0.0,0.0,0.0,0.0,0.0,-4.8596,-4.9807,-5.0226,-5.0375,-5.105,-5.1229,-5.1229,-5.1229,-5.1259,-5.1439,-5.2067,-5.2247,-5.2665,-5.3952,-5.4251,-5.4461,0.0,0.0,-5.5179,-5.5179,-5.5179,-5.5179,-5.5179,-5.5179,-5.5179,0.0,0.0,0.0,0.0,0.0,0.0,-5.5179,0.0,-5.5508,-5.6188,-5.6226,-5.6825,-5.8082,-5.8141,-5.8471,-5.9099,-5.9099,-5.9099,-5.9099,-5.9099,-5.9099,-5.9099,-5.9099,-5.9099,-5.9099,-5.9099,-5.9099,-5.9099,-5.9099,-5.9099,-5.9099,-5.9099,-5.9099,-5.9099,-5.9099,-5.9099,-5.9099,0.0,0.0,0.0,0.0,0.0,0.0,0.0,0.0,0.0,0.0,0.0,0.0,0.0,0.0,0.0,0.0,0.0,0.0,0.0,0.0,0.0,0.0,0.0,0.0,0.0,0.0,0.0,0.0,0.0,0.0,0.0,0.0,0.0,0.0,0.0,0.0,0.0,0.0,0.0,0.0,0.0,0.0,-4.7309,0.0,0.0,0.0,0.0,0.0,0.0,0.0,0.0,0.0,0.0,0.0,-4.9164,-4.9956,0.0,-5.0973,-5.1169,-5.1229,-5.1229,-5.1229,-5.1588,-5.2007,-5.2157,-5.2965,-5.3803,-5.4132,-5.461,-5.4999,0.0,0.0,0.0,-5.5179,-5.5179,0.0,-5.5179,-5.5179,0.0,-5.5179,0.0,-5.5179,-5.5179,-5.5179,0.0,0.0,-5.5658,-5.5987,-5.6218,-5.7094,-5.7782,-5.8112,-5.859,-5.8949,-5.9099,-5.9099,-5.9099,-5.9099,-5.9099,-5.9099,-5.9099,-5.9099,-5.9099,-5.9099,-5.9099,-5.9099,-5.9099,-5.9099,-5.9099,-5.9099,-5.9099,-5.9099,-5.9099,-5.9099,-5.9099,-5.9099,0.0,0.0,0.0,0.0,0.0,0.0,0.0,0.0,0.0,0.0,0.0,0.0,0.0,0.0,0.0,0.0,0.0,0.0,0.0,0.0,0.0,0.0,0.0,0.0,0.0,0.0,0.0,0.0,0.0,0.0,0.0,0.0,0.0,0.0,0.0,0.0,0.0,0.0,0.0,0.0,0.0,0.0,0.0,0.0,0.0,0.0,0.0,0.0,0.0,0.0,0.0,-4.7848,-4.8506,-4.9164,-4.9823,-5.0435,0.0,-5.1229,-5.1229,-5.1229,-5.1289,-5.1588,-5.1917,-5.2366,-5.2935,-5.3653,-5.4281,-5.4581,-5.494,0.0,0.0,0.0,0.0,0.0,0.0,0.0,-5.5179,-5.5179,-5.5179,0.0,-5.5179,0.0,-5.5179,-5.5179,-5.5299,0.0,-5.5957,-5.6338,-5.6555,-5.7573,-5.8261,-5.853,-5.8919,-5.9099,-5.9099,-5.9099,-5.9099,-5.9099,-5.9099,-5.9099,-5.9099,-5.9099,-5.9099,-5.9099,-5.9099,-5.9099,-5.9099,-5.9099,-5.9099,-5.9099,-5.9099,-5.9099,-5.9099,-5.9099,-5.9099,-5.9099,0.0,0.0,0.0,0.0,0.0,0.0,0.0,0.0,0.0,0.0,0.0,0.0,0.0,0.0,0.0,0.0,0.0,0.0,0.0,0.0,0.0,0.0,0.0,0.0,0.0,0.0,0.0,0.0,0.0,0.0,0.0,0.0,0.0,0.0,0.0,0.0,0.0,0.0,0.0,0.0,0.0,0.0,0.0,0.0,0.0,0.0,0.0,0.0,0.0,0.0,-4.7758,-4.8386,-4.912,-4.9703,-5.0315,-5.102,-5.1229,-5.1229,-5.1229,-5.1229,-5.1379,-5.2037,-5.2276,-5.2665,-5.3922,-5.4281,-5.4491,-5.5059,0.0,-5.5179,-5.5179,0.0,-5.5179,-5.5179,0.0,-5.5179,-5.5179,-5.5179,-5.5179,-5.5179,-5.5179,-5.5179,-5.5179,-5.5269,-5.5568,-5.6188,-5.6346,-5.6675,-5.7184,-5.7872,-5.853,-5.9099,-5.9099,-5.9099,-5.9099,-5.9099,-5.9099,-5.9099,-5.9099,-5.9099,-5.9099,-5.9099,-5.9099,-5.9099,-5.9099,-5.9099,-5.9099,-5.9099,-5.9099,-5.9099,-5.9099,-5.9099,-5.9099,-5.9099,-5.9099,-5.9099,0.0,0.0,0.0,0.0,0.0,0.0,0.0,0.0,0.0,0.0,-3.3111,-3.3111,0.0,0.0,0.0,0.0,0.0,0.0,0.0,0.0,0.0,0.0,0.0,0.0,0.0,0.0,0.0,0.0,0.0,0.0,0.0,0.0,0.0,0.0,0.0,0.0,0.0,0.0,0.0,0.0,0.0,0.0,0.0,0.0,0.0,0.0,0.0,0.0,0.0,0.0,-4.7758,-4.8386,-4.912,-4.9703,-5.0315,-5.102,-5.1229,-5.1229,-5.1229,-5.1229,-5.1379,-5.2037,-5.2606,-5.3204,-5.4012,-5.464,0.0,0.0,0.0,-5.5179,-5.5179,-5.5179,0.0,-5.5179,0.0,0.0,0.0,0.0,-5.5179,0.0,0.0,0.0,0.0,0.0,0.0,0.0,-5.7184,-5.7842,-5.7932,-5.856,-5.8979,-5.9099,-5.9099,-5.9099,-5.9099,-5.9099,-5.9099,-5.9099,-5.9099,-5.9099,-5.9099,-5.9099,-5.9099,-5.9099,-5.9099,-5.9099,-5.9099,-5.9099,-5.9099,-5.9099,-5.9099,-5.9099,-5.9099,-5.9099,-5.9099,-5.9099,0.0,0.0,0.0,0.0,0.0,0.0,0.0,-3.3111,-3.3111,-3.3111,-3.3111,-3.3111,-3.3111,-3.3796,-3.4399,0.0,0.0,0.0,0.0,0.0,0.0,0.0,0.0,0.0,0.0,0.0,0.0,0.0,0.0,0.0,0.0,0.0,0.0,0.0,0.0,0.0,0.0,0.0,0.0,0.0,0.0,0.0,0.0,0.0,0.0,0.0,0.0,0.0,0.0,0.0,-4.7967,-4.891,-4.9209,-4.9942,-5.0764,-5.1139,-5.1229,-5.1229,-5.1229,-5.1468,-5.1887,-5.2546,-5.3204,-5.3892,-5.4581,0.0,0.0,0.0,0.0,-5.5179,-5.5179,0.0,0.0,0.0,0.0,0.0,0.0,0.0,0.0,0.0,0.0,0.0,0.0,0.0,0.0,0.0,-5.7573,-5.8112,-5.8112,-5.874,-5.9099,-5.9099,-5.9099,-5.9099,-5.9099,-5.9099,-5.9099,-5.9099,-5.9099,-5.9099,-5.9099,-5.9099,-5.9099,-5.9099,-5.9099,-5.9099,-5.9099,-5.9099,-5.9099,-5.9099,-5.9099,-5.9099,-5.9099,-5.9099,-5.9099,-5.9099,0.0,0.0,0.0,0.0,0.0,0.0,0.0,-3.3111,-3.3111,-3.3111,-3.3111,-3.3111,-3.3111,-3.3571,-3.4123,0.0,0.0,0.0,0.0,0.0,0.0,0.0,0.0,0.0,0.0,0.0,0.0,-3.6405,0.0,0.0,0.0,0.0,0.0,0.0,0.0,0.0,0.0,0.0,0.0,0.0,0.0,0.0,0.0,0.0,0.0,0.0,0.0,0.0,0.0,0.0,-4.8297,-4.9329,-4.9434,-5.0272,-5.1229,-5.1229,-5.1229,-5.1259,-5.1379,-5.1798,-5.2396,-5.3204,-5.3803,-5.4371,-5.5029,-5.5179,0.0,0.0,0.0,-5.5179,0.0,0.0,0.0,0.0,0.0,0.0,0.0,0.0,0.0,0.0,0.0,0.0,0.0,0.0,0.0,0.0,-5.7872,-5.8321,-5.8321,-5.883,-5.9099,-5.9099,-5.9099,-5.9099,-5.9099,-5.9099,-5.9099,-5.9099,-5.9099,-5.9099,-5.9099,-5.9099,-5.9099,-5.9099,-5.9099,-5.9099,-5.9099,-5.9099,-5.9099,-5.9099,-5.9099,-5.9099,-5.9099,-5.9099,-5.9099,-5.9099,0.0,0.0,0.0,0.0,0.0,0.0,0.0,-3.3111,-3.3111,-3.3111,-3.3111,-3.3111,-3.3111,-3.3571,-3.4123,0.0,0.0,0.0,0.0,0.0,0.0,0.0,0.0,0.0,0.0,0.0,0.0,-3.6405,-3.7448,0.0,0.0,0.0,0.0,0.0,0.0,-4.329,0.0,0.0,0.0,0.0,0.0,0.0,0.0,0.0,0.0,0.0,0.0,0.0,0.0,0.0,0.0,-4.9419,-4.9942,-5.0631,-5.1229,-5.1229,0.0,0.0,-5.1947,-5.2157,-5.2516,-5.3803,-5.4162,-5.4371,-5.5029,0.0,0.0,0.0,-5.5179,-5.5179,0.0,0.0,0.0,0.0,0.0,0.0,0.0,0.0,0.0,0.0,0.0,0.0,0.0,0.0,0.0,0.0,-5.8291,-5.9009,-5.9009,-5.9069,-5.9099,-5.9099,-5.9099,-5.9099,-5.9099,-5.9099,-5.9099,-5.9099,-5.9099,-5.9099,-5.9099,-5.9099,-5.9099,-5.9099,-5.9099,-5.9099,-5.9099,-5.9099,-5.9099,-5.9099,-5.9099,-5.9099,-5.9099,-5.9099,-5.9099,-5.9099,0.0,0.0,0.0,0.0,0.0,0.0,-3.3111,-3.3111,-3.3111,-3.3111,-3.3111,-3.3111,-3.3111,-3.3571,-3.4123,-3.4675,0.0,0.0,0.0,0.0,0.0,0.0,0.0,0.0,0.0,0.0,-3.6405,-3.6405,-3.754,0.0,0.0,0.0,0.0,0.0,0.0,-4.329,-4.329,0.0,0.0,0.0,0.0,0.0,0.0,0.0,0.0,0.0,0.0,0.0,0.0,0.0,0.0,0.0,-4.9986,-5.0644,0.0,0.0,-5.1229,-5.1379,-5.2007,-5.2486,-5.3025,-5.3982,-5.4491,-5.488,-5.5119,0.0,0.0,-5.5179,-5.5179,-5.5179,-5.5179,0.0,0.0,0.0,0.0,0.0,0.0,0.0,0.0,0.0,0.0,0.0,0.0,0.0,0.0,0.0,-5.88,-5.9099,-5.9099,-5.9099,-5.9099,-5.9099,-5.9099,-5.9099,-5.9099,-5.9099,-5.9099,-5.9099,-5.9099,-5.9099,-5.9099,-5.9099,-5.9099,-5.9099,-5.9099,-5.9099,-5.9099,-5.9099,-5.9099,-5.9099,-5.9099,-5.9099,-5.9099,-5.9099,-5.9099,-5.9099,0.0,0.0,0.0,0.0,0.0,-3.3111,-3.3111,-3.3111,-3.3111,-3.3111,-3.3111,-3.3144,-3.3294,-3.3671,-3.4198,-3.4856,-3.4931,0.0,0.0,0.0,0.0,0.0,0.0,0.0,0.0,0.0,-3.6405,-3.6405,-3.7906,-3.905,0.0,0.0,-4.2548,-4.329,0.0,0.0,0.0,0.0,0.0,0.0,0.0,0.0,0.0,0.0,0.0,0.0,0.0,0.0,0.0,0.0,0.0,0.0,0.0,0.0,0.0,0.0,-5.1229,-5.1409,-5.2247,-5.2815,-5.3384,-5.4281,-5.485,-5.5179,0.0,0.0,0.0,-5.5179,-5.5179,-5.5179,-5.5179,0.0,0.0,0.0,0.0,0.0,0.0,0.0,0.0,0.0,0.0,0.0,0.0,0.0,0.0,-5.9009,-5.9099,-5.9099,-5.9099,-5.9099,-5.9099,-5.9099,-5.9099,-5.9099,-5.9099,-5.9099,-5.9099,-5.9099,-5.9099,-5.9099,-5.9099,-5.9099,-5.9099,-5.9099,-5.9099,-5.9099,-5.9099,-5.9099,-5.9099,-5.9099,-5.9099,-5.9099,-5.9099,-5.9099,-5.9099,-5.9099,0.0,0.0,0.0,0.0,0.0,0.0,-3.3111,-3.3111,-3.3111,-3.3111,-3.3111,-3.3294,-3.3822,-3.3897,-3.4349,-3.5382,-3.5483,0.0,0.0,0.0,0.0,0.0,0.0,0.0,0.0,0.0,-3.6405,-3.6405,-3.8765,-3.9913,-3.9956,-4.2222,-4.329,-4.329,0.0,0.0,0.0,0.0,0.0,0.0,0.0,0.0,0.0,0.0,0.0,0.0,0.0,0.0,0.0,0.0,0.0,0.0,0.0,0.0,0.0,0.0,-5.1229,-5.1498,-5.2815,-5.3174,-5.3503,-5.485,-5.5179,-5.5179,0.0,0.0,0.0,0.0,-5.5179,-5.5179,0.0,0.0,0.0,0.0,0.0,0.0,0.0,0.0,0.0,0.0,0.0,0.0,0.0,0.0,0.0,-5.9069,-5.9099,0.0,-5.9099,-5.9099,-5.9099,-5.9099,-5.9099,-5.9099,-5.9099,-5.9099,-5.9099,-5.9099,-5.9099,-5.9099,-5.9099,-5.9099,-5.9099,-5.9099,-5.9099,-5.9099,-5.9099,-5.9099,-5.9099,-5.9099,-5.9099,-5.9099,-5.9099,-5.9099,-5.9099,-5.9099,0.0,0.0,0.0,0.0,0.0,0.0,0.0,-3.3111,-3.3111,-3.3111,-3.3395,-3.3696,-3.3872,-3.4575,-3.5132,-3.5458,-3.5508,0.0,0.0,0.0,0.0,0.0,0.0,0.0,0.0,0.0,-3.6803,-3.754,-3.9139,-4.0275,-4.1085,-4.2589,-4.329,-4.329,-4.329,-4.329,0.0,0.0,0.0,0.0,0.0,0.0,0.0,0.0,0.0,0.0,0.0,0.0,0.0,0.0,0.0,0.0,0.0,0.0,0.0,0.0,0.0,0.0,-5.2935,-5.3533,-5.4102,-5.497,-5.5179,-5.5179,-5.5179,0.0,0.0,0.0,0.0,0.0,0.0,0.0,0.0,0.0,0.0,0.0,0.0,0.0,0.0,0.0,0.0,0.0,0.0,0.0,0.0,-5.9069,-5.9099,-5.9099,-5.9099,-5.9099,-5.9099,-5.9099,-5.9099,-5.9099,-5.9099,-5.9099,-5.9099,-5.9099,-5.9099,-5.9099,-5.9099,-5.9099,-5.9099,-5.9099,-5.9099,-5.9099,-5.9099,-5.9099,-5.9099,-5.9099,-5.9099,-5.9099,-5.9099,-5.9099,-5.9099,-5.9099,0.0,0.0,0.0,0.0,0.0,0.0,0.0,-3.3111,-3.3144,-3.337,-3.3696,-3.4048,-3.4474,-3.5082,-3.5583,-3.583,-3.5855,0.0,0.0,0.0,0.0,0.0,0.0,0.0,0.0,-3.6405,-3.6989,-3.8107,-3.9316,-4.049,-4.1629,-4.278,-4.329,-4.329,-4.329,-4.3439,0.0,0.0,0.0,0.0,0.0,0.0,-4.7309,0.0,0.0,0.0,0.0,0.0,0.0,0.0,0.0,0.0,0.0,0.0,0.0,0.0,-5.2366,0.0,0.0,-5.3892,-5.4371,-5.5029,-5.5179,0.0,0.0,0.0,0.0,0.0,0.0,0.0,0.0,0.0,0.0,0.0,0.0,0.0,0.0,0.0,0.0,0.0,0.0,0.0,0.0,0.0,-5.865,-5.9069,-5.9099,-5.9099,-5.9099,-5.9099,-5.9099,-5.9099,-5.9099,-5.9099,-5.9099,-5.9099,-5.9099,-5.9099,-5.9099,-5.9099,-5.9099,-5.9099,-5.9099,-5.9099,-5.9099,-5.9099,0.0,-5.9099,-5.9099,-5.9099,-5.9099,-5.9099,-5.9099,-5.9099,-5.9099,-5.9099,0.0,0.0,0.0,0.0,0.0,0.0,0.0,-3.3119,-3.3319,-3.3822,-3.3972,-3.4399,-3.5382,-3.5533,-3.5805,-3.6355,0.0,0.0,0.0,0.0,0.0,0.0,0.0,0.0,-3.6405,-3.6405,-3.701,-3.8243,-3.9271,-4.0447,-4.1711,-4.271,-4.321,-4.329,-4.3349,-4.3768,0.0,0.0,0.0,0.0,0.0,0.0,0.0,0.0,0.0,0.0,0.0,0.0,0.0,0.0,0.0,0.0,0.0,0.0,0.0,0.0,0.0,0.0,0.0,0.0,0.0,0.0,0.0,0.0,0.0,0.0,0.0,0.0,0.0,0.0,0.0,0.0,0.0,0.0,0.0,0.0,0.0,0.0,0.0,0.0,0.0,0.0,0.0,0.0,-5.9099,-5.9099,-5.9099,-5.9099,-5.9099,-5.9099,-5.9099,-5.9099,-5.9099,-5.9099,-5.9099,-5.9099,-5.9099,-5.9099,-5.9099,-5.9099,-5.9099,-5.9099,-5.9099,-5.9099,-5.9099,-5.9099,-5.9099,-5.9099,-5.9099,-5.9099,-5.9099,-5.9099,-5.9099,-5.9099,-5.9099,-5.9099,0.0,0.0,0.0,0.0,0.0,0.0,0.0,0.0,0.0,0.0,-3.4625,-3.5207,-3.5483,-3.5906,-3.6279,0.0,0.0,0.0,0.0,0.0,0.0,0.0,0.0,0.0,-3.6405,-3.6405,-3.7428,-3.9492,-3.8827,-4.0031,-4.29,-4.2275,-4.2467,-4.3319,-4.3828,-4.4695,0.0,0.0,0.0,0.0,0.0,0.0,0.0,0.0,0.0,0.0,-4.7878,-4.8566,0.0,0.0,0.0,0.0,0.0,0.0,0.0,0.0,-5.3054,-5.3443,-5.464,0.0,-5.4999,-5.5149,-5.5179,-5.5179,0.0,0.0,0.0,0.0,0.0,0.0,0.0,0.0,0.0,0.0,0.0,0.0,0.0,0.0,0.0,0.0,0.0,0.0,0.0,-5.8321,-5.9099,-5.9099,-5.9099,-5.9099,-5.9099,-5.9099,-5.9099,-5.9099,-5.9099,-5.9099,-5.9099,-5.9099,-5.9099,-5.9099,-5.9099,-5.9099,-5.9099,-5.9099,-5.9099,-5.9099,-5.9099,-5.9099,-5.9099,-5.9099,-5.9099,-5.9099,-5.9099,-5.9099,-5.9099,-5.9099,-5.9099,-5.9099,0.0,0.0,0.0,0.0,0.0,0.0,0.0,0.0,0.0,0.0,0.0,0.0,0.0,0.0,0.0,0.0,0.0,0.0,0.0,0.0,0.0,0.0,0.0,-3.6405,-3.6405,-3.6405,-3.7289,-3.905,-3.8961,-4.0161,-4.2508,-4.2426,-4.2887,-4.3798,-4.4755,-4.5633,0.0,0.0,0.0,0.0,-4.7309,0.0,0.0,0.0,0.0,0.0,-4.8147,-4.8895,0.0,-5.0076,-5.0644,-5.1229,0.0,0.0,0.0,0.0,-5.3414,-5.3862,-5.491,-5.5179,-5.5179,-5.5179,-5.5179,-5.5179,0.0,0.0,0.0,0.0,0.0,0.0,0.0,0.0,0.0,0.0,0.0,0.0,0.0,0.0,0.0,0.0,0.0,0.0,0.0,-5.8501,-5.9099,-5.9099,-5.9099,-5.9099,-5.9099,-5.9099,-5.9099,-5.9099,-5.9099,-5.9099,-5.9099,-5.9099,-5.9099,-5.9099,-5.9099,-5.9099,-5.9099,-5.9099,-5.9099,-5.9099,-5.9099,-5.9099,-5.9099,-5.9099,-5.9099,-5.9099,-5.9099,-5.9099,-5.9099,-5.9099,-5.9099,-5.9099,0.0,0.0,0.0,0.0,0.0,0.0,0.0,0.0,0.0,0.0,0.0,0.0,0.0,0.0,0.0,0.0,0.0,0.0,0.0,0.0,0.0,0.0,0.0,-3.6405,-3.6405,-3.6405,-3.7057,-3.8379,-3.9227,-4.0404,-4.1906,-4.2788,-4.3707,-4.4676,-4.5771,-4.6339,0.0,0.0,0.0,-4.7309,-4.7309,0.0,0.0,0.0,0.0,0.0,0.0,0.0,0.0,-5.0315,-5.0704,-5.1229,-5.1229,0.0,0.0,0.0,0.0,0.0,-5.4999,-5.5179,-5.5179,-5.5179,-5.5179,-5.5179,0.0,0.0,0.0,0.0,0.0,0.0,0.0,0.0,0.0,0.0,0.0,0.0,0.0,0.0,0.0,0.0,0.0,0.0,-5.8052,-5.871,-5.9099,-5.9099,-5.9099,-5.9099,-5.9099,-5.9099,-5.9069,-5.8949,-5.8949,-5.889,-5.88,-5.889,-5.889,-5.88,-5.88,-5.88,-5.88,-5.88,-5.88,-5.88,-5.88,-5.88,-5.88,-5.88,-5.88,-5.88,-5.88,-5.88,-5.88,-5.88,-5.88,-5.88,0.0,0.0,0.0,0.0,0.0,0.0,0.0,0.0,0.0,0.0,0.0,0.0,0.0,0.0,0.0,0.0,0.0,0.0,0.0,0.0,0.0,-3.6405,-3.6405,-3.6405,-3.6405,-3.6405,-3.7474,-3.9623,-3.8783,-3.9988,-4.305,-4.2789,-4.3864,-4.598,-4.619,-4.6621,-4.716,-4.7279,-4.7309,-4.7309,-4.7309,0.0,0.0,0.0,0.0,0.0,0.0,0.0,0.0,-5.087,-5.1139,-5.1229,-5.1229,0.0,0.0,0.0,0.0,0.0,-5.4999,-5.5179,-5.5179,-5.5179,-5.5179,-5.5179,0.0,0.0,0.0,0.0,0.0,0.0,0.0,0.0,0.0,0.0,0.0,0.0,0.0,0.0,0.0,0.0,0.0,-5.7363,-5.8052,-5.871,-5.9099,-5.9099,-5.9099,-5.9099,-5.9099,-5.9099,-5.886,-5.8291,-5.8261,-5.7992,-5.7423,-5.7992,-5.7992,-5.7393,-5.7393,-5.7393,-5.7393,-5.7393,-5.7393,-5.7393,-5.7393,-5.7393,-5.7393,-5.7393,-5.7393,-5.7393,-5.7393,-5.7393,-5.7393,-5.7393,-5.7393,-5.7393,0.0,0.0,0.0,0.0,0.0,0.0,0.0,0.0,0.0,0.0,0.0,0.0,0.0,0.0,0.0,0.0,0.0,0.0,0.0,0.0,0.0,-3.6405,-3.6405,-3.6405,-3.6405,-3.6405,-3.6943,-3.7997,-3.9033,-4.0371,-4.1979,-4.3783,-4.523,-4.6352,-4.6681,-4.701,-4.7309,-4.7309,-4.7309,-4.7309,0.0,0.0,0.0,0.0,0.0,0.0,0.0,0.0,0.0,0.0,-5.1229,-5.1289,-5.1648,0.0,0.0,0.0,0.0,0.0,-5.5119,-5.5179,-5.5179,-5.5179,-5.5179,-5.5179,0.0,0.0,0.0,0.0,0.0,0.0,0.0,0.0,0.0,0.0,0.0,0.0,0.0,0.0,0.0,0.0,0.0,-5.7513,-5.856,-5.8919,-5.9099,-5.9099,-5.9099,-5.9099,-5.9099,-5.877,-5.8441,-5.8141,-5.7752,-5.7244,-5.6585,-5.6915,-5.7064,-5.7094,-5.7094,-5.7094,-5.7094,-5.7094,-5.7094,-5.7094,-5.7094,-5.7094,-5.7094,-5.7094,-5.7094,-5.7094,-5.7094,-5.7094,-5.7094,-5.7094,-5.7094,-5.7094,0.0,0.0,0.0,0.0,0.0,0.0,0.0,0.0,0.0,0.0,0.0,0.0,0.0,0.0,0.0,0.0,0.0,0.0,0.0,0.0,-3.6405,-3.6405,-3.6405,-3.6405,-3.6405,-3.6405,-3.6738,-3.7423,-3.9672,-4.1263,-4.2144,-4.4977,-4.6369,-4.6591,-4.707,-4.7309,-4.7309,-4.7309,-4.7309,-4.7309,0.0,0.0,0.0,0.0,0.0,0.0,0.0,0.0,0.0,0.0,0.0,0.0,0.0,0.0,0.0,-5.4012,-5.467,-5.5179,-5.5179,-5.5179,-5.5179,-5.5179,0.0,-5.5179,-5.5179,0.0,0.0,0.0,0.0,0.0,0.0,0.0,0.0,0.0,0.0,0.0,0.0,0.0,-5.5598,-5.6735,-5.7004,-5.7573,-5.877,-5.9009,-5.9099,-5.9099,-5.8949,-5.889,-5.889,-5.8231,-5.7812,-5.7663,-5.7154,-5.6585,-5.5957,-5.6008,-5.6196,-5.6645,-5.6645,-5.6645,-5.6645,-5.6645,-5.6645,-5.6645,-5.6645,-5.6645,-5.6645,-5.6645,-5.6645,-5.6645,-5.6645,-5.6645,-5.6645,-5.6645,-5.6645,-5.6645,0.0,0.0,0.0,0.0,0.0,0.0,0.0,0.0,0.0,0.0,0.0,0.0,0.0,0.0,0.0,0.0,0.0,0.0,0.0,0.0,-3.6405,-3.6405,-3.6405,-3.6405,-3.6405,-3.6405,-3.7753,-4.0464,-4.0697,-4.2549,-4.5917,-4.6177,-4.6651,-4.7249,-4.7279,-4.7309,-4.7309,-4.7309,-4.7309,-4.7369,-4.7967,0.0,0.0,0.0,0.0,0.0,0.0,0.0,0.0,0.0,0.0,0.0,0.0,0.0,-5.3324,-5.4012,-5.467,-5.5179,-5.5179,-5.5179,-5.5179,-5.5179,0.0,0.0,-5.5179,0.0,0.0,0.0,0.0,0.0,0.0,0.0,0.0,0.0,0.0,0.0,0.0,0.0,-5.5448,-5.6166,-5.6735,-5.7393,-5.8112,-5.874,-5.9099,-5.9099,-5.853,-5.8201,-5.8201,-5.7543,-5.6915,-5.6316,-5.6308,-5.5927,-5.5269,-5.5269,-5.5269,-5.5329,-5.5329,-5.5329,-5.5329,-5.5329,-5.5329,-5.5329,-5.5329,-5.5329,-5.5329,-5.5329,-5.5329,-5.5329,-5.5329,-5.5329,-5.5329,-5.5329,-5.5329,-5.5329,0.0,0.0,0.0,0.0,0.0,0.0,0.0,0.0,0.0,0.0,0.0,0.0,0.0,0.0,0.0,0.0,0.0,0.0,0.0,-3.6405,-3.6556,-3.6908,-3.6933,-3.7036,-3.7387,-3.7061,-3.7591,-3.906,-4.102,-4.3662,-4.692,-4.692,-4.707,-4.7309,-4.7309,-4.7309,-4.7309,-4.7309,-4.7549,-4.7938,-4.8177,-4.8536,0.0,0.0,0.0,0.0,0.0,0.0,0.0,0.0,-5.1498,-5.1947,0.0,0.0,-5.3952,-5.461,-5.4999,-5.5179,-5.5179,-5.5179,-5.5179,-5.5179,0.0,0.0,0.0,0.0,0.0,0.0,0.0,0.0,0.0,0.0,0.0,0.0,0.0,0.0,0.0,-5.5179,-5.5448,-5.6107,-5.6376,-5.6765,-5.7423,-5.7723,-5.7842,-5.7842,-5.7633,-5.7483,-5.7483,-5.6885,-5.6406,-5.6248,-5.5777,-5.5448,-5.5179,-5.5179,-5.5179,-5.5179,-5.5179,-5.5179,-5.5179,-5.5179,-5.5179,-5.5179,-5.5179,-5.5179,-5.5179,-5.5179,-5.5179,-5.5179,-5.5179,-5.5179,-5.5179,-5.5179,-5.5179,-5.5179,0.0,0.0,0.0,0.0,0.0,0.0,0.0,0.0,0.0,0.0,0.0,0.0,0.0,0.0,0.0,0.0,0.0,0.0,-3.6656,-3.6681,-3.6908,-3.7412,-3.7437,-3.7713,-3.8266,-3.8331,-3.8717,-3.9466,-4.2638,-4.5209,-4.7309,-4.7309,-4.7309,-4.7309,-4.7309,-4.7309,-4.7309,-4.7519,-4.7878,-4.8327,-4.8745,-4.9164,0.0,0.0,0.0,0.0,0.0,0.0,0.0,0.0,0.0,0.0,0.0,0.0,0.0,0.0,-5.5179,-5.5179,-5.5179,-5.5179,-5.5179,0.0,0.0,0.0,0.0,0.0,0.0,0.0,0.0,0.0,0.0,0.0,0.0,0.0,0.0,0.0,-5.5179,-5.5179,-5.5359,-5.5807,-5.6047,-5.6346,-5.6765,-5.6974,-5.7094,-5.7094,-5.6915,-5.6795,-5.6795,-5.6196,-5.5867,-5.5867,-5.5418,-5.5179,-5.5179,-5.5179,-5.5179,-5.5179,-5.5179,-5.5179,-5.5179,-5.5179,-5.5179,-5.5179,-5.5179,-5.5179,-5.5179,-5.5179,-5.5179,-5.5179,-5.5179,-5.5179,-5.5179,-5.5179,-5.5179,-5.5179,0.0,0.0,0.0,0.0,0.0,0.0,0.0,0.0,0.0,0.0,0.0,0.0,0.0,0.0,0.0,0.0,0.0,0.0,-3.7161,-3.7186,-3.7437,-3.799,-3.8015,-3.8291,-3.8919,-4.0187,-4.1442,-4.2759,-4.58,-4.7309,-4.7309,-4.7309,-4.7309,-4.7309,-4.7309,-4.7309,-4.7369,-4.7997,-4.8297,-4.8416,-4.9657,-5.0196,-5.0285,0.0,0.0,0.0,0.0,0.0,0.0,0.0,-5.2217,0.0,0.0,0.0,0.0,0.0,-5.5179,-5.5179,-5.5179,-5.5179,0.0,0.0,0.0,0.0,0.0,0.0,0.0,0.0,0.0,0.0,-5.5179,0.0,0.0,-5.5179,-5.5179,-5.5179,-5.5179,-5.5179,-5.5179,-5.5179,-5.5777,-5.6218,-5.6218,-5.6705,-5.7064,-5.7064,-5.6496,-5.6218,-5.6218,-5.5538,-5.5179,-5.5179,-5.5179,-5.5179,-5.5179,-5.5179,-5.5179,-5.5179,-5.5179,-5.5179,-5.5179,-5.5179,-5.5179,-5.5179,-5.5179,-5.5179,-5.5179,-5.5179,-5.5179,-5.5179,-5.5179,-5.5179,-5.5179,-5.5179,-5.5179,-5.5179,0.0,0.0,0.0,0.0,0.0,0.0,0.0,0.0,0.0,0.0,0.0,0.0,0.0,0.0,0.0,0.0,0.0,0.0,-3.7186,-3.7538,-3.8015,-3.8592,-3.8617,-3.8868,-3.9446,-4.1572,-4.3322,-4.4601,-4.5512,-4.6388,-4.7309,-4.7309,-4.7309,-4.7309,-4.7309,-4.7549,-4.7997,-4.8207,-4.8805,-4.9657,-5.0046,-5.0465,-5.096,0.0,0.0,0.0,0.0,0.0,0.0,0.0,0.0,0.0,0.0,0.0,0.0,-5.5119,-5.5179,-5.5179,-5.5179,0.0,0.0,0.0,0.0,0.0,0.0,0.0,0.0,0.0,0.0,0.0,-5.5179,0.0,0.0,-5.5179,-5.5179,-5.5179,-5.5179,-5.5179,-5.5179,-5.5179,-5.5359,-5.5478,-5.5478,-5.5658,-5.5748,-5.5748,-5.5598,-5.5478,-5.5478,-5.5299,-5.5179,-5.5179,-5.5179,-5.5179,-5.5179,-5.5179,-5.5179,-5.5179,-5.5179,-5.5179,-5.5179,-5.5179,-5.5179,-5.5179,-5.5179,-5.5179,-5.5179,-5.5179,-5.5179,-5.5179,-5.5179,-5.5179,-5.5179,-5.5179,-5.5179,-5.5179,0.0,0.0,0.0,0.0,0.0,0.0,0.0,0.0,0.0,0.0,0.0,0.0,0.0,0.0,0.0,0.0,0.0,0.0,0.0,-3.8165,-3.8592,-3.917,-3.9195,-3.9829,-4.1169,-4.2689,-4.4349,-4.6166,-4.6166,-4.655,-4.7309,-4.7309,-4.7429,-4.7698,-4.7698,-4.8057,-4.8686,-4.8955,-4.9523,-5.0226,-5.0465,-5.0823,-5.1229,0.0,0.0,0.0,0.0,0.0,0.0,0.0,0.0,0.0,0.0,0.0,0.0,-5.5179,-5.5179,-5.5179,0.0,0.0,0.0,0.0,0.0,0.0,0.0,0.0,0.0,0.0,0.0,0.0,0.0,-5.5179,0.0,-5.5179,-5.5179,-5.5179,-5.5179,-5.5179,-5.5179,-5.5179,-5.5179,-5.5179,-5.5179,-5.5179,-5.5179,-5.5179,-5.5179,-5.5179,-5.5179,-5.5179,-5.5179,-5.5179,-5.5179,-5.5179,-5.5179,-5.5179,-5.5179,-5.5179,-5.5179,-5.5179,-5.5179,-5.5179,-5.5179,-5.5179,-5.5179,-5.5179,-5.5179,-5.5179,-5.5179,-5.5179,-5.5179,-5.5179,-5.5179,-5.5179,-5.5179,-5.5179,0.0,0.0,0.0,0.0,0.0,0.0,0.0,0.0,0.0,0.0,0.0,0.0,0.0,0.0,0.0,0.0,0.0,0.0,0.0,0.0,-3.917,-3.9672,-3.9697,-4.0844,-4.3266,-4.3456,-4.4674,-4.7106,-4.7266,-4.7309,-4.7309,-4.7369,-4.7728,-4.8297,-4.8356,-4.8745,-4.9449,-5.0002,-5.0226,-5.0345,-5.0913,-5.1259,-5.1319,-5.1319,0.0,0.0,0.0,0.0,0.0,0.0,0.0,0.0,0.0,0.0,0.0,-5.5179,-5.5179,0.0,0.0,0.0,0.0,0.0,0.0,0.0,0.0,0.0,0.0,0.0,0.0,0.0,0.0,-5.5179,-5.5179,-5.5179,-5.5179,-5.5179,-5.5179,-5.5179,-5.5179,-5.5179,-5.5179,-5.5179,-5.5179,-5.5179,-5.5179,-5.5179,-5.5179,-5.5179,-5.5179,-5.5179,-5.5179,-5.5179,-5.5179,-5.5179,-5.5179,-5.5179,-5.5179,-5.5179,-5.5179,-5.5179,-5.5179,-5.5179,-5.5179,-5.5179,-5.5179,-5.5179,-5.5179,-5.5179,-5.5179,-5.5179,-5.5179,-5.5179,-5.5179,-5.5179,-5.5179,-5.5179,0.0,0.0,0.0,0.0,0.0,0.0,0.0,0.0,0.0,0.0,0.0,0.0,0.0,0.0,0.0,0.0,0.0,0.0,0.0,0.0,-3.9572,-3.9697,-3.9697,-4.0415,-4.1985,-4.2978,-4.4256,-4.5824,-4.6814,-4.7309,-4.7309,-4.7848,-4.8147,-4.8297,-4.888,-4.9434,-4.9986,-5.0136,-5.0495,-5.102,-5.1169,-5.1528,-5.1977,-5.1977,-5.2396,0.0,0.0,0.0,0.0,0.0,0.0,0.0,-5.5149,-5.5179,-5.5179,-5.5179,-5.5179,0.0,0.0,0.0,0.0,0.0,0.0,0.0,0.0,0.0,0.0,0.0,0.0,0.0,0.0,-5.5179,-5.5179,-5.5179,-5.5179,-5.5179,-5.5179,-5.5179,-5.5179,-5.5179,-5.5179,-5.5179,-5.5179,-5.5179,-5.5179,-5.5179,-5.5179,-5.5179,-5.5179,-5.5179,-5.5179,-5.5179,-5.5179,-5.5179,-5.5179,-5.5179,-5.5179,-5.5179,-5.5179,-5.5179,-5.5179,-5.5179,-5.5179,-5.5179,-5.5179,-5.5179,-5.5179,-5.5179,-5.5179,-5.5179,-5.5179,-5.5179,-5.5179,-5.5179,-5.5179,-5.5179,0.0,0.0,0.0,0.0,0.0,0.0,0.0,0.0,0.0,0.0,0.0,0.0,0.0,0.0,0.0,0.0,0.0,0.0,0.0,0.0,-3.9697,-3.9697,-3.9697,-4.0313,-4.1541,-4.2834,-4.4116,-4.5389,-4.7008,-4.7788,-4.7788,-4.8117,-4.8626,-4.9224,-4.9583,-5.0092,-5.0674,-5.0674,-5.09,-5.1259,-5.1558,-5.1887,-5.2247,-5.2546,-5.3084,-5.3683,-5.3683,0.0,0.0,0.0,0.0,0.0,0.0,0.0,-5.5179,-5.5179,-5.5179,0.0,0.0,0.0,0.0,0.0,0.0,0.0,0.0,0.0,0.0,0.0,0.0,0.0,0.0,-5.5179,-5.5179,-5.5179,-5.5179,-5.5179,-5.5179,-5.5179,-5.5179,-5.5179,-5.5179,-5.5179,-5.5179,-5.5179,-5.5179,-5.5179,-5.5179,-5.5179,-5.5179,-5.5179,-5.5179,-5.5179,-5.5179,-5.5179,-5.5179,-5.5179,-5.5179,-5.5179,-5.5179,-5.5179,-5.5179,-5.5179,-5.5179,-5.5179,-5.5179,-5.5179,-5.5179,-5.5179,-5.5179,-5.5179,-5.5179,-5.5179,-5.5179,-5.5179,-5.5179,-5.5179,0.0,0.0,0.0,0.0,0.0,0.0,0.0,0.0,0.0,0.0,0.0,0.0,0.0,0.0,0.0,0.0,0.0,0.0,0.0,0.0,0.0,-3.9697,-3.9697,-4.016,-4.1269,-4.2846,-4.419,-4.5241,-4.7391,-4.8506,0.0,0.0,-4.9194,-5.0196,-5.0315,-5.0674,-5.1229,-5.1229,-5.1289,-5.1439,-5.1977,-5.2336,-5.2606,-5.3144,-5.3773,-5.4371,-5.4371,-5.473,-5.5179,-5.5179,0.0,0.0,0.0,0.0,-5.5179,-5.5179,-5.5179,-5.5179,0.0,0.0,0.0,0.0,0.0,0.0,0.0,0.0,0.0,0.0,0.0,0.0,-5.5179,-5.5179,-5.5179,-5.5179,-5.5179,-5.5179,-5.5179,-5.5179,-5.5179,-5.5179,-5.5179,-5.5179,-5.5179,-5.5179,-5.5179,-5.5179,-5.5179,-5.5179,-5.5179,-5.5179,-5.5179,-5.5179,-5.5179,-5.5179,-5.5179,-5.5179,-5.5179,-5.5179,-5.5179,-5.5179,-5.5179,-5.5179,-5.5179,-5.5179,-5.5179,-5.5179,-5.5179,-5.5179,-5.5179,-5.5179,-5.5179,-5.5179,-5.5179,-5.5179,-5.5179,-5.5179,0.0,0.0,0.0,0.0,0.0,0.0,0.0,0.0,0.0,0.0,0.0,0.0,0.0,0.0,0.0,0.0,0.0,0.0,0.0,0.0,0.0,-3.9697,-3.9697,-3.98,-3.9929,-4.2861,-4.447,-4.4614,-4.7675,0.0,0.0,0.0,0.0,-5.0226,-5.0794,-5.1139,-5.1229,-5.1229,-5.1558,-5.2067,-5.2157,-5.2905,-5.3952,-5.4042,-5.4491,-5.5059,-5.5059,-5.5119,-5.5179,-5.5179,-5.5179,0.0,0.0,0.0,-5.5179,-5.5179,-5.5179,0.0,0.0,0.0,0.0,0.0,0.0,0.0,0.0,0.0,0.0,0.0,0.0,0.0,-5.5179,-5.5179,-5.5179,-5.5179,-5.5179,-5.5179,-5.5179,-5.5179,-5.5179,-5.5179,-5.5179,-5.5179,-5.5179,-5.5179,-5.5179,-5.5179,-5.5179,-5.5179,-5.5179,-5.5179,-5.5179,-5.5179,-5.5179,-5.5179,-5.5179,-5.5179,-5.5179,-5.5179,-5.5179,-5.5179,-5.5179,-5.5179,-5.5179,-5.5179,-5.5179,-5.5179,-5.5179,-5.5179,-5.5179,-5.5179,-5.5179,-5.5179,-5.5179,-5.5179,-5.5179,-5.5179,0.0,0.0,0.0,0.0,0.0,0.0,0.0,0.0,0.0,0.0,0.0,0.0,0.0,0.0,0.0,0.0,0.0,0.0,0.0,0.0,0.0,-4.0149,-4.1182,-4.1776,-4.1776,-4.4627,-4.612,-4.612,0.0,0.0,0.0,-5.0554,-5.0734,0.0,0.0,-5.1439,-5.1768,-5.1768,-5.2157,-5.2785,-5.3174,-5.3683,-5.4251,-5.461,-5.494,-5.5179,-5.5179,-5.5179,-5.5179,-5.5179,-5.5179,-5.5179,-5.5179,0.0,0.0,0.0,-5.5179,0.0,0.0,0.0,0.0,0.0,0.0,0.0,0.0,0.0,0.0,0.0,0.0,0.0,-5.5179,-5.5179,-5.5179,-5.5179,-5.5179,-5.5179,-5.5179,-5.5179,-5.5179,-5.5179,-5.5179,-5.5179,-5.5179,-5.5179,-5.5179,-5.5179,-5.5179,-5.5179,-5.5179,-5.5179,-5.5179,-5.5179,-5.5179,-5.5179,-5.5179,-5.5179,-5.5179,-5.5179,-5.5179,-5.5179,-5.5179,-5.5179,-5.5179,-5.5179,-5.5179,-5.5179,-5.5179,-5.5179,-5.5179,-5.5179,-5.5179,-5.5179,-5.5179,-5.5179,-5.5179,-5.5179,0.0,0.0,0.0,0.0,0.0,0.0,0.0,0.0,0.0,0.0,0.0,0.0,0.0,0.0,0.0,0.0,0.0,0.0,0.0,0.0,0.0,-4.0727,-4.211,-4.3022,-4.3358,-4.586,-4.7282,0.0,0.0,0.0,-5.0465,-5.099,-5.1319,0.0,-5.1468,-5.1738,-5.2217,-5.2366,-5.2845,-5.3503,-5.4012,-5.4311,-5.4521,-5.4999,-5.5179,-5.5179,-5.5179,-5.5179,-5.5179,-5.5179,-5.5179,-5.5179,-5.5179,-5.5179,0.0,0.0,0.0,0.0,0.0,0.0,0.0,0.0,0.0,0.0,0.0,0.0,0.0,0.0,0.0,0.0,-5.5179,-5.5179,-5.5179,-5.5179,-5.5179,-5.5179,-5.5179,-5.5179,-5.5179,-5.5179,-5.5179,-5.5179,-5.5179,-5.5179,-5.5179,-5.5179,-5.5179,-5.5179,-5.5179,-5.5179,-5.5179,-5.5179,-5.5179,-5.5179,-5.5179,-5.5179,-5.5179,-5.5179,-5.5179,-5.5179,-5.5179,-5.5179,-5.5179,-5.5179,-5.5179,-5.5179,-5.5179,-5.5179,-5.5179,-5.5179,-5.5179,-5.5179,-5.5179,-5.5179,-5.5179,-5.5179,0.0,0.0,0.0,0.0,0.0,0.0,0.0,0.0,0.0,0.0,0.0,0.0,-3.9697,-3.9697,-3.9697,-3.9697,-4.0174,0.0,0.0,0.0,0.0,-4.125,-4.1383,0.0,-4.3384,-4.5348,-4.6954,0.0,0.0,0.0,-5.1169,-5.1199,-5.1558,-5.2157,-5.2157,-5.2157,-5.2247,0.0,-5.3533,-5.4162,-5.4192,-5.4581,-5.5149,-5.5179,-5.5179,-5.5179,-5.5179,-5.5179,-5.5179,-5.5179,-5.5179,-5.5179,-5.5179,-5.5179,-5.5179,0.0,0.0,0.0,0.0,0.0,0.0,0.0,0.0,0.0,0.0,0.0,0.0,0.0,0.0,0.0,-5.5179,-5.5179,-5.5179,-5.5179,-5.5179,-5.5179,-5.5179,-5.5179,-5.5179,-5.5179,-5.5179,-5.5179,-5.5179,-5.5179,-5.5179,-5.5179,-5.5179,-5.5179,-5.5179,-5.5179,-5.5179,-5.5179,-5.5179,-5.5179,-5.5179,-5.5179,-5.5179,-5.5179,-5.5179,-5.5179,-5.5179,-5.5179,-5.5179,-5.5179,-5.5179,-5.5179,-5.5179,-5.5179,-5.5179,-5.5179,-5.5179,-5.5179,-5.5179,-5.5179,-5.5179,-5.5179,0.0,0.0,0.0,0.0,0.0,0.0,0.0,0.0,0.0,0.0,0.0,0.0,0.0,-3.9998,-4.0224,-4.0224,-4.0727,0.0,0.0,0.0,0.0,-4.1856,-4.3003,-4.4335,-4.5744,-4.7337,0.0,0.0,0.0,-5.1229,-5.1229,-5.1648,-5.1977,-5.2187,-5.2187,-5.2695,-5.3503,-5.3743,-5.4221,-5.485,-5.485,-5.497,-5.5179,-5.5179,-5.5179,-5.5179,-5.5179,-5.5179,-5.5179,-5.5179,-5.5179,-5.5179,-5.5179,-5.5179,-5.5179,-5.5179,-5.5179,0.0,0.0,0.0,0.0,0.0,0.0,0.0,0.0,0.0,0.0,0.0,0.0,0.0,-5.5179,-5.5179,-5.5179,-5.5179,-5.5179,-5.5179,-5.5179,-5.5179,-5.5179,-5.5179,-5.5179,-5.5179,-5.5179,-5.5179,-5.5179,-5.5179,-5.5179,-5.5179,-5.5179,-5.5179,-5.5179,-5.5179,-5.5179,-5.5179,-5.5179,-5.5179,-5.5179,-5.5179,-5.5179,-5.5179,-5.5179,-5.5179,-5.5179,-5.5179,-5.5179,-5.5179,-5.5179,-5.5179,-5.5179,-5.5179,-5.5179,-5.5179,-5.5179,-5.5179,-5.5179,-5.5179,0.0,0.0,0.0,0.0,0.0,0.0,0.0,0.0,-3.9697,-3.9697,0.0,0.0,0.0,0.0,-4.0877,-4.1053,-4.1404,-4.1706,-4.1882,-4.2233,-4.2489,-4.2489,-4.3647,-4.5209,-4.7043,0.0,0.0,0.0,0.0,0.0,0.0,-5.2217,-5.2665,-5.2875,-5.2875,-5.3384,0.0,0.0,-5.479,-5.5179,-5.5179,-5.5179,-5.5179,-5.5179,-5.5179,-5.5179,-5.5179,-5.5179,-5.5179,-5.5179,-5.5179,-5.5179,-5.5179,-5.5179,-5.5179,-5.5179,-5.5179,0.0,0.0,0.0,0.0,0.0,0.0,0.0,0.0,0.0,0.0,0.0,0.0,0.0,-5.5179,-5.5179,-5.5179,-5.5179,-5.5179,-5.5179,-5.5179,-5.5179,-5.5179,-5.5179,-5.5179,-5.5179,-5.5179,-5.5179,-5.5179,-5.5179,-5.5179,-5.5179,-5.5179,-5.5179,-5.5179,-5.5179,-5.5179,-5.5179,-5.5179,-5.5179,-5.5179,-5.5179,-5.5179,-5.5179,-5.5179,-5.5179,-5.5179,-5.5179,-5.5179,-5.5179,-5.5179,-5.5179,-5.5179,-5.5179,-5.5179,-5.5179,-5.5179,-5.5179,-5.5179,-5.5179,0.0,0.0,0.0,0.0,0.0,0.0,0.0,0.0,-3.9722,-3.9747,0.0,0.0,0.0,0.0,0.0,-4.2187,-4.2238,-4.2464,-4.2936,-4.2986,-4.2986,-4.3011,-4.3011,-4.4315,0.0,0.0,0.0,0.0,0.0,0.0,0.0,0.0,-5.3563,-5.4221,-5.4221,-5.4251,-5.4281,0.0,-5.5179,-5.5179,-5.5179,-5.5179,-5.5179,-5.5179,-5.5179,-5.5179,-5.5179,-5.5179,-5.5179,-5.5179,-5.5179,-5.5179,-5.5179,-5.5179,-5.5179,-5.5179,-5.5179,-5.5179,0.0,0.0,0.0,0.0,0.0,0.0,0.0,0.0,0.0,0.0,0.0,0.0,0.0,-5.5179,-5.5179,-5.5179,-5.5179,-5.5179,-5.5179,-5.5179,-5.5179,-5.5179,-5.5179,-5.5179,-5.5179,-5.5179,-5.5179,-5.5179,-5.5179,-5.5179,-5.5179,-5.5179,-5.5179,-5.5179,-5.5179,-5.5179,-5.5179,-5.5179,-5.5179,-5.5179,-5.5179,-5.5179,-5.5179,-5.5179,-5.5179,-5.5179,-5.5179,-5.5179,-5.5179,-5.5179,-5.5179,-5.5179,-5.5179,-5.5179,-5.5179,-5.5179,-5.5179,-5.5179,0.0,0.0,0.0,0.0,0.0,-3.9823,-4.0224,-4.03,-4.0425,0.0,0.0,0.0,-4.105,-4.1605,-4.2158,-4.271,-4.2816,-4.2811,-4.2961,-4.2986,-4.3162,-4.3564,-4.3564,-4.4591,-4.6755,0.0,0.0,0.0,0.0,0.0,0.0,0.0,0.0,0.0,-5.47,-5.491,-5.494,-5.5119,0.0,-5.5179,-5.5179,-5.5179,-5.5179,-5.5179,-5.5179,-5.5179,-5.5179,-5.5179,-5.5179,-5.5179,-5.5179,-5.5179,-5.5179,-5.5179,-5.5179,-5.5179,-5.5179,-5.5179,-5.5179,0.0,0.0,0.0,0.0,0.0,0.0,0.0,0.0,0.0,0.0,0.0,0.0,-5.5179,-5.5179,-5.5179,-5.5179,-5.5179,-5.5179,-5.5179,-5.5179,-5.5179,-5.5179,-5.5179,-5.5179,-5.5179,-5.5179,-5.5179,-5.5179,-5.5179,-5.5179,-5.5179,-5.5179,-5.5179,-5.5179,-5.5179,-5.5179,-5.5179,-5.5179,-5.5179,-5.5179,-5.5179,-5.5179,-5.5179,-5.5179,-5.5179,-5.5179,-5.5179,-5.5179,-5.5179,-5.5179,-5.5179,-5.5179,-5.5179,-5.5179,-5.5179,-5.5179,-5.5179,0.0,0.0,0.0,0.0,0.0,-4.0501,-4.0802,-4.0799,-4.0924,0.0,0.0,0.0,-4.2007,-4.2509,-4.2961,-4.3288,-4.3539,-4.3664,-4.3664,-4.3664,-4.3815,-4.4141,-4.4141,-4.5243,-4.7565,-4.8136,-4.9568,0.0,0.0,-5.234,-5.2691,-5.3368,-5.3692,0.0,0.0,0.0,0.0,0.0,0.0,-5.5179,-5.5179,-5.5179,-5.5179,-5.5179,-5.5179,-5.5179,-5.5179,-5.5179,-5.5179,-5.5179,-5.5179,-5.5179,-5.5179,-5.5179,-5.5179,-5.5179,-5.5179,-5.5179,-5.5179,-5.5179,-5.5179,-5.5179,0.0,0.0,-5.5179,-5.5179,0.0,0.0,0.0,0.0,0.0,-5.5179,-5.5179,-5.5179,-5.5179,-5.5179,-5.5179,-5.5179,-5.5179,-5.5179,-5.5179,-5.5179,-5.5179,-5.5179,-5.5179,-5.5179,-5.5179,-5.5179,-5.5179,-5.5179,-5.5179,-5.5179,-5.5179,-5.5179,-5.5179,-5.5179,-5.5179,-5.5179,-5.5179,-5.5179,-5.5179,-5.5179,-5.5179,-5.5179,-5.5179,-5.5179,-5.5179,-5.5179,-5.5179,-5.5179,-5.5179,-5.5179,-5.5179,-5.5179,-5.5179,-5.5179,0.0,0.0,-4.0601,-4.0601,-4.0949,-4.13,-4.1376,-4.1376,-4.1401,0.0,-4.2007,-4.259,-4.3011,-4.3564,-4.389,-4.389,-4.4342,-4.4618,-4.4618,-4.4618,-4.4644,-4.4719,-4.4719,-4.5933,-4.8572,-4.8094,-4.9391,-5.2684,-5.1324,-5.1092,-5.1866,-5.2492,-5.2722,-5.2804,0.0,0.0,0.0,0.0,0.0,-5.5179,-5.5179,-5.5179,-5.5179,-5.5179,-5.5179,-5.5179,-5.5179,-5.5179,-5.5179,-5.5179,-5.5179,-5.5179,-5.5179,-5.5179,-5.5179,-5.5179,-5.5179,-5.5179,-5.5179,-5.5179,-5.5179,-5.5179,-5.5179,0.0,-5.5179,-5.5179,-5.5179,-5.5179,0.0,0.0,0.0,0.0,-5.5179,-5.5179,-5.5179,-5.5179,-5.5179,-5.5179,-5.5179,-5.5179,-5.5179,-5.5179,-5.5179,-5.5179,-5.5179,-5.5179,-5.5179,-5.5179,-5.5179,-5.5179,-5.5179,-5.5179,-5.5179,-5.5179,-5.5179,-5.5179,-5.5179,-5.5179,-5.5179,-5.5179,-5.5179,-5.5179,-5.5179,-5.5179,-5.5179,-5.5179,-5.5179,-5.5179,-5.5179,-5.5179,-5.5179,-5.5179,-5.5179,-5.5179,-5.5179,-5.5179,0.0,-4.105,-4.1125,-4.1125,-4.12,-4.148,-4.1932,-4.2037,-4.2158,-4.261,-4.3137,-4.3514,-4.3639,-4.4141,-4.4468,-4.4468,-4.4568,-4.4618,-4.4618,-4.4618,-4.4844,-4.5296,-4.5321,-4.5792,-4.6813,-4.78,-4.8695,-4.9409,-5.027,-5.0823,-5.0986,-5.1098,-5.1153,-5.1153,0.0,0.0,0.0,0.0,0.0,-5.5179,-5.5179,-5.5179,-5.5179,-5.5179,-5.5179,-5.5179,-5.5179,-5.5179,-5.5179,-5.5179,-5.5179,-5.5179,-5.5179,-5.5179,-5.5179,-5.5179,-5.5179,-5.5179,-5.5179,-5.5179,-5.5179,-5.5179,-5.5179,0.0,-5.5179,-5.5179,-5.5179,0.0,0.0,0.0,0.0,0.0,-5.5179,-5.5179,-5.5179,-5.5179,-5.5179,-5.5179,-5.5179,-5.5179,-5.5179,-5.5179,-5.5179,-5.5179,-5.5179,-5.5179,-5.5179,-5.5179,-5.5179,-5.5179,-5.5179,-5.5179,-5.5179,-5.5179,-5.5179,-5.5179,-5.5179,-5.5179,-5.5179,-5.5179,-5.5179,-5.5179,-5.5179,-5.5179,-5.5179,-5.5179,-5.5179,-5.5179,-5.5179,-5.5179,-5.5179,-5.5179,-5.5179,-5.5179,-5.5179,-5.5179,-4.1275,-4.1555,-4.1756,-4.1756,-4.1982,-4.2258,-4.2564,-4.2615,-4.276,-4.3313,-4.3865,-4.4217,-4.4217,-4.4719,-4.5045,-4.5045,-4.5296,-4.5472,-4.5472,-4.5472,-4.5598,-4.5874,-4.5899,-4.6357,-4.7357,-4.7416,-4.8126,-4.9621,-4.8851,-4.8908,-4.9621,-4.9621,-4.9988,-5.0713,0.0,0.0,0.0,0.0,-5.2722,-5.42,-5.4896,-5.5179,-5.5179,-5.5179,-5.5179,-5.5179,-5.5179,-5.5179,-5.5179,-5.5179,-5.5179,-5.5179,-5.5179,-5.5179,-5.5179,-5.5179,-5.5179,-5.5179,-5.5179,-5.5179,-5.5179,-5.5179,-5.5179,0.0,0.0,-5.5179,-5.5179,-5.5179,0.0,0.0,0.0,0.0,-5.5179,-5.5179,-5.5179,-5.5179,-5.5179,-5.5179,-5.5179,-5.5179,-5.5179,-5.5179,-5.5179,-5.5179,-5.5179,-5.5179,-5.5179,-5.5179,-5.5179,-5.5179,-5.5179,-5.5179,-5.5179,-5.5179,-5.5179,-5.5179,-5.5179,-5.5179,-5.5179,-5.5179,-5.5179,-5.5179,-5.5179,-5.5179,-5.5179,-5.5179,-5.5179,-5.5179,-5.5179,-5.5179,-5.5179,-5.5179,-5.5179,-5.5179,-5.5179,-5.5179,-4.1681,-4.2007,-4.2363,-4.2363,-4.2816,-4.3137,-4.3137,-4.3212,-4.3463,-4.389,-4.4443,-4.4794,-4.4794,-4.5296,-4.5648,-4.5648,-4.605,-4.6301,-4.6301,-4.6301,-4.6301,-4.6301,-4.6301,-4.6874,-4.8035,-4.6934,-4.7475,-4.982,-4.7475,-4.6934,-4.8094,-4.8094,-4.8678,0.0,0.0,0.0,0.0,0.0,0.0,-5.3069,-5.4304,-5.4976,-5.5179,-5.5179,-5.5179,-5.5179,-5.5179,-5.5179,-5.5179,-5.5179,-5.5179,-5.5179,-5.5179,-5.5179,-5.5179,-5.5179,-5.5179,-5.5179,-5.5179,-5.5179,-5.5179,-5.5179,-5.5179,-5.5179,0.0,0.0,0.0,-5.5179,0.0,0.0,0.0,0.0,0.0,0.0,0.0,0.0,0.0,-5.5179,0.0,-5.5179,-5.5179,-5.5179,-5.5179,-5.5179,-5.5179,-5.5179,-5.5179,-5.5179,-5.5179,-5.5179,-5.5179,-5.5179,-5.5179,-5.5179,-5.5179,-5.5179,-5.5179,-5.5179,-5.5179,-5.5179,-5.5179,-5.5179,-5.5179,-5.5179,-5.5179,-5.5179,-5.5179,-5.5179,-5.5179,-5.5179,-5.5179,-5.5179,-5.5179,-5.5179,-5.5179,-5.5179,-4.2886,-4.2836,-4.2886,-4.2886,-4.3338,-4.3714,-4.3714,-4.4116,-4.4468,-4.4518,-4.502,-4.5397,-4.5397,-4.5874,-4.6225,-4.6225,-4.6276,-4.6301,-4.6301,-4.6301,-4.6301,-4.6301,-4.6301,-4.6361,-4.6541,-4.6361,-4.6481,-4.6815,-4.6481,-4.6361,-4.6541,-4.6541,-4.6636,0.0,-4.6815,0.0,0.0,0.0,-5.0407,0.0,-5.3174,-5.4016,-5.5179,-5.5179,-5.5179,-5.5179,-5.5179,-5.5179,-5.5179,-5.5179,-5.5179,-5.5179,-5.5179,-5.5179,-5.5179,-5.5179,-5.5179,-5.5179,-5.5179,-5.5179,-5.5179,-5.5179,-5.5179,-5.5179,-5.5179,0.0,-5.5179,-5.5179,0.0,-5.5179,-5.5179,0.0,0.0,-5.5179,0.0,0.0,-5.5179,-5.5179,-5.5179,-5.5179,-5.5179,-5.5179,-5.5179,-5.5179,-5.5179,-5.5179,-5.5179,-5.5179,-5.5179,-5.5179,-5.5179,-5.5179,-5.5179,-5.5179,-5.5179,-5.5179,-5.5179,-5.5179,-5.5179,-5.5179,-5.5179,-5.5179,-5.5179,-5.5179,-5.5179,-5.5179,-5.5179,-5.5179,-5.5179,-5.5179,-5.5179,-5.5179,-5.5179,-5.5179,-5.5179,-5.5179,-4.3991,-4.394,-4.394,-4.394,-4.4116,-4.4267,-4.4267,-4.4769,-4.5121,-4.5121,-4.5623,-4.5974,-4.5974,-4.6175,-4.6301,-4.6301,-4.6301,-4.6301,-4.6301,-4.6301,-4.6301,-4.6301,-4.6301,-4.6301,-4.6301,-4.6301,-4.6301,-4.6301,-4.6301,-4.6301,-4.6301,-4.6301,-4.6755,-4.7534,-4.6695,0.0,-4.8416,0.0,-4.8416,0.0,0.0,-5.1291,-5.2775,-5.4509,-5.5179,-5.5179,-5.5179,-5.5179,-5.5179,-5.5179,-5.5179,-5.5179,-5.5179,-5.5179,-5.5179,-5.5179,-5.5179,-5.5179,-5.5179,-5.5179,-5.5179,-5.5179,-5.5179,-5.5179,-5.5179,-5.5179,-5.5179,-5.5179,0.0,0.0,0.0,0.0,0.0,0.0,-5.5179,-5.5179,0.0,0.0,-5.5179,-5.5179,-5.5179,-5.5179,-5.5179,-5.5179,-5.5179,-5.5179,-5.5179,-5.5179,-5.5179,-5.5179,-5.5179,-5.5179,-5.5179,-5.5179,-5.5179,-5.5179,-5.5179,-5.5179,-5.5179,-5.5179,-5.5179,-5.5179,-5.5179,-5.5179,-5.5179,-5.5179,-5.5179,-5.5179,-5.5179,-5.5179,-5.5179,-5.5179,-5.5179,-5.5179,-5.5179,-5.5179,-4.5045,-4.4844,-4.4618,-4.4618,-4.4744,-4.492,-4.507,-4.5447,-4.5723,-4.5723,-4.6075,-4.6301,-4.6301,-4.6301,-4.6301,-4.6301,-4.6301,-4.6301,-4.6301,-4.6301,-4.6301,-4.6301,-4.6301,-4.6301,-4.6301,-4.6301,-4.6301,-4.6301,-4.6301,-4.6301,-4.6301,-4.6301,-4.6874,-4.786,0.0,-4.6874,-4.7802,0.0,-4.7146,-4.8474,-4.8474,-4.9502,-5.1211,-5.3681,-5.4679,-5.4856,-5.4856,-5.4945,-5.5093,-5.5093,-5.5381,-5.5718,-5.5718,-5.5598,-5.5448,-5.5448,-5.5329,-5.5179,-5.5179,-5.5179,-5.5179,-5.5179,-5.5179,-5.5179,-5.5179,-5.5179,-5.5179,-5.5179,-5.5179,0.0,0.0,0.0,-5.5179,-5.5179,0.0,-5.5179,-5.5179,-5.5179,0.0,-5.5179,-5.5179,-5.5179,-5.5179,-5.5179,-5.5179,-5.5179,-5.5179,-5.5179,-5.5179,-5.5179,-5.5179,-5.5179,-5.5179,-5.5179,-5.5179,-5.5179,-5.5179,-5.5179,-5.5179,-5.5179,-5.5179,-5.5179,-5.5179,-5.5179,-5.5179,-5.5179,-5.5179,-5.5179,-5.5179,-5.5179,-5.5179,-5.5179,-5.5179,-5.5179,-5.5179,-5.5179,-4.615,-4.5372,-4.4618,-4.4618,-4.5095,-4.5648,-4.6175,-4.6276,-4.6276,-4.6276,-4.6301,-4.6301,-4.6301,-4.6301,-4.6301,-4.6301,-4.6301,-4.6301,-4.6301,-4.6301,-4.6301,-4.6301,-4.6301,-4.6301,-4.6301,-4.6301,-4.6301,-4.6301,-4.6301,-4.6301,-4.6301,-4.6301,-4.6301,-4.6361,-4.6301,-4.6301,-4.6361,-4.6301,-4.7146,-4.8474,-4.8474,-4.9714,-5.1654,-5.2712,-5.3391,-5.3831,-5.3831,-5.4259,-5.4777,-5.4777,-5.5782,-5.7034,-5.7034,-5.6615,-5.6188,-5.6188,-5.5688,-5.5179,-5.5179,-5.5179,-5.5179,-5.5179,-5.5179,-5.5179,-5.5179,-5.5179,-5.5179,-5.5179,-5.5179,-5.5179,-5.5179,-5.5179,-5.5179,-5.5179,-5.5179,0.0,0.0,-5.5179,-5.5179,-5.5179,-5.5179,-5.5179,-5.5179,-5.5179,-5.5179,-5.5179,-5.5179,-5.5179,-5.5179,-5.5179,-5.5179,-5.5179,-5.5179,-5.5179,-5.5179,-5.5179,-5.5179,-5.5179,-5.5179,-5.5179,-5.5179,-5.5179,-5.5179,-5.5179,-5.5179,-5.5179,-5.5179,-5.5179,-5.5179,-5.5179,-5.5179,-5.5179,-5.5179,-5.5179,-5.5179,-5.5179,-4.6276,-4.5999,-4.5748,-4.5748,0.0,-4.61,-4.6276,-4.6301,-4.6301,-4.6301,-4.6301,-4.6301,-4.6301,-4.6301,-4.6301,-4.6301,-4.6301,-4.6301,-4.6301,-4.6301,-4.6301,-4.6301,-4.6301,-4.6301,-4.6301,-4.6301,-4.6301,-4.6301,-4.6301,-4.6301,-4.6301,-4.6301,-4.6301,-4.6301,0.0,-4.6301,0.0,0.0,0.0,0.0,0.0,-4.883,-5.0644,-5.0604,-5.1538,-5.2883,-5.2883,-5.2995,-5.3247,-5.3247,-5.3585,-5.3977,-5.3977,-5.4581,-5.5279,-5.5279,-5.5854,-5.6466,-5.6466,-5.6466,-5.6466,-5.6466,-5.6466,-5.6466,-5.6466,-5.6137,-5.5837,-5.5837,-5.5508,-5.5179,-5.5179,-5.5179,-5.5179,-5.5179,-5.5179,-5.5179,0.0,-5.5179,-5.5179,-5.5179,-5.5179,-5.5179,-5.5179,-5.5179,-5.5179,-5.5179,-5.5179,-5.5179,-5.5179,-5.5179,-5.5179,-5.5179,-5.5179,-5.5179,-5.5179,-5.5179,-5.5179,-5.5179,-5.5179,-5.5179,-5.5179,-5.5179,-5.5179,-5.5179,-5.5179,-5.5179,-5.5179,-5.5179,-5.5179,-5.5179,-5.5179,-5.5179,-5.5179,-5.5179,-5.5179,-5.5179,-4.6301,-4.6301,-4.6301,-4.6301,-4.6301,-4.6301,-4.6301,-4.6301,-4.6301,-4.6301,-4.6301,-4.6301,-4.6301,-4.6301,-4.6301,-4.6301,-4.6301,-4.6301,-4.6301,-4.6301,-4.6301,-4.6301,-4.6301,-4.6301,-4.6301,-4.6301,-4.6301,-4.6301,-4.6301,-4.6301,-4.6301,-4.6301,-4.6301,-4.6301,0.0,-4.6301,-4.6301,0.0,-4.6426,0.0,0.0,-4.8324,-4.9654,-4.9265,-5.028,-5.1878,-5.1878,-5.2072,-5.2262,-5.2262,-5.2615,-5.3082,-5.3082,-5.3636,-5.4317,-5.4317,-5.4842,-5.5542,-5.6137,-5.6297,-5.6403,-5.6989,-5.7094,-5.7094,-5.7094,-5.6795,-5.6496,-5.6496,-5.6166,-5.5867,-5.5867,-5.5867,-5.5807,-5.5568,-5.5538,-5.5448,0.0,-5.5179,-5.5179,-5.5179,-5.5179,-5.5179,-5.5179,-5.5179,-5.5179,-5.5179,-5.5179,-5.5179,-5.5179,-5.5179,-5.5179,-5.5179,-5.5179,-5.5179,-5.5179,-5.5179,-5.5179,-5.5179,-5.5179,-5.5179,-5.5179,-5.5179,-5.5179,-5.5179,-5.5179,-5.5179,-5.5179,-5.5179,-5.5179,-5.5179,-5.5179,-5.5179,-5.5179,-5.5179,-5.5179,-5.5179,-4.6301,-4.6301,-4.6301,-4.6301,-4.6301,-4.6301,-4.6301,-4.6301,-4.6301,-4.6301,-4.6301,-4.6301,-4.6301,-4.6301,-4.6301,-4.6301,-4.6301,-4.6301,-4.6301,-4.6301,-4.6301,-4.6301,-4.6301,-4.6301,-4.6301,-4.6301,-4.6301,-4.6301,-4.6301,-4.6301,-4.6301,-4.6301,-4.6301,-4.6301,-4.6301,0.0,-4.6351,-4.6351,-4.6677,-4.7255,-4.7757,-4.8284,-4.8812,-4.8812,-4.9706,-5.0926,-5.0926,-5.1329,-5.1865,-5.1865,-5.2883,-5.4149,-5.4149,-5.3795,-5.3327,-5.3327,-5.2914,-5.2875,-5.448,-5.4866,-5.5278,-5.6786,-5.7184,-5.7184,-5.7184,-5.7154,-5.7154,-5.7154,-5.7072,-5.7042,-5.7094,-5.7042,-5.6833,-5.6316,-5.6248,-5.6008,-5.5329,-5.5158,-5.5128,-5.5179,-5.5128,-5.5128,-5.5179,-5.5179,-5.5179,-5.5179,-5.5179,-5.5179,-5.5179,-5.5179,-5.5179,-5.5179,-5.5179,-5.5179,-5.5179,-5.5179,-5.5179,-5.5179,-5.5179,-5.5179,-5.5179,-5.5179,-5.5179,-5.5179,-5.5179,-5.5179,-5.5179,-5.5179,-5.5179,-5.5179,-5.5179,-5.5179,-5.5179,-5.5179,-5.5179,-5.5179,-4.6301,-4.6301,-4.6301,-4.6301,-4.6301,-4.6301,-4.6301,-4.6301,-4.6301,-4.6301,-4.6301,-4.6301,-4.6301,-4.6301,-4.6301,-4.6301,-4.6301,-4.6301,-4.6301,-4.6301,-4.6301,-4.6301,-4.6301,-4.6301,-4.6301,-4.6301,-4.6301,-4.6301,-4.6301,-4.6301,-4.6301,-4.6301,-4.6301,-4.6301,0.0,0.0,-4.6928,-4.6928,-4.7481,-4.836,-4.8485,-4.8887,-4.9389,-4.9389,-4.962,-4.9977,-4.9977,-5.0079,-5.0181,-5.0181,-5.0499,-5.0853,-5.0853,-5.1538,-5.2337,-5.2337,-5.3076,-5.421,-5.5766,-5.6246,-5.6582,-5.8183,-5.859,-5.859,-5.859,-5.8201,-5.7872,-5.7872,-5.6544,-5.5733,-5.6885,-5.6137,-5.5703,-5.6728,-5.6466,-5.6158,-5.6008,-5.4547,-5.3964,-5.5078,-5.4252,-5.4016,-5.5078,-5.5179,-5.5179,-5.5179,-5.5179,-5.5179,-5.5179,-5.5179,-5.5179,-5.5179,-5.5179,-5.5179,-5.5179,-5.5179,-5.5179,-5.5179,-5.5179,-5.5179,-5.5179,-5.5179,-5.5179,-5.5179,-5.5179,-5.5179,-5.5179,-5.5179,-5.5179,-5.5179,-5.5179,-5.5179,-5.5179,-5.5179,-5.5179,-5.5179,-4.6301,-4.6301,-4.6301,-4.6301,-4.6301,-4.6301,-4.6301,-4.6301,-4.6401,-4.6652,-4.6677,-4.6753,-4.6979,-4.7004,-4.7004,-4.7004,-4.7004,-4.7004,-4.7004,-4.7004,-4.7004,-4.7004,-4.7004,-4.6903,-4.6677,-4.6677,-4.6552,-4.6301,-4.6301,-4.6301,-4.6301,0.0,0.0,0.0,0.0,-4.6853,0.0,-4.7631,-4.8209,-4.8786,-4.9038,-4.9314,0.0,-4.959,-4.959,-4.959,-4.959,-4.959,-4.959,-4.959,-4.959,-4.959,-4.959,-5.0181,-5.0979,-5.0979,-5.158,-5.2639,-5.424,-5.4654,-5.5007,-5.6622,-5.7047,-5.7047,-5.7047,-5.6758,-5.6441,-5.6441,-5.548,-5.4856,-5.5781,-5.5781,-5.6026,-5.7309,-5.7004,-5.6585,-5.6585,-5.5338,-5.4427,-5.4583,-5.4244,-5.4016,-5.4252,-5.4794,-5.5179,-5.5179,-5.5179,-5.5179,-5.5179,-5.5179,-5.5179,-5.5179,-5.5179,-5.5179,-5.5179,-5.5179,-5.5179,-5.5179,-5.5179,-5.5179,-5.5179,-5.5179,-5.5179,-5.5179,-5.5179,-5.5179,-5.5179,-5.5179,-5.5179,-5.5179,-5.5179,-5.5179,-5.5179,-5.5179,-5.5179,-5.5179,-4.6301,-4.6301,-4.6301,-4.6301,-4.6376,-4.6426,-4.6426,-4.6426,-4.6602,-4.7079,-4.7143,-4.7405,-4.7857,-4.7908,-4.7908,-4.7908,-4.7908,-4.7908,-4.7908,-4.7908,-4.7908,-4.7908,-4.7908,-4.7682,-4.7193,-4.7168,-4.7004,-4.6527,-4.6527,-4.6527,-4.6527,0.0,0.0,0.0,0.0,0.0,0.0,-4.8435,-4.8887,-4.8912,-4.9414,-4.964,-4.969,-4.969,-4.9741,-4.9816,-4.9816,-4.9766,-4.969,-4.969,-4.9766,-4.9816,-4.9816,-4.9816,-4.9816,-4.9816,-4.9816,-5.0178,-5.1789,-5.22,-5.2633,-5.4216,-5.4635,-5.4635,-5.4635,-5.4635,-5.4635,-5.4635,-5.4401,-5.4259,-5.4465,-5.5558,-5.6732,-5.7754,-5.7398,-5.6898,-5.6657,-5.6123,-5.5312,-5.4161,-5.4223,0.0,-5.3184,-5.423,-5.4926,-5.4926,-5.4743,-5.4611,-5.4611,-5.4611,-5.4611,-5.4611,-5.4794,-5.4926,-5.4926,-5.4926,-5.5027,-5.5179,-5.5027,-5.5027,-5.5179,-5.5179,-5.5179,-5.5179,-5.5179,-5.5179,-5.5179,-5.5179,-5.5179,-5.5179,-5.5179,-5.5179,-5.5179,-5.5179,-5.5179,-5.5179,-4.6301,-4.6301,-4.6301,-4.6301,-4.6702,-4.6979,-4.6979,-4.6979,-4.6968,-4.7129,-4.7506,-4.7807,-4.7908,-4.7908,-4.7908,-4.7908,-4.7908,-4.7908,-4.7908,-4.7908,-4.7908,-4.7908,-4.7908,-4.7857,-4.7782,-4.7782,-4.7732,-4.7631,-4.7631,-4.7631,-4.7631,-4.7631,0.0,0.0,0.0,0.0,-4.8535,-4.9188,-4.9439,-4.9464,-4.9565,-4.9866,-5.0268,-5.0268,-5.0569,-5.0996,-5.0996,-5.067,-5.0268,-5.0268,-5.0594,-5.0996,-5.0996,-5.0996,-5.0996,-5.0996,-5.0996,-5.1342,-5.2929,-5.3324,-5.3704,-5.5299,-5.5728,-5.5728,-5.5728,-5.5728,-5.5728,-5.5728,-5.4302,-5.3485,-5.4803,-5.4897,-5.5299,-5.6705,-5.6408,-5.5586,-5.4203,-5.3556,-5.35,-5.4498,-5.2099,-5.1233,-5.3522,-5.3545,-5.3413,-5.3413,-5.2213,-5.1481,-5.1481,-5.1481,-5.1481,-5.1481,-5.2722,-5.3413,-5.3413,-5.3413,-5.4016,-5.5179,-5.3964,-5.4016,-5.5179,-5.5179,-5.5179,-5.5179,-5.5179,-5.5179,-5.5179,-5.5179,-5.5179,-5.5179,-5.5179,-5.5179,-5.5179,-5.5179,-5.5179,-5.5179,-4.6677,-4.6728,-4.6828,-4.7079,-4.7355,-4.7531,-4.7531,-4.7782,-4.7983,-4.7983,-4.8209,-4.846,-4.8761,-4.8786,-4.8786,-4.8786,-4.8786,-4.8786,-4.8786,-4.8786,-4.8786,-4.8786,-4.8786,-4.8636,-4.836,-4.836,-4.8209,-4.7908,-4.7908,-4.7908,-4.7908,-4.7908,-4.7908,0.0,0.0,-4.8661,0.0,-4.949,-4.9766,-5.0017,-5.0017,-5.0368,-5.087,-5.087,-5.1046,-5.1272,-5.1272,-5.1297,-5.1247,-5.0971,-5.1046,-5.1272,-5.1272,-5.1272,-5.1272,-5.1272,-5.1272,-5.1472,-5.2188,-5.2425,-5.262,-5.3345,-5.3538,-5.3538,-5.3538,-5.3538,-5.3538,-5.3538,-5.2776,-5.2426,-5.3734,-5.3774,-5.4024,-5.5325,-5.5276,-5.479,-5.4003,-5.3392,-5.2947,-5.2917,-5.1731,-5.1177,-5.1923,-5.1429,-5.1626,-5.2886,-5.2295,-5.2213,-5.2987,-5.232,-5.2213,-5.2987,-5.3016,-5.3016,-5.3016,-5.2241,-5.2705,-5.4485,-5.2994,-5.322,-5.4961,-5.4104,-5.378,-5.378,-5.4614,-5.5014,-5.5066,-5.5857,-5.6166,-5.6166,-5.6166,-5.6166,-5.6166,-5.6166,-5.6166,-5.6077,-4.7205,-4.7305,-4.7431,-4.7832,-4.8109,-4.8259,-4.8259,-4.8862,-4.9213,-4.8987,-4.9063,-4.9339,-4.9891,-4.9967,-4.9967,-4.9967,-4.9967,-4.9967,-4.9967,-4.9967,-4.9967,-4.9967,-4.9841,-4.9565,-4.9138,-4.9012,-4.8711,-4.8259,-4.8259,-4.8209,-4.8083,-4.8209,-4.8259,-4.8284,-4.8736,-4.9264,-4.9766,-4.9766,-5.0092,-5.0594,-5.0594,-5.0946,-5.1448,-5.1448,-5.1523,-5.1624,-5.1624,-5.19,-5.2226,-5.1774,-5.1624,-5.1624,-5.1624,-5.1624,-5.1624,-5.1624,-5.1624,-5.1624,-5.1624,-5.1624,-5.1624,-5.1624,-5.1624,-5.1624,-5.1624,-5.1624,-5.1624,-5.1624,-5.1548,-5.1778,-5.2769,-5.2728,-5.286,-5.3909,-5.4041,-5.3894,-5.3456,-5.3201,-5.2664,-5.1512,-5.1496,-5.1299,-5.0518,-4.9844,-5.0313,-5.2287,-5.1896,-5.2079,-5.3256,-5.2187,-5.2133,-5.3256,-5.2598,-5.2195,-5.2195,-5.1155,-5.16,-5.354,-5.2043,-5.2377,-5.4284,-5.302,-5.2621,-5.302,-5.4284,-5.5028,-5.5409,-5.6591,-5.7094,-5.7094,-5.7094,-5.7094,-5.7094,-5.7094,-5.7094,-5.6944,-4.7832,-4.7832,-4.7857,-4.7908,-4.8761,-4.9439,-4.9439,-5.0368,-5.067,-4.9665,-4.9967,-5.0494,-5.1071,-5.1122,-5.1122,-5.1122,-5.1122,-5.1122,-5.1122,-5.1122,-5.1122,-5.1122,-5.0619,-5.0318,-5.0268,-4.9766,-4.949,-4.9439,-4.9439,-4.9188,-4.8711,-4.9213,-4.9439,-4.9439,-4.949,-4.9816,-5.0343,-5.0343,-5.067,-5.1197,-5.1197,-5.1523,-5.2026,-5.2026,-5.2327,-5.2779,-5.2779,-5.2804,-5.2854,-5.2779,-5.2779,-5.2779,-5.2779,-5.2779,-5.2779,-5.2779,-5.2779,-5.2779,-5.2779,-5.2779,-5.2779,-5.2779,-5.2779,-5.2779,-5.2779,-5.2779,-5.2779,-5.2779,-5.2377,-5.2362,-5.3372,-5.2347,-5.1762,-5.2797,-5.2942,-5.2282,-5.0321,-5.1216,-5.2068,-5.1971,-5.026,-4.964,-5.097,-5.0537,-5.0201,-5.0445,-4.828,-4.6968,-4.7146,-4.6968,-4.6968,-4.7146,-4.8799,-4.9653,-4.9653,-5.0035,-5.1035,-5.251,-5.103,-5.1116,-5.2621,-5.2506,-5.319,-5.456,-5.4725,-5.5571,-5.6937,-5.7042,-5.7094,-5.7094,-5.7094,-5.7094,-5.7094,-5.7094,-5.7094,-5.7064,-4.836,-4.8686,-4.9012,-4.9364,-5.0067,-5.0594,-5.0594,-5.0996,-5.1247,-5.1122,-5.0996,-5.1021,-5.1247,-5.1272,-5.1272,-5.1272,-5.1272,-5.1272,-5.1272,-5.1272,-5.1272,-5.1272,-5.1046,-5.0946,-5.0946,-5.0368,-5.0092,-5.0092,-4.9766,-4.949,-4.9264,-4.949,-4.9766,-5.0092,-5.0092,-5.0393,-5.0946,-5.0946,-5.1272,-5.1774,-5.1774,-5.2101,-5.2603,-5.2603,-5.2729,-5.2929,-5.2929,-5.2929,-5.2929,-5.2929,-5.2929,-5.2929,-5.2929,-5.2929,-5.2929,-5.2929,-5.2929,-5.2929,-5.2929,-5.2929,-5.2929,-5.2929,-5.2929,-5.2929,-5.2929,-5.2929,-5.2929,-5.2929,-5.2754,-5.2606,-5.267,-5.2219,-5.1774,-5.1893,-5.1921,-5.1456,-5.0233,-5.0625,-5.0921,-5.0588,-4.9812,-4.9519,-5.0166,-4.9717,-4.9384,-4.9384,-4.8945,-4.9053,-4.9914,-4.9113,-4.9502,-5.1334,-5.042,-5.0292,-5.1231,-4.9636,-4.9768,-5.1648,-5.0071,-5.0315,-5.2098,-5.118,-5.1581,-5.3229,-5.5083,-5.6321,-5.6958,-5.7886,-5.8291,-5.8291,-5.8291,-5.8291,-5.8291,-5.8291,-5.8291,-5.8291,-4.9439,-4.9816,-5.0218,-5.0594,-5.1147,-5.1523,-5.1523,-5.1649,-5.19,-5.2302,-5.2,-5.1774,-5.1774,-5.1774,-5.1774,-5.1774,-5.1774,-5.1774,-5.1774,-5.1774,-5.1774,-5.1774,-5.1599,-5.1523,-5.1523,-5.0971,-5.067,-5.067,-5.0293,-5.0017,-4.9841,-4.9841,-5.0142,-5.067,-5.067,-5.0996,-5.1523,-5.1523,-5.185,-5.2352,-5.2352,-5.2578,-5.2929,-5.2929,-5.2929,-5.2929,-5.2929,-5.2929,-5.2929,-5.2929,-5.2929,-5.2929,-5.2929,-5.2929,-5.2929,-5.2929,-5.2929,-5.2929,-5.2929,-5.2929,-5.2929,-5.2929,-5.2929,-5.2929,-5.2929,-5.2929,-5.2929,-5.2929,-5.2929,-5.2804,-5.2427,-5.2352,-5.2176,-5.1599,-5.1523,-5.1322,-5.0745,-5.0519,-5.0268,-4.9891,-4.969,-4.959,-4.959,-4.9238,-4.9012,-4.9012,-4.9651,-5.0314,-5.1052,-5.0067,-5.0519,-5.2707,-5.0824,-5.033,-5.1384,-4.9415,-4.9189,-5.0731,-4.9596,-4.9799,-5.1268,-5.06,-5.0916,-5.2148,-5.4831,-5.6022,-5.6079,-5.7272,-5.797,-5.8386,-5.8386,-5.8386,-5.8386,-5.8386,-5.8386,-5.8386,-5.1247,-5.1247,-5.1272,-5.1272,-5.1724,-5.2101,-5.2101,-5.2553,-5.2904,-5.2929,-5.2904,-5.2904,-5.2904,-5.2904,-5.2904,-5.2904,-5.2904,-5.2904,-5.2904,-5.2904,-5.2904,-5.2904,-5.2377,-5.2101,-5.2101,-5.1548,-5.1272,-5.1272,-5.1272,-5.0971,-5.0419,-5.0419,-5.072,-5.1272,-5.1272,-5.1574,-5.2101,-5.2101,-5.2402,-5.2929,-5.2929,-5.2929,-5.2929,-5.2929,-5.2929,-5.2929,-5.2929,-5.2929,-5.2929,-5.2929,-5.2929,-5.2929,-5.2929,-5.2929,-5.2929,-5.2929,-5.2929,-5.2929,-5.2929,-5.2929,-5.2929,-5.2929,-5.2929,-5.2929,-5.2929,-5.2929,-5.2929,-5.2929,-5.2929,-5.2929,-5.2929,-5.2929,-5.2729,-5.2176,-5.2101,-5.19,-5.1348,-5.077,-5.0419,-5.0419,-4.9916,-4.959,-4.959,-4.959,-4.959,-4.959,-4.9565,-4.9152,-4.802,-4.797,-4.797,-4.797,-4.8523,-4.8825,-4.8825,-4.9289,-4.9565,-4.9654,-4.959,-4.959,-4.9654,-5.1268,-5.1989,-5.2086,-5.373,-5.4446,-5.4446,-5.4446,-5.5327,-5.6736,-5.6736,-5.6736,-5.6736,-5.6736,-5.6736,-5.6736,-5.1272,-5.1574,-5.185,-5.185,-5.2302,-5.2678,-5.2678,-5.2804,-5.2929,-5.2929,-5.2929,-5.2929,-5.2929,-5.2929,-5.2929,-5.2929,-5.2929,-5.2929,-5.2929,-5.2929,-5.2929,-5.2929,-5.2754,-5.2678,-5.2678,-5.2126,-5.185,-5.185,-5.1473,-5.1197,-5.0996,-5.0996,-5.1297,-5.185,-5.185,-5.2151,-5.2678,-5.2678,-5.2754,-5.2929,-5.2929,-5.2929,-5.2929,-5.2929,-5.2929,-5.2929,-5.2929,-5.2929,-5.2929,-5.2929,-5.2929,-5.2929,-5.2929,-5.2929,-5.2929,-5.2929,-5.2929,-5.2929,-5.2929,-5.2929,-5.2929,-5.2929,-5.2929,-5.2929,-5.2929,-5.2929,-5.2929,-5.2929,-5.2929,-5.2929,-5.2929,-5.2929,-5.2879,-5.2703,-5.2678,-5.2477,-5.1925,-5.1674,-5.1272,-5.0519,-5.0268,-5.0017,-4.964,-4.959,-4.959,-4.959,-4.959,-4.9439,-4.9088,-4.9063,-4.9584,-5.0659,-4.9825,-4.9863,-5.1007,-5.0041,-4.959,-4.959,-4.959,-4.959,-4.9654,-5.1268,-5.1393,-5.0499,-5.3214,-5.379,-5.2822,-5.3969,-5.4682,-5.5152,-5.5152,-5.5152,-5.5152,-5.5152,-5.5152,-5.5152,-5.19,-5.2176,-5.2427,-5.2427,-5.2703,-5.2929,-5.2929,-5.2929,-5.2929,-5.2929,-5.2929,-5.2929,-5.2929,-5.2929,-5.2929,-5.2929,-5.2929,-5.2929,-5.2929,-5.2929,-5.2929,-5.2929,-5.2929,-5.2929,-5.2929,-5.2578,-5.2427,-5.2427,-5.2076,-5.19,-5.19,-5.19,-5.2076,-5.2427,-5.2427,-5.2603,-5.2929,-5.2929,-5.2929,-5.2929,-5.2929,-5.2929,-5.2929,-5.2929,-5.2929,-5.2929,-5.2929,-5.2929,-5.2929,-5.2929,-5.2929,-5.2929,-5.2929,-5.2929,-5.2929,-5.2929,-5.2929,-5.2929,-5.2929,-5.2929,-5.2929,-5.2929,-5.2929,-5.2929,-5.2929,-5.2929,-5.2929,-5.2929,-5.2929,-5.2929,-5.2929,-5.2929,-5.2929,-5.2929,-5.2929,-5.2804,-5.2452,-5.2226,-5.185,-5.1122,-5.087,-5.0519,-4.9967,-4.9916,-4.9816,-4.9615,-4.959,-4.959,-4.959,-4.959,-5.0078,-5.1079,-5.0142,-5.0078,-5.1079,-5.0078,-4.959,-4.959,-4.959,-4.959,-4.9654,-5.0664,-5.0537,-4.9719,-5.1705,-5.2051,-5.1205,-5.2174,-5.2944,-5.3489,-5.3489,-5.3489,-5.3489,-5.3489,-5.3489,-5.3489,-5.2929,-5.2929,-5.2929,-5.298,-5.298,-5.3005,-5.303,-5.303,-5.303,-5.303,-5.303,-5.303,-5.303,-5.303,-5.303,-5.298,-5.2955,-5.2929,-5.2929,-5.2929,-5.2929,-5.2929,-5.2929,-5.2929,-5.2929,-5.2929,-5.2929,-5.2929,-5.2929,-5.2929,-5.2929,-5.2929,-5.2929,-5.2929,-5.2929,-5.2929,-5.2929,-5.2929,-5.2929,-5.2929,-5.2929,-5.2929,-5.2929,-5.2929,-5.2929,-5.2929,-5.2929,-5.2929,-5.2929,-5.2929,-5.2929,-5.2929,-5.2929,-5.2929,-5.2929,-5.2929,-5.2929,-5.2929,-5.2929,-5.2929,-5.2929,-5.2929,-5.2929,-5.2929,-5.2929,-5.2929,-5.2929,-5.2929,-5.2929,-5.2929,-5.2929,-5.2929,-5.2929,-5.2929,-5.2929,-5.2929,-5.2929,-5.2477,-5.2151,-5.2101,-5.1649,-5.1122,-5.0519,-5.0444,-5.0193,-4.969,-4.9615,-4.959,-4.959,-4.959,-4.959,-4.959,-4.959,-4.959,-4.959,-4.959,-4.959,-4.959,-4.959,-4.959,-4.959,-4.959,-4.959,-4.959,-4.959,-4.959,-4.959,-4.959,-5.0499,-5.1865,-5.1865,-5.1865,-5.1865,-5.1865,-5.1865,-5.1865,-5.2929,-5.2929,-5.3055,-5.3457,-5.3507,-5.3658,-5.411,-5.4185,-5.4185,-5.4185,-5.4185,-5.4185,-5.4185,-5.4185,-5.4009,-5.3557,-5.3155,-5.2929,-5.2929,-5.2929,-5.2929,-5.2929,-5.2929,-5.2929,-5.2929,-5.2929,-5.2929,-5.2929,-5.2929,-5.2929,-5.2929,-5.2929,-5.2929,-5.2929,-5.2929,-5.2929,-5.2929,-5.2929,-5.2929,-5.2929,-5.2929,-5.2929,-5.2929,-5.2929,-5.2929,-5.2929,-5.2929,-5.2929,-5.2929,-5.2929,-5.2929,-5.2929,-5.2929,-5.2929,-5.2929,-5.2929,-5.2929,-5.2929,-5.2929,-5.2929,-5.2929,-5.2929,-5.2929,-5.2929,-5.2929,-5.2929,-5.2929,-5.2929,-5.2929,-5.2929,-5.2929,-5.2929,-5.2929,-5.2929,-5.2929,-5.2929,-5.2929,-5.2804,-5.2578,-5.2151,-5.2,-5.1699,-5.1122,-5.067,-5.0368,-5.0243,-4.9841,-4.959,-4.959,-4.959,-4.959,-4.959,-4.959,-4.959,-4.959,-4.959,-4.959,-4.959,-4.959,-4.959,-4.959,-4.959,-4.959,-4.959,-4.959,-4.959,-4.959,-4.959,-4.9847,-5.0181,-5.0181,-5.0181,-5.0181,-5.0181,-5.0181,-5.0181,-5.3231,-5.3281,-5.3457,-5.4009,-5.411,-5.421,-5.4511,-5.4561,-5.4561,-5.4561,-5.4561,-5.4561,-5.4561,-5.4561,-5.4436,-5.4135,-5.3607,-5.3181,-5.2955,-5.2929,-5.2929,-5.2929,-5.2929,-5.2929,-5.2929,-5.2929,-5.2929,-5.2929,-5.2929,-5.2929,-5.2929,-5.2929,-5.2929,-5.2929,-5.2929,-5.2929,-5.2929,-5.2929,-5.2929,-5.2929,-5.2929,-5.2929,-5.2929,-5.2929,-5.2929,-5.2929,-5.2929,-5.2929,-5.2929,-5.2929,-5.2929,-5.2929,-5.2929,-5.2929,-5.2929,-5.2929,-5.2929,-5.2929,-5.2929,-5.2929,-5.2929,-5.2929,-5.2929,-5.2929,-5.2929,-5.2929,-5.2929,-5.2929,-5.2929,-5.2929,-5.2929,-5.2929,-5.2929,-5.2929,-5.2929,-5.2929,-5.2929,-5.2929,-5.2804,-5.2528,-5.2477,-5.2251,-5.1699,-5.1373,-5.1096,-5.082,-5.0544,-5.0243,-4.9992,-4.9967,-4.9866,-4.9615,-4.959,-4.959,-4.959,-4.959,-4.959,-4.959,-4.959,-4.959,-4.959,-4.959,-4.959,-4.959,-4.959,-4.959,-4.959,-4.959,-4.959,-4.959,-4.959,-4.959,-4.959,-4.959,-4.959,-4.959,-5.3607,-5.3758,-5.4009,-5.4587,-5.4687,-5.4712,-5.4813,-5.4813,-5.4813,-5.4813,-5.4813,-5.4813,-5.4813,-5.4813,-5.4787,-5.4687,-5.4235,-5.3708,-5.308,-5.3055,-5.3005,-5.2929,-5.2929,-5.2929,-5.2929,-5.2929,-5.2929,-5.2929,-5.2929,-5.2929,-5.2929,-5.2929,-5.2929,-5.2929,-5.2929,-5.2929,-5.2929,-5.2929,-5.2929,-5.2929,-5.2929,-5.2929,-5.2929,-5.2929,-5.2929,-5.2929,-5.2929,-5.2929,-5.2929,-5.2929,-5.2929,-5.2929,-5.2929,-5.2929,-5.2929,-5.2929,-5.2929,-5.2929,-5.2929,-5.2929,-5.2929,-5.2929,-5.2929,-5.2929,-5.2929,-5.2929,-5.2929,-5.2929,-5.2929,-5.2929,-5.2929,-5.2929,-5.2929,-5.2929,-5.2929,-5.2929,-5.2929,-5.2929,-5.2929,-5.2929,-5.2929,-5.2754,-5.2277,-5.2151,-5.19,-5.1448,-5.1322,-5.1071,-5.0569,-5.0544,-5.0343,-4.9866,-4.969,-4.959,-4.959,-4.959,-4.959,-4.959,-4.959,-4.959,-4.959,-4.959,-4.959,-4.959,-4.959,-4.959,-4.959,-4.959,-4.959,-4.959,-4.959,-4.959,-4.959,-4.959,-4.959,-4.959,-5.3683,-5.411,-5.4612,-5.5164,-5.5265,-5.5415,-5.5892,-5.5968,-5.5968,-5.5968,-5.5968,-5.5968,-5.5968,-5.5968,-5.5767,-5.529,-5.5189,-5.4687,-5.3658,-5.3582,-5.3381,-5.2955,-5.2929,-5.2929,-5.2929,-5.2929,-5.2929,-5.2929,-5.2929,-5.2929,-5.2929,-5.2929,-5.2929,-5.2929,-5.2929,-5.2929,-5.2929,-5.2929,-5.2929,-5.2929,-5.2929,-5.2929,-5.2929,-5.2929,-5.2929,-5.2929,-5.2929,-5.2929,-5.2929,-5.2929,-5.2929,-5.2929,-5.2929,-5.2929,-5.2929,-5.2929,-5.2929,-5.2929,-5.2929,-5.2929,-5.2929,-5.2929,-5.2929,-5.2929,-5.2929,-5.2929,-5.2929,-5.2929,-5.2929,-5.2929,-5.2929,-5.2929,-5.2929,-5.2929,-5.2929,-5.2929,-5.2929,-5.2929,-5.2929,-5.2929,-5.2929,-5.2904,-5.2804,-5.2377,-5.2076,-5.1975,-5.1548,-5.1247,-5.1147,-5.1147,-5.1096,-5.1021,-5.0092,-4.959,-4.959,-4.959,-4.959,-4.959,-4.959,-4.959,-4.959,-4.959,-4.959,-4.959,-4.959,-4.959,-4.959,-4.959,-4.959,-4.959,-4.959,-4.959,-4.959,-4.959,-4.959,-4.959,-5.4561,-5.4838,-5.5189,-5.5742,-5.5842,-5.5917,-5.6168,-5.6219,-5.6219,-5.6219,-5.6219,-5.6219,-5.6219,-5.6219,-5.6118,-5.5867,-5.5842,-5.5491,-5.4662,-5.4336,-5.4059,-5.3833,-5.3507,-5.3206,-5.2929,-5.2929,-5.2929,-5.2929,-5.2929,-5.2929,-5.2929,-5.2929,-5.2929,-5.2929,-5.2929,-5.2929,-5.2929,-5.2929,-5.2929,-5.2929,-5.2929,-5.2929,-5.2929,-5.2929,-5.2929,-5.2929,-5.2929,-5.2929,-5.2929,-5.2929,-5.2929,-5.2929,-5.2929,-5.2929,-5.2929,-5.2929,-5.2929,-5.2929,-5.2929,-5.2929,-5.2929,-5.2929,-5.2929,-5.2929,-5.2929,-5.2929,-5.2929,-5.2929,-5.2929,-5.2929,-5.2929,-5.2929,-5.2929,-5.2929,-5.2929,-5.2929,-5.2929,-5.2929,-5.2929,-5.2929,-5.2929,-5.2929,-5.2929,-5.2703,-5.2553,-5.2553,-5.2302,-5.2051,-5.1749,-5.1724,-5.1599,-5.1297,-5.077,-5.0494,-5.0494,-5.0494,-5.0343,-5.0042,-5.0042,-4.9891,-4.959,-4.959,-4.959,-4.959,-4.959,-4.959,-4.959,-4.959,-4.959,-4.959,-4.959,-4.959,-4.959,-4.959,-4.959,-4.959,-5.5315,-5.5491,-5.5717,-5.6143,-5.6219,-5.6219,-5.6219,-5.6219,-5.6219,-5.6219,-5.6219,-5.6219,-5.6219,-5.6219,-5.6219,-5.6219,-5.6219,-5.6043,-5.5616,-5.5189,-5.4838,-5.4587,-5.4135,-5.3658,-5.313,-5.3105,-5.3055,-5.2929,-5.2929,-5.2929,-5.2929,-5.2929,-5.2929,-5.2929,-5.2929,-5.2929,-5.2929,-5.2929,-5.2929,-5.2929,-5.2929,-5.2929,-5.2929,-5.2929,-5.2929,-5.2929,-5.2929,-5.2929,-5.2929,-5.2929,-5.2929,-5.2929,-5.2929,-5.2929,-5.2929,-5.2929,-5.2929,-5.2929,-5.2929,-5.2929,-5.2929,-5.2929,-5.2929,-5.2929,-5.2929,-5.2929,-5.2929,-5.2929,-5.2929,-5.2929,-5.2929,-5.2929,-5.2929,-5.2929,-5.2929,-5.2929,-5.2929,-5.2929,-5.2929,-5.2929,-5.2929,-5.2929,-5.2929,-5.2929,-5.2929,-5.2929,-5.2929,-5.2754,-5.2327,-5.2302,-5.2101,-5.1674,-5.1423,-5.1272,-5.1272,-5.1272,-5.1046,-5.0619,-5.0619,-5.0393,-4.9992,-4.9992,-4.9916,-4.9791,-4.9791,-4.9715,-4.959,-4.959,-4.959,-4.959,-4.959,-4.959,-4.959,-4.959,-4.959,-4.959,-5.539,-5.5792,-5.6168,-5.6194,-5.6219,-5.6219,-5.6219,-5.6219,-5.6219,-5.6219,-5.6219,-5.6219,-5.6219,-5.6219,-5.6219,-5.6219,-5.6219,-5.6194,-5.6143,-5.6118,-5.5641,-5.4612,-5.4607,-5.4235,-5.3658,-5.3632,-5.3406,-5.2929,-5.2929,-5.2929,-5.2929,-5.2929,-5.2929,-5.2929,-5.2929,-5.2929,-5.2929,-5.2929,-5.2929,-5.2929,-5.2929,-5.2929,-5.2929,-5.2929,-5.2929,-5.2929,-5.2929,-5.2929,-5.2929,-5.2929,-5.2929,-5.2929,-5.2929,-5.2929,-5.2929,-5.2929,-5.2929,-5.2929,-5.2929,-5.2929,-5.2929,-5.2929,-5.2929,-5.2929,-5.2929,-5.2929,-5.2929,-5.2929,-5.2929,-5.2929,-5.2929,-5.2929,-5.2929,-5.2929,-5.2929,-5.2929,-5.2929,-5.2929,-5.2929,-5.2929,-5.2929,-5.2929,-5.2929,-5.2929,-5.2929,-5.2929,-5.2929,-5.2904,-5.2879,-5.2879,-5.2854,-5.2804,-5.1825,-5.1272,-5.1272,-5.1272,-5.1272,-5.1222,-5.1222,-5.1197,-5.1147,-5.1147,-5.087,-5.0368,-5.0368,-5.0067,-4.959,-4.959,-4.959,-4.959,-4.959,-4.959,-4.959,-4.959,-4.959,-4.959,-5.5892,-5.6068,-5.6219,-5.6219,-5.6219,-5.6219,-5.6219,-5.6219,-5.6219,-5.6219,-5.6219,-5.6219,-5.6219,-5.6219,-5.6219,-5.6219,-5.6219,-5.6219,-5.6219,-5.6219,-5.5867,-5.5114,-5.5089,-5.4637,-5.3708,-5.3708,-5.3457,-5.2929,-5.2929,-5.2929,-5.2929,-5.2929,-5.2929,-5.2929,-5.2929,-5.2929,-5.2929,-5.2929,-5.2929,-5.2929,-5.2929,-5.2929,-5.2929,-5.2929,-5.2929,-5.2929,-5.2929,-5.2929,-5.2929,-5.2929,-5.2929,-5.2929,-5.2929,-5.2929,-5.2929,-5.2929,-5.2929,-5.2929,-5.2929,-5.2929,-5.2929,-5.2929,-5.2929,-5.2929,-5.2929,-5.2929,-5.2929,-5.2929,-5.2929,-5.2929,-5.2929,-5.2929,-5.2929,-5.2929,-5.2929,-5.2929,-5.2929,-5.2929,-5.2929,-5.2929,-5.2929,-5.2929,-5.2929,-5.2929,-5.2929,-5.2929,-5.2929,-5.2929,-5.2929,-5.2929,-5.2929,-5.2929,-5.2528,-5.2302,-5.2302,-5.2302,-5.2126,-5.18,-5.18,-5.1599,-5.1272,-5.1272,-5.1147,-5.0946,-5.0946,-5.0845,-5.0619,-5.0243,-5.0117,-5.0067,-4.9715,-4.959,-4.959,-4.959,-4.959,-4.959,-5.6219,-5.6219,-5.6219,-5.6219,-5.6219,-5.6219,-5.6219,-5.6219,-5.6219,-5.6219,-5.6219,-5.6219,-5.6219,-5.6219,-5.6219,-5.6219,-5.6068,-5.5968,-5.5968,-5.5792,-5.5591,-5.539,-5.539,-5.4863,-5.3733,-5.3708,-5.3457,-5.2929,-5.2929,-5.2929,-5.2929,-5.2929,-5.2929,-5.2929,-5.2929,-5.2929,-5.2929,-5.2929,-5.2929,-5.2929,-5.2929,-5.2929,-5.2929,-5.2929,-5.2929,-5.2929,-5.2929,-5.2929,-5.2929,-5.2929,-5.2929,-5.2929,-5.2929,-5.2929,-5.2929,-5.2929,-5.2929,-5.2929,-5.2929,-5.2929,-5.2929,-5.2929,-5.2929,-5.2929,-5.2929,-5.2929,-5.2929,-5.2929,-5.2929,-5.2929,-5.2929,-5.2929,-5.2929,-5.2929,-5.2929,-5.2929,-5.2929,-5.2929,-5.2929,-5.2929,-5.2929,-5.2929,-5.2929,-5.2929,-5.2929,-5.2929,-5.2929,-5.2929,-5.2929,-5.2929,-5.2929,-5.2929,-5.2929,-5.2929,-5.2929,-5.2929,-5.2729,-5.2352,-5.2352,-5.2176,-5.18,-5.18,-5.1699,-5.1548,-5.1548,-5.1448,-5.1247,-5.0845,-5.0695,-5.0645,-5.0067,-4.9841,-4.9841,-4.9665,-4.959,-4.959,-5.6219,-5.6219,-5.6219,-5.6219,-5.6219,-5.6219,-5.6219,-5.6219,-5.6219,-5.6219,-5.6219,-5.6219,-5.6194,-5.6194,-5.6194,-5.6194,-5.5691,-5.539,-5.539,-5.4863,-5.4813,-5.534,-5.539,-5.4863,-5.3733,-5.3708,-5.3457,-5.2929,-5.2929,-5.2929,-5.2929,-5.2929,-5.2929,-5.2929,-5.2929,-5.2929,-5.2929,-5.2929,-5.2929,-5.2929,-5.2929,-5.2929,-5.2929,-5.2929,-5.2929,-5.2929,-5.2929,-5.2929,-5.2929,-5.2929,-5.2929,-5.2929,-5.2929,-5.2929,-5.2929,-5.2929,-5.2929,-5.2929,-5.2929,-5.2929,-5.2929,-5.2929,-5.2929,-5.2929,-5.2929,-5.2929,-5.2929,-5.2929,-5.2929,-5.2929,-5.2929,-5.2929,-5.2929,-5.2929,-5.2929,-5.2929,-5.2929,-5.2929,-5.2929,-5.2929,-5.2929,-5.2929,-5.2929,-5.2929,-5.2929,-5.2929,-5.2929,-5.2929,-5.2929,-5.2929,-5.2929,-5.2929,-5.2929,-5.2929,-5.2929,-5.2929,-5.2929,-5.2929,-5.2929,-5.2929,-5.2929,-5.2929,-5.2628,-5.2126,-5.2126,-5.18,-5.1297,-5.1297,-5.1297,-5.1222,-5.0645,-5.0419,-5.0343,-4.9791,-4.959,-4.959,-5.6219,-5.6219,-5.6219,-5.6219,-5.6219,-5.6219,-5.6219,-5.6219,-5.6219,-5.6219,-5.6219,-5.6068,-5.5666,-5.5641,-5.5491,-5.5089,-5.4913,-5.4813,-5.4813,-5.4662,-5.4461,-5.421,-5.4587,-5.4461,-5.3708,-5.3708,-5.3457,-5.2929,-5.2929,-5.2929,-5.2929,-5.2929,-5.2929,-5.2929,-5.2929,-5.2929,-5.2929,-5.2929,-5.2929,-5.2929,-5.2929,-5.2929,-5.2929,-5.2929,-5.2929,-5.2929,-5.2929,-5.2929,-5.2929,-5.2929,-5.2929,-5.2929,-5.2929,-5.2929,-5.2929,-5.2929,-5.2929,-5.2929,-5.2929,-5.2929,-5.2929,-5.2929,-5.2929,-5.2929,-5.2929,-5.2929,-5.2929,-5.2929,-5.2929,-5.2929,-5.2929,-5.2929,-5.2929,-5.2929,-5.2929,-5.2929,-5.2929,-5.2929,-5.2929,-5.2929,-5.2929,-5.2929,-5.2929,-5.2929,-5.2929,-5.2929,-5.2929,-5.2929,-5.2929,-5.2929,-5.2929,-5.2929,-5.2929,-5.2929,-5.2929,-5.2929,-5.2929,-5.2929,-5.2929,-5.2929,-5.2929,-5.2929,-5.2829,-5.2678,-5.2678,-5.2578,-5.2402,-5.2026,-5.185,-5.18,-5.1247,-5.077,-5.0393,-5.0243,-4.9916,-4.959,-5.5722,-5.5892,-5.5817,-5.5591,-5.5566,-5.5566,-5.5566,-5.5566,-5.5566,-5.5566,-5.5566,-5.544,-5.5089,-5.5064,-5.4938,-5.4587,-5.4361,-5.4135,-5.3934,-5.3909,-5.3758,-5.3406,-5.3733,-5.3758,-5.3406,-5.3381,-5.3231,-5.2929,-5.2929,-5.2929,-5.2929,-5.2929,-5.2929,-5.2929,-5.2929,-5.2929,-5.2929,-5.2929,-5.2929,-5.2929,-5.2929,-5.2929,-5.2929,-5.2929,-5.2929,-5.2929,-5.2929,-5.2929,-5.2929,-5.2929,-5.2929,-5.2929,-5.2929,-5.2929,-5.2929,-5.2929,-5.2929,-5.2929,-5.2929,-5.2929,-5.2929,-5.2929,-5.2929,-5.2929,-5.2929,-5.2929,-5.2929,-5.2929,-5.2929,-5.2929,-5.2929,-5.2929,-5.2929,-5.2929,-5.2929,-5.2929,-5.2929,-5.2929,-5.2929,-5.2929,-5.2929,-5.2929,-5.2929,-5.2929,-5.2929,-5.2929,-5.2929,-5.2929,-5.2929,-5.2929,-5.2929,-5.2929,-5.2929,-5.2929,-5.2929,-5.2929,-5.2929,-5.2929,-5.2929,-5.2929,-5.2929,-5.2929,-5.2929,-5.2929,-5.2929,-5.2929,-5.2904,-5.2578,-5.2427,-5.2377,-5.1825,-5.1398,-5.1021,-5.0594,-5.0193,-4.9891,-5.447,-5.4785,-5.4611,-5.4185,-5.4181,-5.4323,-5.4323,-5.4491,-5.4561,-5.4561,-5.4561,-5.4536,-5.4486,-5.4486,-5.4461,-5.4411,-5.3934,-5.3432,-5.2955,-5.2929,-5.2929,-5.2929,-5.2929,-5.2929,-5.2929,-5.2929,-5.2929,-5.2929,-5.2929,-5.2929,-5.2929,-5.2929,-5.2929,-5.2929,-5.2929,-5.2929,-5.2929,-5.2929,-5.2929,-5.2929,-5.2929,-5.2929,-5.2929,-5.2929,-5.2929,-5.2929,-5.2929,-5.2929,-5.2929,-5.2929,-5.2929,-5.2929,-5.2929,-5.2929,-5.2929,-5.2929,-5.2929,-5.2929,-5.2929,-5.2929,-5.2929,-5.2929,-5.2929,-5.2929,-5.2929,-5.2929,-5.2929,-5.2929,-5.2929,-5.2929,-5.2929,-5.2929,-5.2929,-5.2929,-5.2929,-5.2929,-5.2929,-5.2929,-5.2929,-5.2929,-5.2929,-5.2929,-5.2929,-5.2929,-5.2929,-5.2929,-5.2929,-5.2929,-5.2929,-5.2929,-5.2929,-5.2929,-5.2929,-5.2929,-5.2929,-5.2929,-5.2929,-5.2929,-5.2929,-5.2929,-5.2929,-5.2929,-5.2929,-5.2929,-5.2929,-5.2929,-5.2929,-5.2929,-5.2929,-5.2879,-5.2377,-5.2151,-5.1975,-5.0946,-5.0494,-5.0343,-5.0094,-5.0169,-5.0123,-5.003,-5.1213,-5.2284,-5.2284,-5.3585,-5.4561,-5.4561,-5.4561,-5.4386,-5.3934,-5.3884,-5.3733,-5.3306,-5.3181,-5.3055,-5.2929,-5.2929,-5.2929,-5.2929,-5.2929,-5.2929,-5.2929,-5.2929,-5.2929,-5.2929,-5.2929,-5.2929,-5.2929,-5.2929,-5.2929,-5.2929,-5.2929,-5.2929,-5.2929,-5.2929,-5.2929,-5.2929,-5.2929,-5.2929,-5.2929,-5.2929,-5.2929,-5.2929,-5.2929,-5.2929,-5.2929,-5.2929,-5.2929,-5.2929,-5.2929,-5.2929,-5.2929,-5.2929,-5.2929,-5.2929,-5.2929,-5.2929,-5.2929,-5.2929,-5.2929,-5.2929,-5.2929,-5.2929,-5.2929,-5.2929,-5.2929,-5.2929,-5.2929,-5.2929,-5.2929,-5.2929,-5.2929,-5.2929,-5.2929,-5.2929,-5.2929,-5.2929,-5.2929,-5.2929,-5.2929,-5.2929,-5.2929,-5.2929,-5.2929,-5.2929,-5.2929,-5.2929,-5.2929,-5.2929,-5.2929,-5.2929,-5.2929,-5.2929,-5.2929,-5.2929,-5.2929,-5.2929,-5.2929,-5.2929,-5.2929,-5.2929,-5.2929,-5.2929,-5.2929,-5.2929,-5.2929,-5.2929,-5.2804,-5.2477,-5.2076,-5.1825,-5.1172,-5.0343,-4.8149,-4.8321,-4.8231,-4.791,-4.8776,-4.9438,-4.9438,-5.0336,-5.101,-5.101,-5.101,-5.1201,-5.1883,-5.1905,-5.2182,-5.2886,-5.2929,-5.2929,-5.2929,-5.2929,-5.2929,-5.2929,-5.2929,-5.2929,-5.2929,-5.2929,-5.2929,-5.2929,-5.2929,-5.2929,-5.2929,-5.2929,-5.2929,-5.2929,-5.2929,-5.2929,-5.2929,-5.2929,-5.2929,-5.2929,-5.2929,-5.2929,-5.2929,-5.2929,-5.2929,-5.2929,-5.2929,-5.2929,-5.2929,-5.2929,-5.2929,-5.2929,-5.2929,-5.2929,-5.2929,-5.2929,-5.2929,-5.2929,-5.2929,-5.2929,-5.2929,-5.2929,-5.2929,-5.2929,-5.2929,-5.2929,-5.2929,-5.2929,-5.2929,-5.2929,-5.2929,-5.2929,-5.2929,-5.2929,-5.2929,-5.2929,-5.2929,-5.2929,-5.2929,-5.2929,-5.2929,-5.2929,-5.2929,-5.2929,-5.2929,-5.2929,-5.2929,-5.2929,-5.2929,-5.2929,-5.2929,-5.2929,-5.2929,-5.2929,-5.2929,-5.2929,-5.2929,-5.2929,-5.2929,-5.2929,-5.2929,-5.2929,-5.2929,-5.2929,-5.2929,-5.2929,-5.2929,-5.2929,-5.2929,-5.2929,-5.2929,-5.2754,-5.2477,-5.2201,-5.1398,-5.0343,-4.6408,-4.6783,-4.6576,-4.6085,-4.6293,-4.6514,-4.6514,-4.6809,-4.7029,-4.7029,-4.7029,-4.7759,-4.9748,-5.0269,-5.1138,-5.2792,-5.2929,-5.2929,-5.2929,-5.2929,-5.2929,-5.2929,-5.2929,-5.2929,-5.2929,-5.2929,-5.2929,-5.2929,-5.2929,-5.2929,-5.2929,-5.2929,-5.2929,-5.2929,-5.2929,-5.2929,-5.2929,-5.2929,-5.2929,-5.2929,-5.2929,-5.2929,-5.2929,-5.2929,-5.2929,-5.2929,-5.2929,-5.2929,-5.2929,-5.2929,-5.2929,-5.2929,-5.2929,-5.2929,-5.2929,-5.2929,-5.2929,-5.2929,-5.2929,-5.2929,-5.2929,-5.2929,-5.2929,-5.2929,-5.2929,-5.2929,-5.2929,-5.2929,-5.2929,-5.2929,-5.2929,-5.2929,-5.2929,-5.2929,-5.2929,-5.2929,-5.2929,-5.2929,-5.2929,-5.2929,-5.2929,-5.2929,-5.2929,-5.2929,-5.2929,-5.2929,-5.2929,-5.2929,-5.2929,-5.2929,-5.2929,-5.2929,-5.2929,-5.2929,-5.2929,-5.2929,-5.2929,-5.2929,-5.2929,-5.2929,-5.2929,-5.2929,-5.2929,-5.2929,-5.2929,-5.2929,-5.2929,-5.2929,-5.2929,-5.2929,-5.2929,-5.2929,-5.2854,-5.2201,-5.1373,-5.0469,-4.2084,-4.2084,-4.2064,-4.2005,-4.338,-4.4452,-4.4452,-4.5923,-4.7029,-4.7029,-4.7029,-4.7759,-4.9748,-5.1513,-5.2629,-5.2861,-5.2929,-5.2929,-5.2929,-5.2929,-5.2929,-5.2929,-5.2929,-5.2929,-5.2929,-5.2929,-5.2929,-5.2929,-5.2929,-5.2929,-5.2929,-5.2929,-5.2929,-5.2929,-5.2929,-5.2929,-5.2929,-5.2929,-5.2929,-5.2929,-5.2929,-5.2929,-5.2929,-5.2929,-5.2929,-5.2929,-5.2929,-5.2929,-5.2929,-5.2929,-5.2929,-5.2929,-5.2929,-5.2929,-5.2929,-5.2929,-5.2929,-5.2929,-5.2929,-5.2929,-5.2929,-5.2929,-5.2929,-5.2929,-5.2929,-5.2929,-5.2929,-5.2929,-5.2929,-5.2929,-5.2929,-5.2929,-5.2929,-5.2929,-5.2929,-5.2929,-5.2929,-5.2929,-5.2929,-5.2929,-5.2929,-5.2929,-5.2929,-5.2929,-5.2929,-5.2929,-5.2929,-5.2929,-5.2929,-5.2929,-5.2929,-5.2929,-5.2929,-5.2929,-5.2929,-5.2929,-5.2929,-5.2929,-5.2929,-5.2929,-5.2929,-5.2929,-5.2929,-5.2929,-5.2929,-5.2929,-5.2929,-5.2929,-5.2929,-5.2929,-5.2929,-5.2929,-5.2804,-5.1774,-5.1297,-5.1021,-4.1172,-4.1172,-4.1172,-4.1172,-4.1907,-4.2483,-4.2483,-4.3228,-4.3739,-4.3739,-4.3739,-4.4548,-4.6514,-4.8434,-4.9605,-4.9605,-5.0646,-5.1303,-5.1303,-5.2258,-5.2929,-5.2929,-5.2929,-5.2929,-5.2929,-5.2929,-5.2929,-5.2929,-5.2929,-5.2929,-5.2929,-5.2929,-5.2929,-5.2929,-5.2929,-5.2929,-5.2929,-5.2929,-5.2929,-5.2929,-5.2929,-5.2929,-5.2929,-5.2929,-5.2929,-5.2929,-5.2929,-5.2929,-5.2929,-5.2929,-5.2929,-5.2929,-5.2929,-5.2929,-5.2929,-5.2929,-5.2929,-5.2929,-5.2929,-5.2929,-5.2929,-5.2929,-5.2929,-5.2929,-5.2929,-5.2929,-5.2929,-5.2929,-5.2929,-5.2929,-5.2929,-5.2929,-5.2929,-5.2929,-5.2929,-5.2929,-5.2929,-5.2929,-5.2929,-5.2929,-5.2929,-5.2929,-5.2929,-5.2929,-5.2929,-5.2929,-5.2929,-5.2929,-5.2929,-5.2929,-5.2929,-5.2929,-5.2929,-5.2929,-5.2929,-5.2929,-5.2929,-5.2929,-5.2929,-5.2929,-5.2929,-5.2929,-5.2929,-5.2929,-5.2929,-5.2929,-5.2929,-5.2929,-5.2929,-5.2929,-5.2929,-5.2929,-5.2804,-5.1699,-5.1272,-5.1122]}]]